GFSNW_sfc_dewp_000.txt.gz
Dewpoint
42 41 41 44 46 48 47 43 36 49 50 38 39 32 30 34 39 40 38 36 33 32 32 31 28 28 29 34 35 32 35 34 27 27 32 32 29 27 27 23 17 23 19 17
42 40 42 44 46 48 46 40 43 49 47 33 35 34 34 36 39 39 38 36 36 36 33 29 31 31 32 35 35 34 34 33 26 27 31 34 33 31 27 27 28 21 17 15
42 40 41 44 47 48 48 41 36 42 44 42 34 32 32 33 38 38 39 38 37 36 35 33 31 31 33 35 35 38 37 35 30 23 29 33 31 31 30 28 26 23 22 21
41 40 40 44 47 48 48 43 37 38 33 37 34 34 34 33 34 38 39 39 37 37 36 34 33 32 32 35 37 38 38 31 33 33 31 34 34 33 31 30 28 23 21 21
41 40 42 44 47 49 45 41 39 39 36 36 32 33 34 34 35 38 37 36 36 38 37 34 29 33 33 34 35 36 39 32 33 31 35 34 33 34 35 34 29 27 25 25
40 40 43 44 47 48 42 43 45 39 37 37 33 33 34 34 38 38 39 39 39 38 38 39 39 36 36 37 36 37 36 33 32 28 34 34 29 31 31 32 33 28 26 27
40 40 41 43 46 48 45 44 44 41 36 36 33 35 34 37 39 36 39 40 39 40 44 42 40 38 38 38 38 39 35 33 33 29 33 27 33 37 33 32 34 33 29 34
40 40 41 42 45 46 46 46 44 44 36 36 34 38 37 37 40 40 40 40 42 44 43 40 35 35 35 35 38 38 38 35 33 30 31 32 34 38 33 32 32 34 34 34
41 40 41 42 44 46 46 45 48 45 39 36 36 37 39 39 39 39 41 42 44 46 42 38 32 26 30 28 32 34 38 37 34 32 29 21 25 39 42 39 34 37 36 36
41 40 41 41 43 45 46 46 48 45 42 42 41 38 39 41 40 37 38 38 40 43 39 36 34 32 31 27 28 31 34 33 32 31 29 29 31 32 39 33 30 32 38 38
41 41 41 41 43 45 46 44 48 46 43 43 43 42 41 40 40 37 41 40 42 41 37 36 36 35 32 29 29 30 31 29 29 29 27 21 34 33 31 31 33 33 34 34
41 40 41 41 41 44 46 42 45 47 45 42 45 44 44 43 43 42 42 41 41 42 40 38 39 36 32 31 27 31 31 32 30 30 28 32 34 34 35 34 33 33 34 34
41 41 41 40 41 43 45 43 45 45 45 44 43 42 44 47 46 46 42 43 44 44 46 42 37 35 35 31 31 29 32 35 34 33 32 33 33 34 34 34 34 35 35 33
41 41 39 40 41 43 44 43 44 42 44 40 38 45 43 45 47 46 46 46 47 47 46 43 39 35 35 33 33 34 36 35 34 33 33 32 33 34 34 34 34 34 34 34
38 38 39 40 41 42 43 43 43 43 44 41 42 42 43 46 46 46 47 46 45 44 43 42 40 38 37 35 34 32 35 36 34 34 35 34 33 34 34 33 33 33 32 32
38 38 37 38 40 42 41 39 47 48 48 44 39 45 44 46 47 46 46 46 45 45 44 43 44 43 39 33 32 36 35 35 37 36 33 33 34 34 34 33 32 32 31 31
37 38 38 39 39 40 38 38 44 45 45 44 37 36 45 46 45 46 46 47 45 45 43 44 43 43 42 40 36 36 36 35 34 34 34 33 33 33 33 33 33 33 31 31
37 39 39 40 41 41 39 43 44 45 43 45 36 37 40 46 43 42 46 44 45 45 43 43 41 40 40 37 37 35 34 34 33 33 34 34 33 33 32 32 31 30 30 30
41 40 41 43 42 38 42 42 44 45 45 39 38 34 33 44 43 42 44 44 40 44 41 41 40 38 35 37 37 36 34 34 32 32 32 33 32 31 31 30 29 29 29 29
38 39 36 36 37 41 42 44 43 42 43 43 39 37 37 40 41 40 40 40 38 34 39 39 38 37 39 38 37 36 35 33 32 30 29 29 30 31 30 29 28 29 29 28
36 32 34 38 41 39 42 37 38 39 36 41 38 36 37 40 37 38 38 35 34 33 32 36 34 34 36 36 39 37 34 32 32 32 31 31 31 29 27 27 27 26 26 25
36 36 39 38 35 33 32 33 35 36 32 37 39 37 36 37 39 38 36 32 33 30 32 33 31 33 32 33 35 34 33 32 32 31 30 30 29 27 26 26 25 25 24 23
38 35 31 31 31 28 30 28 32 33 36 36 36 33 35 35 35 34 33 32 31 28 30 29 31 28 30 31 33 32 32 32 29 28 28 27 27 27 26 26 26 24 23 22
29 27 20 25 26 30 31 30 32 32 33 36 36 30 31 35 30 32 31 33 31 28 26 23 26 26 28 31 32 32 30 29 27 26 26 27 27 27 27 27 26 24 23 23
28 28 18 26 32 33 33 33 32 34 37 35 35 34 32 31 26 28 31 28 27 26 25 25 26 22 27 30 30 29 27 26 26 26 26 26 27 27 27 27 26 25 23 22
30 26 21 31 29 26 31 32 32 35 38 35 35 32 27 31 26 25 26 23 24 27 25 24 21 26 28 28 28 27 27 26 26 26 26 26 26 26 26 25 24 22 20 18
27 28 32 30 28 30 32 32 34 37 36 34 33 30 27 26 22 22 23 25 29 30 20 28 21 22 25 26 27 27 26 26 26 25 25 25 25 24 23 20 17 16 15 14

GFSNW_sfc_dewp_003.txt.gz
Dewpoint
43 43 42 42 45 48 47 42 36 47 49 36 35 34 31 36 37 39 38 35 33 31 31 32 31 28 28 33 35 34 34 33 28 27 31 32 30 28 28 25 22 25 21 18
43 42 40 42 45 48 45 39 42 48 45 33 34 36 35 36 39 39 38 36 36 36 32 31 31 31 32 36 34 33 35 33 24 23 31 32 33 31 29 28 28 23 19 18
43 41 41 42 45 47 47 41 36 42 43 42 34 32 33 33 38 39 39 37 37 36 35 33 32 32 33 34 35 38 37 34 27 23 27 33 31 30 32 32 26 23 22 22
43 41 42 44 46 49 48 43 37 38 34 37 34 34 34 34 33 38 38 37 36 35 35 34 35 34 33 35 37 37 37 31 33 33 31 33 34 32 31 31 28 24 21 22
43 40 43 45 46 49 45 39 39 37 37 37 32 34 31 31 34 37 37 35 36 38 36 32 31 33 33 32 35 36 38 33 34 31 34 34 32 34 32 32 30 28 26 26
43 41 43 44 46 48 42 43 44 42 37 35 32 31 33 34 36 37 39 38 37 37 38 38 38 38 37 37 35 35 36 33 32 27 33 34 29 32 33 33 33 30 27 27
42 42 42 43 45 46 45 44 43 40 35 34 32 32 34 36 37 37 40 40 39 41 44 43 43 41 40 38 37 37 36 33 33 29 32 25 35 37 34 32 30 33 31 30
42 42 42 42 43 45 45 45 43 42 36 36 34 34 33 34 37 39 39 40 41 45 43 38 37 35 34 35 37 37 38 36 32 29 31 33 29 35 33 32 31 32 34 33
42 42 42 42 42 44 45 45 47 44 40 36 35 35 37 38 38 40 41 43 45 45 41 38 33 26 28 27 30 35 38 37 34 33 29 26 25 37 36 37 30 34 33 34
42 42 41 42 42 43 45 45 46 43 41 41 38 36 38 41 40 38 39 40 39 43 39 35 34 30 30 27 28 31 34 34 32 31 30 29 32 35 39 30 30 32 36 35
42 41 41 42 41 42 44 43 46 41 41 43 43 43 40 39 39 38 40 40 41 40 36 36 36 32 32 29 28 31 30 30 29 30 28 21 33 36 33 32 32 33 36 39
41 41 41 41 41 41 44 41 44 44 41 43 46 45 44 43 43 42 43 40 41 42 40 38 39 36 33 30 27 32 31 31 30 31 28 31 33 33 34 34 33 33 36 36
39 39 39 39 40 41 43 43 43 40 43 43 42 41 45 46 46 46 42 42 43 43 46 43 38 36 35 30 31 30 33 36 35 33 32 33 34 34 34 34 34 35 34 33
38 38 39 39 39 40 42 42 44 41 37 40 37 44 41 45 47 46 46 46 47 47 46 42 40 36 35 33 33 33 35 36 34 33 34 34 34 34 34 34 34 33 33 32
39 39 38 39 39 40 41 42 43 43 37 39 40 42 43 46 46 46 47 46 45 44 42 41 40 39 36 34 33 33 36 35 34 33 35 34 33 34 34 34 33 33 31 30
39 38 37 39 39 39 40 37 44 45 44 41 38 44 44 47 47 46 45 46 46 45 43 41 44 42 38 33 33 37 36 35 36 36 34 34 34 34 34 33 33 32 32 31
39 38 39 40 40 40 37 37 43 44 44 41 37 36 45 46 46 46 46 47 46 45 42 41 43 43 44 40 36 37 38 38 35 34 34 33 34 33 33 33 32 32 30 29
39 40 41 40 41 41 39 43 44 45 41 43 36 36 38 46 42 42 46 44 45 45 43 43 42 41 41 38 39 37 35 34 34 34 34 34 34 33 32 32 31 30 29 28
41 40 41 44 41 38 39 42 42 45 43 39 38 34 30 44 43 42 44 44 40 44 41 41 40 39 36 38 38 36 35 34 34 33 33 33 33 32 31 30 30 29 29 28
38 37 35 35 37 41 41 44 41 40 42 43 39 36 36 39 40 40 40 40 38 34 39 40 37 38 39 39 39 37 36 34 32 31 29 30 31 32 30 29 29 28 28 28
36 32 33 38 41 40 40 36 37 39 36 41 39 35 37 40 37 38 37 35 34 33 33 36 34 33 36 35 37 38 35 33 33 33 32 33 32 31 29 28 29 29 28 27
37 37 39 39 35 33 31 32 35 35 30 38 39 38 36 37 38 35 37 32 34 31 30 33 31 32 31 32 35 36 33 32 32 31 32 32 31 29 28 27 27 27 25 24
36 34 27 29 31 28 28 28 32 33 35 36 36 35 36 35 34 31 30 33 32 29 30 29 28 30 30 31 33 33 32 32 30 29 29 29 28 28 26 25 25 24 22 21
29 27 18 26 27 28 31 30 31 34 34 36 37 35 34 33 28 30 33 33 32 28 26 22 25 27 28 30 31 32 31 29 28 27 27 28 27 26 26 25 25 22 21 20
27 27 14 24 31 31 32 32 32 35 36 36 35 34 32 26 29 29 31 29 26 27 25 24 24 22 26 30 31 30 28 27 26 27 27 27 26 25 25 24 24 22 21 20
30 26 19 28 22 17 29 31 32 36 38 35 35 33 31 27 30 28 28 26 25 26 26 24 21 26 29 30 29 28 27 26 26 26 27 26 26 25 24 24 23 22 20 18
26 27 31 29 26 25 27 28 31 37 35 34 33 31 30 26 23 24 25 25 29 31 24 20 25 22 26 28 27 27 27 26 26 26 26 26 25 24 22 20 19 18 17 16

GFSNW_sfc_dewp_009.txt.gz
Dewpoint
44 44 42 44 45 48 46 42 35 47 46 36 38 37 36 38 33 38 33 31 28 27 27 27 27 27 27 31 32 30 30 30 29 28 27 28 27 28 27 27 24 27 24 21
44 44 43 45 46 48 47 39 39 47 47 34 36 37 37 35 36 37 34 32 31 29 28 27 28 29 31 31 32 30 31 32 28 30 29 28 28 27 27 30 32 29 25 20
43 43 43 44 46 48 48 37 35 41 42 42 35 37 37 36 40 37 35 34 32 30 29 31 29 30 33 32 32 38 35 31 32 24 31 29 32 31 31 33 30 26 25 24
43 43 43 45 47 48 46 40 38 39 36 36 37 36 36 36 34 36 35 33 31 29 28 29 29 31 32 33 37 34 33 33 34 30 29 32 32 31 31 33 34 30 26 23
43 43 44 46 47 47 44 38 38 40 36 34 32 34 33 33 34 33 31 31 31 31 28 30 30 31 31 31 33 33 36 33 35 31 31 31 33 32 34 36 35 35 34 32
43 43 45 45 46 47 43 44 42 42 38 33 30 32 32 33 35 37 37 34 34 33 35 36 36 36 34 34 33 33 35 35 32 28 28 29 32 35 37 37 36 35 32 33
42 42 43 44 44 46 45 44 43 41 36 32 30 32 32 32 35 36 37 37 35 40 41 41 41 39 38 37 37 36 35 34 34 31 32 29 31 35 37 36 35 34 34 35
42 42 43 43 42 44 44 45 42 40 35 33 32 32 35 34 35 37 38 39 40 43 40 36 33 36 36 35 38 38 35 34 33 31 28 27 32 32 37 37 34 33 35 35
40 40 41 41 41 42 42 45 45 41 39 34 33 32 33 34 34 36 37 43 45 43 41 37 33 31 27 29 34 38 36 36 34 31 28 25 29 33 37 38 30 33 36 38
39 39 39 39 40 41 41 44 42 42 38 39 39 34 34 35 35 39 41 41 41 44 39 34 35 33 31 27 28 31 35 35 31 30 31 29 31 33 39 30 30 34 37 38
39 39 38 38 39 39 40 40 43 40 37 38 41 39 37 41 39 37 41 40 40 40 36 36 36 36 32 31 29 31 30 30 30 31 30 27 33 34 32 35 35 35 37 41
40 39 38 38 38 39 39 36 41 43 38 38 42 43 46 44 42 39 42 41 39 40 38 38 38 36 34 31 27 32 30 30 30 30 30 34 36 35 36 36 35 35 36 43
40 40 39 39 38 38 39 38 40 41 38 40 44 41 45 47 46 47 41 43 44 42 45 42 40 37 39 35 31 32 33 34 34 34 33 35 36 36 36 35 35 35 37 38
40 40 39 38 39 38 39 38 39 40 36 35 40 45 44 47 47 46 47 45 46 46 46 42 39 36 40 35 35 35 36 37 35 35 35 36 36 35 35 34 34 37 36 35
39 40 39 40 39 39 40 38 38 40 37 36 39 43 46 47 46 46 46 45 44 45 43 41 39 40 39 37 38 35 36 35 35 31 36 36 35 35 35 34 33 34 32 32
39 39 40 40 39 38 38 35 44 43 41 37 37 44 44 45 45 45 45 45 45 46 43 42 43 42 40 38 35 34 34 34 35 34 36 35 35 35 34 33 33 32 31 30
40 39 39 39 39 40 36 33 42 43 43 37 37 40 45 46 45 46 46 46 46 45 43 42 41 41 43 39 34 35 36 38 37 38 36 36 35 34 34 33 32 32 30 29
39 39 39 40 41 40 37 39 41 43 40 39 36 38 40 45 42 41 46 44 45 45 43 43 41 42 42 38 38 38 38 38 38 38 36 36 35 34 33 32 30 29 28 27
39 38 40 42 40 35 39 41 42 45 40 35 39 36 35 45 43 44 44 45 40 45 42 41 42 40 37 38 39 39 39 39 39 37 35 35 34 33 33 32 30 28 28 27
38 38 36 35 37 41 41 40 38 38 40 39 38 38 37 41 41 41 41 43 40 37 39 40 39 38 40 38 38 39 41 39 37 36 36 37 38 36 33 32 31 29 28 26
36 34 33 37 40 41 38 34 34 36 35 40 40 36 36 42 38 38 41 38 38 35 36 35 36 35 36 37 35 36 38 40 37 37 36 35 35 33 33 32 31 29 26 25
36 36 39 38 36 34 32 33 33 35 35 39 38 38 38 41 42 40 40 37 37 33 35 34 32 36 38 34 33 34 36 38 36 35 34 35 35 33 33 31 29 27 26 24
37 34 32 32 34 30 31 28 30 33 35 35 37 38 39 40 41 39 38 34 34 34 33 31 34 39 35 30 31 35 34 35 35 33 34 35 35 34 31 29 28 26 24 22
31 29 27 31 30 29 30 31 32 35 35 35 37 37 38 37 38 37 34 34 33 31 29 31 40 37 31 30 33 34 33 33 33 33 33 34 33 32 31 30 27 24 23 23
30 30 27 28 30 32 34 34 34 35 37 36 36 36 36 36 35 35 35 32 29 29 31 37 37 33 31 31 33 34 32 31 31 32 32 32 31 29 29 29 27 24 23 22
32 29 27 28 29 31 32 33 32 36 34 36 36 34 34 34 36 32 31 30 29 35 35 36 33 31 31 31 32 32 31 29 30 30 30 29 28 28 27 25 23 22 21 20
27 28 30 30 29 29 29 26 27 30 33 33 33 32 33 33 32 31 34 32 34 33 33 33 32 31 30 30 31 31 30 29 29 28 28 28 26 25 23 22 21 20 19 18

GFSNW_sfc_dewp_012.txt.gz
Dewpoint
44 44 43 44 47 50 47 41 36 46 47 37 37 35 36 40 35 38 33 31 28 26 27 29 28 27 29 31 32 29 29 31 26 29 29 30 29 28 28 26 19 25 24 21
44 44 44 45 46 49 46 39 40 47 47 33 35 37 38 38 36 37 33 30 31 28 27 27 28 30 30 33 32 30 30 31 23 26 29 28 29 28 28 29 29 26 24 21
45 44 44 46 46 48 48 40 34 40 42 41 35 36 37 38 41 36 34 32 31 29 28 31 29 31 34 31 33 39 35 32 27 23 26 30 30 32 31 31 29 26 26 25
43 43 45 46 47 48 46 41 37 39 37 38 37 38 38 37 35 37 35 33 31 29 28 29 28 29 32 33 37 34 33 31 30 31 30 30 30 30 30 32 33 30 29 30
42 42 46 46 46 48 44 40 38 40 36 37 38 37 38 34 33 34 31 32 31 30 29 31 27 31 30 32 33 32 34 32 34 28 30 30 29 31 31 32 34 37 36 35
42 43 45 45 45 45 43 43 43 41 36 34 32 34 32 34 36 37 37 34 33 34 37 37 37 37 35 34 33 33 35 35 32 24 29 29 29 32 35 35 37 36 34 36
41 41 41 42 43 44 45 43 43 40 35 34 30 32 34 34 37 36 37 36 37 40 41 41 40 38 38 37 34 36 35 34 33 29 29 22 30 35 36 36 36 36 34 36
40 40 39 40 41 42 42 45 41 40 36 33 31 32 34 34 36 38 38 40 41 43 41 37 34 36 36 36 37 37 37 35 32 29 24 26 28 34 36 36 34 35 36 38
40 40 39 39 40 40 39 45 45 41 38 33 37 33 34 35 34 37 40 44 45 43 41 36 31 30 30 31 34 38 38 36 34 31 27 23 30 34 38 39 33 34 38 40
41 40 39 39 39 39 39 43 44 42 38 39 39 35 36 36 37 39 41 41 41 42 38 34 34 32 33 28 30 32 34 35 32 31 30 30 31 34 38 31 30 35 35 40
41 41 40 39 39 39 39 38 44 40 37 37 39 41 40 40 40 38 41 40 40 40 35 35 35 35 34 31 31 31 30 30 31 32 30 25 34 35 33 35 36 35 35 40
41 41 40 39 39 38 38 35 38 42 38 37 40 40 41 43 45 42 42 41 40 41 38 38 38 35 36 33 29 32 30 31 31 30 30 32 36 35 36 36 35 35 36 40
40 41 40 40 38 38 38 39 39 41 38 36 41 42 44 46 46 47 42 43 43 43 45 41 39 36 39 34 32 34 32 33 34 34 34 35 36 36 36 35 34 36 38 39
39 39 39 39 39 40 37 38 39 39 37 33 39 45 44 47 47 46 46 45 46 47 45 41 38 37 39 37 36 35 36 36 34 34 35 37 35 35 34 34 36 37 36 36
40 41 40 40 40 40 38 39 38 38 37 34 37 40 46 46 47 46 46 45 46 44 43 41 38 40 39 37 37 35 36 36 35 35 36 36 35 35 35 34 34 34 33 33
40 40 41 40 40 39 38 33 43 42 40 36 35 44 44 45 46 45 45 45 45 45 43 41 42 42 40 37 34 34 34 36 36 34 36 36 35 35 34 33 33 32 32 31
40 40 40 39 40 40 35 32 40 43 42 36 34 39 45 45 45 45 46 46 46 45 43 42 40 41 42 40 35 35 34 35 37 39 36 36 35 34 33 33 32 32 30 29
40 40 39 41 42 40 37 38 40 42 38 38 33 38 41 46 42 42 45 44 45 44 42 43 41 41 41 37 38 38 37 37 38 39 37 36 35 34 33 31 30 29 27 26
40 38 40 42 40 35 39 42 42 42 39 33 36 35 34 45 43 43 43 44 40 44 41 41 41 39 37 38 39 39 40 40 39 37 36 35 34 33 32 31 30 27 27 26
38 39 36 34 37 41 41 40 37 36 37 38 36 39 38 41 41 40 41 43 38 35 39 41 38 38 40 40 39 39 39 39 37 35 33 33 32 34 32 31 30 29 27 25
37 33 32 38 41 41 37 33 33 34 34 38 40 38 37 42 37 38 40 36 36 34 34 35 33 35 37 36 34 34 35 37 38 37 37 36 35 33 33 32 30 28 26 25
37 36 38 39 36 33 32 32 33 33 33 39 39 38 39 40 41 38 38 35 35 31 35 33 32 35 36 31 30 31 35 36 38 37 35 36 35 34 33 32 29 27 25 22
39 34 31 32 33 29 29 27 31 32 34 35 36 37 39 38 39 37 35 33 32 32 32 30 30 34 32 30 32 33 35 35 34 34 35 35 36 36 33 29 27 24 22 21
30 27 23 27 27 28 30 31 31 34 34 35 36 36 37 37 35 36 33 35 32 29 28 26 33 32 31 31 33 33 34 34 33 33 34 34 34 33 32 29 27 26 21 22
29 27 24 26 31 32 33 33 33 34 36 35 36 35 36 34 34 34 33 31 27 28 26 32 32 31 31 30 30 31 32 32 33 32 32 32 32 31 30 30 27 23 22 21
30 28 26 29 29 29 26 27 32 35 34 35 34 34 33 33 34 31 29 28 27 28 29 28 31 30 30 29 30 31 31 29 30 31 31 30 29 28 27 25 24 23 22 20
26 27 31 32 30 29 26 27 27 30 33 32 32 32 32 33 32 29 32 30 31 29 27 27 28 28 29 29 29 31 30 29 29 29 29 28 28 26 24 22 22 21 20 18

GFSNW_sfc_dewp_015.txt.gz
Dewpoint
44 44 45 45 48 49 46 40 35 44 47 37 37 34 36 40 37 39 37 31 28 28 33 30 28 27 29 31 31 29 30 31 26 27 30 31 30 28 28 22 17 23 20 21
45 44 45 45 48 49 43 38 39 46 46 33 34 37 38 39 39 37 34 32 31 30 28 29 29 30 31 32 31 30 29 28 21 26 29 30 29 29 29 29 28 23 22 20
44 44 45 47 46 49 42 37 30 36 40 40 37 36 37 36 40 38 36 32 29 28 29 30 29 31 33 32 34 39 34 32 23 21 23 30 27 30 30 30 28 25 25 24
41 42 43 46 47 48 43 39 35 35 29 35 35 38 38 35 35 37 34 33 31 29 28 28 29 32 32 32 38 34 35 26 28 30 31 31 29 29 30 30 30 29 27 29
41 41 41 45 46 47 42 38 38 38 36 37 36 37 36 36 36 37 32 31 33 34 31 32 28 31 32 31 34 32 33 29 33 28 31 31 29 30 30 30 30 31 31 32
41 41 40 43 45 44 42 43 43 41 35 35 35 34 36 35 37 37 38 36 37 37 38 38 38 36 35 33 33 33 35 32 26 19 29 29 27 30 30 33 36 35 34 35
41 41 40 40 41 42 43 42 41 39 33 34 32 33 34 37 37 36 38 39 39 40 41 41 39 38 38 36 34 35 34 33 28 24 27 19 30 33 36 35 36 37 36 37
41 41 40 40 40 41 39 44 40 39 35 35 31 33 34 35 38 38 39 41 42 43 41 36 34 35 33 35 36 36 37 34 31 26 23 25 28 35 35 35 33 34 37 41
41 41 41 40 39 39 37 44 44 40 37 36 39 36 34 33 33 35 41 43 44 42 40 35 27 30 30 31 35 37 37 36 33 32 25 22 29 33 38 38 32 34 36 41
41 41 40 40 40 39 37 39 43 41 37 39 37 38 36 36 37 37 40 40 40 41 36 33 31 28 33 29 29 33 34 34 31 31 29 28 31 33 38 29 27 35 34 39
42 41 41 40 39 39 36 36 41 39 36 36 36 38 41 40 39 35 38 38 39 38 34 33 33 32 33 30 32 32 31 30 32 33 29 23 32 37 34 33 36 36 35 37
42 40 39 41 41 38 38 33 36 39 37 36 38 37 38 39 41 44 40 40 39 40 37 36 37 34 34 32 29 32 32 31 30 30 29 30 34 35 36 36 35 35 37 36
42 40 39 40 38 39 38 36 37 36 34 34 36 38 41 42 42 47 40 41 42 41 43 39 39 35 37 31 32 34 34 33 33 33 34 33 36 36 35 34 34 35 39 35
39 40 40 40 39 40 40 35 37 36 34 31 33 42 43 47 47 47 46 45 46 45 43 40 38 36 38 35 37 36 36 37 34 34 36 36 35 36 35 34 38 36 38 38
40 40 39 40 40 40 39 37 37 37 33 32 34 38 41 46 46 46 46 45 45 44 42 40 38 40 39 37 37 35 36 35 35 34 36 35 35 36 35 34 35 33 33 32
39 40 41 40 40 40 40 31 41 39 39 34 31 43 44 45 45 45 45 45 45 45 42 41 42 41 39 37 34 34 35 36 36 36 36 36 35 34 34 33 33 32 31 31
41 40 40 40 40 42 36 31 39 42 40 33 32 37 45 45 44 45 45 46 45 44 43 42 41 41 41 39 33 35 37 38 38 38 36 35 35 34 33 32 32 32 30 29
40 40 39 39 41 39 36 37 41 41 36 35 31 36 41 46 43 42 45 44 45 44 42 43 40 41 40 36 38 38 39 39 38 38 37 37 35 33 32 31 29 28 26 26
40 40 40 42 39 35 38 42 41 41 37 32 34 34 34 45 43 43 42 43 40 43 41 40 41 38 36 38 40 39 38 39 39 36 35 34 33 32 31 30 28 27 26 25
39 38 34 34 37 40 40 39 37 35 36 36 34 40 38 42 41 40 41 42 38 34 39 41 38 37 39 35 33 33 33 35 37 35 32 30 29 32 31 30 28 27 26 24
36 33 31 37 40 39 37 33 32 34 33 37 38 40 37 42 37 38 40 35 35 33 34 34 32 35 32 32 30 31 33 35 35 37 38 36 35 34 32 31 30 29 26 24
34 36 39 39 36 33 31 30 33 33 33 38 38 38 40 40 41 38 38 34 34 30 34 32 29 34 32 31 31 33 34 35 34 36 38 36 36 34 33 32 31 29 26 22
39 34 30 31 32 26 28 27 31 32 33 34 35 35 38 38 39 36 35 32 31 31 32 29 29 32 31 30 31 31 33 34 34 34 35 35 36 35 34 30 27 23 22 23
30 27 23 26 27 28 29 30 31 34 33 34 36 35 34 35 35 36 32 33 32 28 27 25 31 29 31 30 30 30 31 31 34 33 33 35 36 35 34 30 26 25 25 26
28 27 21 26 30 31 32 32 33 34 36 35 35 35 36 32 33 33 32 30 27 27 24 29 25 28 29 29 29 29 30 30 30 33 33 32 34 33 32 31 30 28 28 22
28 27 25 29 28 28 23 28 31 34 34 34 34 33 33 33 32 31 29 27 25 24 27 24 27 28 29 29 28 29 30 29 29 30 31 30 30 30 29 28 27 24 21 20
26 26 30 30 29 29 20 26 28 31 33 32 32 31 31 32 31 28 31 29 29 30 29 24 26 27 28 28 28 29 29 28 29 29 29 29 28 25 24 23 23 22 21 20

GFSNW_sfc_dewp_018.txt.gz
Dewpoint
43 43 44 45 48 50 45 38 29 43 47 37 37 33 35 39 38 39 39 31 30 31 31 30 29 30 29 31 32 30 30 29 20 27 29 30 29 28 27 18 15 21 20 21
42 42 43 45 47 49 41 35 35 43 44 33 35 37 38 40 39 39 34 31 31 32 30 28 28 29 31 32 31 30 29 27 19 24 29 31 29 29 29 27 26 17 21 20
42 42 42 44 45 48 41 35 27 34 40 38 36 36 35 35 39 36 35 31 31 29 28 29 30 30 32 33 33 38 35 30 21 20 20 28 25 29 29 28 26 23 24 23
42 42 42 43 46 47 41 37 36 38 31 34 36 37 36 35 35 38 34 31 29 30 29 29 31 32 31 34 39 36 33 25 26 29 30 30 29 29 29 28 28 27 25 27
42 42 41 42 44 45 41 38 38 37 35 36 35 35 34 36 36 36 34 35 35 32 32 31 30 31 31 29 33 32 34 30 31 29 30 31 28 29 29 29 29 29 28 29
42 42 41 41 42 42 39 39 42 40 34 34 33 32 34 36 36 36 38 36 37 37 37 38 36 33 33 32 31 32 32 31 27 18 26 28 26 29 29 30 31 31 32 33
42 42 42 40 40 41 41 41 41 38 32 34 33 33 36 36 36 35 38 39 38 40 41 40 37 38 37 34 33 36 34 31 27 20 26 17 27 30 32 30 33 36 36 37
42 42 41 41 40 40 37 44 38 37 32 36 35 37 35 36 37 37 38 41 42 43 40 36 35 35 33 35 35 36 35 34 24 23 22 25 28 34 34 33 32 36 36 35
43 42 41 41 40 40 36 42 44 40 35 34 38 37 35 33 32 34 39 42 43 41 39 34 28 29 30 33 36 37 35 35 33 30 25 22 26 34 38 37 31 36 35 36
42 41 40 41 39 39 36 36 40 40 36 36 35 37 38 38 35 33 37 38 38 39 35 32 29 27 33 31 30 33 34 34 32 31 29 28 30 32 38 27 26 35 35 35
39 41 39 39 40 39 36 34 38 35 35 34 36 36 38 40 38 33 35 36 37 36 34 32 33 32 33 32 32 33 31 31 32 32 29 24 32 37 33 33 36 36 36 36
40 41 40 39 41 38 38 33 36 38 34 32 38 37 37 37 39 41 40 37 37 38 34 33 36 34 34 31 27 33 32 30 30 31 29 31 32 34 36 36 35 36 35 37
41 38 37 39 40 40 37 37 36 35 32 31 32 29 28 35 37 39 42 40 41 40 40 38 38 34 36 31 31 31 35 34 33 32 33 33 33 34 36 36 34 34 37 36
43 40 40 39 39 40 40 37 38 36 32 26 27 38 37 41 42 41 45 45 45 43 41 39 37 35 38 33 34 35 36 36 35 34 36 36 36 35 35 34 37 37 38 36
41 39 40 40 41 40 41 39 37 38 30 26 28 30 34 37 46 46 47 45 44 42 39 39 37 38 38 38 37 35 35 35 34 32 36 36 36 36 35 34 35 34 35 34
41 41 41 40 40 40 40 31 41 40 37 28 25 37 40 46 46 45 45 45 45 44 42 40 41 41 39 36 35 36 36 36 36 35 36 36 36 35 34 33 33 33 33 32
41 41 40 40 39 41 36 29 38 41 38 32 29 32 42 45 45 45 45 45 44 43 42 41 41 41 41 38 34 34 37 41 40 39 38 36 35 35 33 33 33 33 30 29
41 40 40 39 41 40 35 37 41 41 37 35 28 31 41 45 42 41 45 43 44 43 42 42 40 40 40 36 36 38 39 34 39 37 38 37 35 33 32 32 29 28 27 25
39 40 40 41 40 34 35 42 42 41 37 31 32 31 34 45 43 43 43 44 39 42 40 40 40 38 36 35 31 31 31 31 33 36 35 34 33 32 31 29 28 27 26 25
39 36 35 32 34 41 40 39 36 34 34 34 31 36 36 42 40 40 40 41 38 35 40 41 38 36 38 32 31 31 32 33 34 33 32 34 29 31 31 29 28 27 26 24
35 33 31 34 39 38 36 32 31 34 32 35 35 39 39 42 36 39 40 35 35 32 33 35 33 35 30 31 31 31 32 33 35 35 35 36 36 34 32 30 29 28 26 26
33 34 38 38 35 33 30 29 32 32 32 37 37 38 40 40 41 37 37 32 34 30 35 33 29 33 31 31 30 30 30 31 33 34 34 37 37 35 33 31 29 28 29 27
38 35 31 31 32 26 26 25 29 32 33 34 35 35 38 38 39 36 35 32 31 31 32 29 31 31 30 30 30 30 30 31 31 34 34 35 36 35 33 33 33 31 28 27
30 27 23 26 26 28 29 29 30 34 33 34 36 35 35 35 35 35 31 33 31 28 26 27 30 28 29 29 29 29 29 30 30 33 35 35 36 35 34 32 28 25 24 22
25 27 21 25 28 30 31 32 32 34 36 35 35 35 36 33 33 34 32 30 27 27 24 29 24 26 28 29 28 28 29 29 29 30 33 34 34 33 32 32 30 27 27 27
26 27 24 28 27 28 29 29 29 35 34 34 34 33 33 33 32 31 29 27 25 24 29 25 25 27 27 28 28 29 29 29 28 29 29 30 30 32 32 33 33 32 31 29
23 25 29 27 29 29 26 26 28 31 33 32 32 31 30 32 31 29 31 29 30 30 30 23 24 25 26 27 28 29 29 28 28 28 28 27 28 27 27 28 28 28 26 24

GFSNW_sfc_dewp_021.txt.gz
Dewpoint
43 43 44 45 47 50 43 37 29 41 46 34 36 34 35 39 39 39 38 31 32 31 31 30 29 28 29 31 31 29 30 28 22 27 30 30 29 27 26 17 13 19 18 20
43 43 43 44 45 48 40 34 34 41 41 33 35 36 38 39 38 38 36 30 32 33 29 28 28 30 31 33 31 29 30 25 17 24 28 30 28 28 27 25 23 16 19 20
43 43 43 43 44 47 40 34 28 35 37 39 36 34 34 34 38 37 32 31 32 29 29 29 29 29 33 32 32 38 34 28 21 19 20 27 25 28 28 26 22 23 23 23
43 43 42 42 43 45 40 35 35 38 34 36 37 36 36 34 35 36 34 30 30 29 28 30 30 31 31 35 39 35 31 25 26 29 29 28 28 28 28 25 27 24 24 25
43 43 42 42 43 44 38 35 37 38 35 34 34 34 33 34 35 36 34 32 33 31 31 30 30 31 30 30 33 33 33 30 30 27 29 30 28 30 30 29 29 28 28 28
43 43 42 41 41 41 37 37 39 37 33 32 31 31 34 35 35 36 38 37 36 36 37 37 33 32 31 31 31 31 30 30 28 21 25 27 25 28 29 29 30 29 27 29
43 43 42 41 41 40 40 41 41 36 31 32 33 34 36 35 36 34 38 39 36 40 41 39 37 37 34 32 32 34 33 32 30 19 24 16 25 30 31 29 30 31 32 33
42 43 42 41 41 41 37 43 36 37 31 33 34 36 35 35 36 36 38 40 41 42 39 34 32 33 32 34 34 35 34 33 24 22 23 24 27 34 33 32 31 34 35 36
41 42 40 41 39 40 35 40 40 37 35 32 36 36 36 32 31 33 38 41 42 41 38 33 27 28 29 32 35 37 35 34 32 29 24 20 24 34 37 36 28 34 36 35
40 40 41 39 40 40 35 34 36 36 34 34 35 34 36 37 34 32 35 36 37 38 34 31 29 27 33 30 31 33 34 35 30 29 29 27 29 30 38 26 27 35 35 35
43 40 42 40 39 40 36 34 37 33 31 31 35 36 35 38 37 34 35 35 36 36 31 31 31 30 34 33 32 34 32 31 32 32 29 23 34 36 32 33 35 36 36 36
45 41 38 39 41 41 39 32 35 38 32 29 36 35 34 37 38 37 41 35 35 37 33 32 33 32 34 32 30 32 32 31 30 30 28 30 34 35 36 36 36 35 35 37
44 45 41 39 40 40 39 36 37 35 34 30 30 28 29 31 30 32 36 41 41 38 38 36 36 32 36 32 30 30 34 34 33 32 33 33 33 34 34 36 35 34 35 37
43 45 40 39 39 39 40 37 39 38 32 26 24 31 30 35 33 34 36 40 45 42 40 37 35 33 35 32 32 34 35 36 34 34 35 37 36 36 35 36 35 36 37 36
43 44 42 41 41 41 40 41 39 39 34 24 25 27 24 23 24 40 38 39 44 42 38 37 35 36 36 35 36 33 34 33 33 31 35 36 36 37 36 34 34 36 37 35
43 44 41 41 40 40 40 34 40 40 39 32 21 31 33 38 39 43 42 43 45 44 39 38 39 41 37 34 34 34 36 36 38 36 37 36 37 37 35 34 34 33 35 35
43 43 41 40 40 40 36 29 34 40 40 29 24 26 35 35 45 46 45 46 45 44 42 39 40 40 40 38 33 35 39 38 36 39 37 37 36 36 35 33 33 33 31 31
43 41 41 41 42 39 35 36 39 40 35 35 27 28 35 43 42 41 45 43 43 43 40 41 40 40 41 34 34 31 31 31 31 33 34 36 37 34 33 32 30 29 28 27
40 40 41 40 37 33 33 42 42 40 36 30 31 28 32 45 42 43 43 43 38 42 38 39 40 37 36 33 30 30 30 31 31 33 34 35 34 34 32 31 29 28 27 25
38 37 36 30 35 39 41 39 36 34 35 33 29 34 32 42 40 40 40 41 37 33 38 41 38 36 33 31 31 31 31 32 33 32 32 30 28 30 32 31 29 28 27 25
34 32 31 33 38 36 36 32 31 33 28 34 34 35 39 42 37 38 40 35 35 32 34 36 33 32 30 31 30 30 30 31 31 32 34 34 35 35 35 32 30 28 26 25
32 33 37 38 35 33 30 28 31 31 31 36 35 38 40 41 42 38 38 32 34 30 35 33 28 31 31 29 29 30 30 30 31 31 34 34 35 36 36 33 30 28 27 26
37 36 31 31 32 26 24 22 27 31 33 34 34 35 38 39 40 35 34 31 28 30 31 29 31 29 29 29 29 29 29 30 30 31 35 35 36 35 34 32 30 29 27 26
27 26 22 25 22 25 27 29 25 33 34 34 34 35 35 36 35 35 31 33 31 29 26 26 29 29 28 29 29 29 29 29 29 30 33 35 35 35 33 33 32 30 29 29
23 27 19 20 26 23 30 31 31 34 36 34 34 35 36 33 33 34 32 31 27 27 25 26 29 24 27 28 28 29 29 29 28 29 29 30 33 33 33 32 31 30 29 28
23 23 21 24 22 21 25 24 30 33 34 34 33 33 33 33 31 31 29 27 26 24 28 29 26 26 26 27 27 28 29 29 28 28 28 27 28 29 32 33 33 31 30 29
19 21 28 26 25 25 28 27 29 32 33 31 32 31 30 32 30 28 29 28 29 29 29 22 24 25 25 26 26 27 29 28 28 27 28 27 27 27 29 31 31 32 32 30

GFSNW_sfc_dewp_024.txt.gz
Dewpoint
44 44 44 44 46 49 42 35 29 40 44 35 37 35 37 39 38 38 36 32 31 30 31 28 28 29 28 31 31 28 30 28 21 27 29 30 29 27 25 16 13 20 18 19
44 44 44 44 45 47 39 33 33 40 40 34 35 35 37 38 37 37 36 30 32 31 29 27 28 29 31 32 30 28 30 25 18 24 27 30 28 28 26 24 21 16 15 18
44 44 43 43 44 46 39 34 29 36 40 40 37 34 34 34 37 36 32 31 31 29 28 30 28 29 33 32 31 36 33 27 22 18 19 27 26 28 27 25 18 21 21 22
44 43 43 43 43 45 39 35 35 38 32 33 36 35 35 33 34 36 34 30 30 29 28 30 29 31 32 34 38 34 30 24 25 28 28 28 28 28 28 25 25 20 23 24
44 43 43 42 43 44 38 35 35 36 33 33 32 32 32 34 34 35 32 31 35 31 29 29 30 30 30 31 33 32 32 28 27 23 28 29 28 29 28 28 27 27 27 27
44 44 42 42 42 41 36 36 40 39 32 31 29 30 33 35 35 36 38 36 35 35 36 37 33 32 32 32 31 31 31 30 24 21 25 26 23 27 28 29 30 28 26 27
43 44 42 42 42 40 41 41 40 36 29 30 32 34 35 35 36 33 37 38 36 39 40 38 36 34 32 32 32 33 31 31 30 20 23 15 23 30 30 29 29 30 30 30
43 42 42 41 41 42 35 38 37 37 31 32 33 34 35 35 34 35 37 39 40 41 37 33 30 32 32 33 34 34 32 32 26 22 23 23 26 33 30 30 30 31 30 31
41 41 41 40 40 41 34 35 36 36 32 29 35 33 35 32 30 32 37 40 41 39 36 32 27 25 26 29 34 36 34 33 31 27 22 19 22 34 37 34 28 34 35 35
45 42 41 42 40 40 35 34 35 32 31 31 34 32 35 37 33 31 34 35 36 37 34 30 28 26 31 28 29 33 34 34 30 29 26 26 28 30 36 26 26 33 35 36
44 45 42 39 40 41 36 33 36 31 27 28 31 35 34 35 39 32 34 35 35 34 31 31 30 28 32 29 30 32 31 29 31 29 26 22 34 36 32 32 34 35 35 35
43 44 44 44 39 39 40 34 36 38 34 28 32 30 31 33 32 34 39 36 34 36 32 31 31 30 31 31 29 31 30 30 29 30 27 29 34 35 36 36 35 35 34 35
42 43 45 42 40 40 39 37 38 36 35 32 31 30 30 31 31 29 35 41 41 37 37 35 34 31 33 29 29 29 33 34 32 32 33 34 34 35 34 35 35 35 34 35
43 42 44 45 42 40 40 39 38 38 35 28 25 28 29 33 32 31 29 34 36 42 41 37 34 31 34 30 30 32 33 36 34 34 34 35 36 37 36 36 35 35 36 36
44 43 42 44 42 41 40 39 39 38 35 27 27 29 29 28 27 26 27 31 32 37 40 36 34 34 34 33 33 31 34 32 32 31 34 35 36 37 37 36 35 35 35 34
42 42 45 43 41 40 39 35 38 38 39 32 23 28 28 31 33 26 25 36 36 40 41 38 37 38 35 33 34 33 34 36 37 37 37 37 37 39 37 35 35 34 35 36
42 44 42 41 41 39 36 31 32 40 40 32 23 23 32 35 36 36 39 41 42 42 42 37 37 39 40 36 32 36 36 31 31 34 35 35 36 36 36 34 33 34 32 33
43 42 40 41 42 39 36 35 40 40 34 34 25 26 33 39 36 36 42 41 42 43 41 40 36 38 38 35 34 31 30 31 32 32 33 33 34 35 35 32 31 30 30 29
43 38 41 40 37 33 33 41 42 41 36 29 29 27 27 40 38 42 41 43 36 43 39 39 36 34 33 35 32 29 30 30 31 32 32 33 33 34 34 32 30 30 29 27
38 36 36 31 35 38 41 39 35 34 35 33 28 34 30 37 40 39 40 41 36 33 37 40 37 31 32 30 30 30 30 31 31 30 30 30 32 33 33 32 32 30 29 27
34 31 30 33 38 36 36 32 31 32 29 33 33 34 33 42 37 38 39 35 34 31 35 36 34 31 31 29 29 30 30 30 30 31 31 32 34 33 33 34 34 31 28 26
34 33 36 37 34 32 30 28 31 30 28 36 35 36 38 40 41 37 37 33 34 28 35 34 28 30 28 28 29 29 29 29 30 31 32 35 35 35 35 35 35 31 28 26
37 35 31 30 30 26 24 20 24 28 34 34 33 33 38 39 40 36 35 31 27 30 32 30 30 27 28 28 28 29 29 29 29 30 31 35 35 36 34 33 31 28 27 26
27 25 21 24 23 26 21 22 24 32 32 34 34 34 35 37 35 35 31 32 31 29 27 24 28 27 28 28 28 29 29 29 28 29 30 32 34 35 35 33 31 29 27 27
22 24 18 21 25 24 23 25 29 29 34 32 33 34 36 34 32 34 32 31 28 28 24 23 27 28 27 27 27 28 29 29 28 28 28 28 29 32 34 33 32 30 29 29
20 23 21 24 22 20 21 21 26 33 32 33 33 32 32 32 32 31 29 27 24 26 28 26 28 27 26 26 26 27 29 28 28 28 28 28 27 27 29 32 32 31 30 30
20 18 25 24 23 24 24 27 28 33 32 29 32 30 30 32 30 27 27 26 29 24 23 28 24 25 26 25 25 27 27 27 26 27 27 27 27 27 26 26 29 31 31 31

GFSNW_sfc_dewp_027.txt.gz
Dewpoint
45 45 44 45 45 47 41 35 30 40 43 35 38 35 37 39 38 38 33 32 31 30 30 28 28 29 29 31 31 29 30 28 26 28 30 30 29 27 23 20 17 21 20 16
45 44 44 44 44 46 39 32 32 39 40 34 35 35 35 38 36 36 34 30 32 31 29 27 28 29 31 32 30 29 29 25 21 26 28 30 29 28 25 23 23 22 19 16
45 44 44 44 44 46 38 33 29 35 37 38 34 33 33 33 37 35 32 31 31 29 28 30 28 29 34 32 31 37 32 26 23 18 21 28 28 28 26 26 22 21 21 20
45 45 44 43 42 45 39 35 35 38 31 32 33 33 34 32 33 36 33 30 29 28 28 29 29 31 32 33 38 33 30 25 25 27 26 29 28 28 28 25 25 22 21 23
45 44 43 43 42 43 38 34 36 37 33 32 30 30 30 33 34 35 31 31 34 30 28 27 29 30 30 30 33 31 32 28 28 23 28 29 29 29 28 28 27 26 26 26
44 44 43 42 42 41 39 39 40 39 32 30 28 30 31 34 34 36 37 36 35 34 35 36 34 31 31 32 31 31 31 30 23 20 25 26 24 27 29 29 29 28 26 27
44 42 43 41 42 39 37 39 40 36 29 30 31 33 34 35 35 33 36 37 35 38 38 37 34 33 32 32 32 32 30 30 27 19 23 16 22 29 30 29 29 30 29 29
44 43 42 42 41 40 37 35 36 36 29 30 30 33 33 34 33 34 36 38 39 40 36 32 30 32 31 33 34 33 32 31 27 22 22 21 26 31 29 29 30 30 30 30
44 46 44 43 41 40 35 35 35 33 30 26 32 31 33 32 29 31 35 39 40 38 35 31 26 23 26 28 34 35 34 32 28 26 20 18 22 34 35 35 30 34 32 32
43 43 45 43 40 40 35 35 35 32 27 29 31 31 32 38 34 30 31 34 35 36 33 30 27 25 29 27 27 32 34 34 30 28 26 25 27 32 37 28 28 32 35 36
43 42 43 45 43 40 37 35 36 32 27 27 28 34 32 32 37 34 33 34 34 34 32 32 31 27 30 28 29 29 29 30 27 27 25 22 33 35 30 32 34 35 35 35
44 43 43 45 42 40 40 36 36 38 32 30 29 29 30 31 30 30 35 36 33 35 31 30 30 30 30 30 28 31 29 29 29 28 26 29 34 35 37 36 34 34 35 35
45 43 41 44 45 43 38 37 38 37 35 31 32 31 31 32 31 30 31 38 42 37 36 34 33 30 32 30 29 28 32 33 31 31 32 33 33 35 36 35 35 35 35 35
45 44 44 43 44 43 41 39 39 38 35 29 26 28 27 28 32 31 31 31 34 34 39 38 35 31 33 29 30 30 32 34 32 32 34 34 35 37 36 36 36 35 35 37
45 43 42 44 45 42 41 40 38 39 35 27 28 29 29 29 32 31 30 28 27 30 35 39 35 34 33 32 32 30 34 33 34 33 34 35 35 37 37 36 37 37 35 35
45 44 43 45 41 41 39 34 38 39 38 30 25 29 26 28 30 29 28 28 32 34 36 39 37 36 34 29 31 33 33 35 37 37 37 38 39 38 37 35 35 35 34 35
45 44 45 40 42 40 34 31 32 40 38 32 21 21 28 36 32 30 29 28 33 36 35 39 37 37 36 33 30 34 35 34 32 33 35 35 36 35 34 35 35 34 32 33
44 44 41 42 42 39 36 35 40 39 36 33 24 20 29 37 34 28 36 33 34 39 38 40 36 38 36 33 33 32 30 30 31 32 33 33 33 34 35 35 33 31 31 30
44 40 39 41 38 33 33 40 41 41 35 27 28 24 23 37 36 38 38 39 33 39 38 39 36 37 33 33 34 30 30 30 30 31 31 32 32 33 33 34 32 31 31 29
37 36 36 33 35 38 40 39 34 34 35 33 27 33 28 35 35 36 36 37 35 32 37 40 37 33 31 30 30 30 30 30 29 28 28 26 26 30 33 33 34 33 31 30
33 31 31 34 38 35 35 32 31 30 28 32 31 33 31 38 34 37 39 35 34 31 35 35 34 33 31 28 29 29 28 28 29 30 31 31 31 33 33 33 33 34 33 29
37 35 36 37 34 31 29 27 30 30 26 35 34 35 36 38 41 37 36 33 33 28 37 34 30 30 27 28 27 27 28 28 29 30 31 34 35 35 35 34 35 36 33 29
36 35 31 30 29 25 23 21 23 27 33 33 33 31 37 39 39 35 34 31 29 32 32 28 26 27 27 27 28 27 28 29 29 29 30 31 34 36 35 33 31 30 28 26
24 20 17 22 20 25 26 24 28 29 32 31 32 33 35 36 35 35 29 31 30 28 26 22 28 25 27 27 28 29 28 29 28 28 29 30 30 33 36 35 35 32 27 26
18 21 13 19 26 26 26 26 30 27 32 30 30 33 35 34 32 34 31 30 27 27 23 22 22 29 27 26 26 27 28 28 28 28 28 28 28 28 29 33 33 31 30 28
19 23 20 22 21 22 22 21 25 32 32 32 32 31 31 31 32 30 28 26 22 25 22 25 28 27 26 25 24 27 28 27 26 27 28 27 27 26 27 31 31 32 31 31
23 18 22 20 18 22 24 27 27 30 31 28 31 29 30 32 30 27 27 26 27 23 27 26 27 26 26 25 25 26 25 22 25 26 27 27 27 26 25 24 25 27 31 31

GFSNW_sfc_dewp_030.txt.gz
Dewpoint
46 45 45 45 44 47 44 40 41 43 45 42 41 38 37 39 38 38 32 32 32 30 30 30 30 26 30 31 30 28 29 30 29 28 30 30 29 27 23 23 24 23 22 14
46 46 45 45 44 46 45 39 39 44 45 37 37 36 35 37 35 35 32 30 32 31 29 28 28 30 31 32 30 29 29 29 27 28 29 30 29 28 26 24 27 26 20 16
46 45 45 44 44 45 44 40 38 41 42 40 36 35 35 34 37 34 32 31 30 28 28 29 28 28 33 32 30 37 33 27 28 21 29 29 30 28 27 27 27 22 20 19
46 45 44 43 43 44 42 41 36 37 38 37 36 36 36 33 33 36 33 30 29 27 27 28 28 31 31 32 36 32 30 33 31 26 27 30 29 28 28 29 26 26 20 21
46 44 44 43 43 43 40 36 36 36 35 34 34 34 34 34 35 36 30 30 30 30 27 26 27 30 30 29 33 30 31 32 31 29 28 29 29 29 28 28 27 26 25 25
46 44 43 43 43 41 39 40 39 39 33 33 33 34 34 35 36 37 38 35 34 33 34 36 34 32 31 31 30 30 31 33 31 26 25 26 25 26 28 29 29 27 25 26
45 46 45 44 43 40 40 39 40 34 31 32 33 33 35 35 36 36 38 38 35 36 36 34 33 33 33 32 32 31 30 32 32 29 26 22 25 29 28 28 28 29 28 29
44 45 45 44 43 40 36 38 37 35 27 30 30 33 34 35 35 36 38 40 41 41 37 32 29 30 30 32 34 31 31 31 30 27 24 23 24 29 29 29 30 29 29 29
44 43 44 45 43 40 36 38 38 35 30 24 30 30 32 33 35 34 38 42 43 40 38 33 28 24 25 28 32 34 32 31 28 26 23 17 24 35 35 33 30 33 31 31
44 43 44 45 46 42 37 38 37 35 28 24 31 28 30 35 37 35 34 39 40 39 36 32 29 27 27 27 27 31 31 32 28 27 24 23 25 34 36 28 30 34 35 36
45 45 44 44 46 42 40 38 38 34 30 27 26 31 29 26 31 34 36 38 38 38 35 33 31 29 30 29 28 27 27 28 29 29 25 23 31 33 28 32 34 34 36 37
45 45 43 43 44 44 41 37 37 37 34 30 29 27 26 27 28 30 31 36 37 38 37 36 35 31 32 31 27 32 28 29 26 26 25 28 33 34 37 37 36 36 36 36
45 45 44 44 44 44 44 38 39 38 36 33 30 29 31 32 29 29 25 32 38 39 38 37 36 33 35 31 30 32 33 33 31 31 31 32 32 35 36 36 36 36 36 36
44 45 44 43 44 45 43 40 40 39 36 28 27 31 28 29 32 31 30 29 32 32 35 39 38 34 36 33 31 31 33 34 32 32 34 35 36 36 37 37 38 38 38 37
45 44 44 44 45 42 42 42 40 40 35 27 27 31 30 30 30 30 31 30 29 30 30 34 37 37 35 34 34 32 34 34 32 30 34 33 34 37 38 38 37 37 37 37
44 44 44 45 41 42 40 34 40 40 40 32 25 31 27 27 29 30 31 31 30 32 30 32 38 38 36 35 32 33 34 35 36 34 36 38 39 38 38 35 35 35 36 35
44 44 45 43 42 42 36 31 35 40 39 32 26 25 25 31 33 31 30 31 30 30 30 33 37 39 38 36 31 32 34 35 36 34 34 34 36 36 35 34 35 36 35 34
44 44 42 39 42 40 37 37 40 41 36 32 24 25 27 34 33 28 31 29 29 32 32 36 36 40 38 35 35 35 34 33 32 33 32 32 32 33 34 35 35 34 34 33
44 39 39 42 39 35 36 39 42 42 36 28 27 25 26 37 36 36 32 32 26 32 35 36 38 36 36 35 35 34 32 32 32 32 31 31 33 33 33 34 34 33 32 32
37 36 35 34 35 37 40 39 35 35 35 34 28 32 28 35 36 35 35 35 34 31 35 40 36 36 34 31 31 32 31 30 31 30 32 33 34 33 34 34 34 34 34 33
36 33 31 35 37 36 34 31 31 31 28 31 30 31 30 37 32 34 36 32 34 33 35 35 34 33 32 30 29 29 29 29 30 31 31 31 32 33 34 35 35 35 35 35
38 37 37 37 34 32 29 28 31 30 28 35 34 35 35 36 40 38 37 34 35 30 37 35 32 32 29 29 29 29 29 29 30 30 30 32 34 35 36 35 33 34 36 35
38 34 32 30 30 25 25 22 27 29 32 33 33 31 36 38 39 36 35 33 31 34 33 29 31 30 28 29 29 29 29 29 29 29 30 30 32 34 36 35 35 29 28 28
29 24 15 24 24 26 27 27 29 32 31 31 30 31 34 36 34 35 32 34 33 30 27 27 31 30 29 28 29 29 28 28 28 29 29 29 30 31 34 35 35 34 32 28
25 23 16 21 27 28 29 29 31 32 32 32 30 30 34 34 32 35 33 30 28 27 26 31 32 30 28 26 27 28 27 26 27 28 28 28 28 27 28 32 33 33 31 29
26 24 22 23 24 25 26 28 28 32 32 32 32 30 30 32 33 32 31 28 26 30 33 32 30 28 26 24 25 27 26 23 24 27 28 28 26 26 26 26 25 28 32 32
22 23 24 25 24 24 25 25 28 29 30 28 29 28 30 32 32 29 31 30 33 33 32 31 31 29 27 23 24 24 21 21 23 25 27 27 26 26 26 25 25 25 28 32

GFSNW_sfc_dewp_033.txt.gz
Dewpoint
47 46 46 45 45 46 47 43 42 45 46 41 40 38 37 38 36 36 32 31 30 28 29 28 27 26 30 31 30 27 30 31 30 29 30 30 29 27 26 24 25 22 22 16
47 46 45 45 44 44 44 39 38 45 46 38 33 35 34 36 33 33 30 30 31 31 28 27 29 29 31 32 30 28 29 30 28 27 29 30 29 28 27 24 27 28 21 17
46 45 45 44 44 44 44 40 39 40 40 40 34 32 32 32 37 32 31 30 30 29 27 27 28 29 32 31 31 36 34 27 29 24 30 29 29 28 28 28 28 22 18 19
46 45 45 44 43 43 43 39 37 37 39 36 36 37 35 32 32 35 32 30 29 26 25 25 26 30 30 31 35 31 30 34 31 25 27 30 29 27 28 29 27 25 18 17
46 46 45 45 43 43 39 36 37 36 35 35 34 34 34 33 33 34 29 30 29 27 25 25 25 28 28 28 32 30 31 32 32 31 28 28 29 28 27 27 26 24 23 22
46 45 45 44 43 40 33 36 38 37 34 34 32 33 34 35 36 36 36 34 30 29 31 33 32 30 29 30 30 30 30 34 32 27 26 26 25 26 27 28 28 26 24 25
45 45 45 45 44 40 33 34 38 33 31 30 32 33 35 35 36 36 36 37 34 35 35 34 32 31 31 31 30 30 29 32 33 30 27 23 27 28 27 27 28 28 27 26
45 44 44 45 44 42 36 36 33 30 23 22 27 32 33 34 35 35 37 39 40 37 37 32 30 29 29 30 31 30 29 29 30 27 24 22 21 25 27 27 28 28 29 28
45 44 44 45 45 44 38 38 38 31 25 24 28 27 29 33 33 34 37 41 43 41 37 32 26 24 24 26 30 33 30 29 28 25 22 18 25 31 31 31 30 31 29 30
45 45 44 45 44 42 39 39 38 33 27 20 27 24 29 32 35 34 35 38 40 41 35 31 27 25 25 24 25 28 30 29 28 25 23 22 25 35 35 29 31 35 33 34
45 45 43 43 43 44 42 39 39 33 30 28 27 25 24 21 25 30 36 37 39 39 34 32 30 26 27 24 26 26 26 26 25 25 24 22 29 35 30 33 35 35 36 37
44 45 45 44 44 44 43 38 37 37 35 30 32 30 28 27 26 27 31 35 36 39 37 34 32 27 28 27 24 28 26 26 25 25 25 28 30 31 35 36 36 36 37 37
45 45 45 44 43 44 45 41 40 39 36 31 29 28 30 31 32 30 22 27 36 36 35 39 37 32 31 27 27 29 29 30 29 28 28 30 30 35 35 36 37 37 37 37
44 44 44 44 44 44 43 40 40 39 35 29 25 31 29 29 31 31 28 26 30 30 34 35 38 34 32 29 29 29 31 33 31 29 30 34 33 33 34 37 38 38 38 38
44 44 44 44 45 41 42 41 40 41 35 29 28 31 29 29 29 29 29 29 29 29 29 32 35 37 35 34 33 30 33 32 31 29 30 30 32 35 37 38 38 36 36 37
44 44 44 44 43 42 40 33 40 40 40 33 25 31 28 26 27 29 29 30 30 29 29 28 32 37 39 33 29 29 31 33 33 31 35 35 37 39 38 38 36 36 35 36
44 44 44 42 40 43 36 32 37 41 40 32 27 28 26 27 32 32 31 30 31 30 30 27 28 33 35 37 29 30 32 33 35 37 37 36 36 36 37 35 34 36 35 35
44 44 42 38 42 40 37 38 40 40 37 35 26 26 28 33 32 29 31 28 30 29 26 27 27 29 33 34 35 33 34 34 35 35 34 33 33 32 33 34 34 34 34 34
43 40 39 42 40 35 37 39 41 42 37 30 29 27 29 37 36 35 30 30 24 27 26 25 27 30 32 37 35 35 34 34 34 34 32 32 32 33 34 35 35 34 34 34
38 34 33 34 34 38 39 39 36 35 35 34 28 34 30 35 36 35 34 32 32 26 27 32 32 33 37 35 32 35 33 32 32 32 33 36 38 35 35 35 35 35 35 35
37 35 32 34 38 36 34 31 32 33 30 32 31 33 30 36 32 34 36 33 35 31 34 33 34 34 35 33 31 30 30 30 30 31 31 32 32 33 35 35 36 35 35 36
38 37 37 37 34 33 30 30 32 31 30 35 33 32 33 36 37 34 35 33 33 31 35 33 32 32 31 30 29 29 29 30 30 31 31 32 33 34 35 36 35 32 30 34
38 34 32 31 32 27 26 23 28 28 33 33 31 29 31 36 38 36 35 33 32 35 34 29 32 31 30 29 29 29 29 30 30 30 30 31 31 34 35 35 35 35 32 27
31 27 19 27 27 28 29 29 31 33 33 32 30 29 30 35 34 35 32 33 34 30 28 29 34 31 29 29 30 29 29 29 29 29 30 30 30 31 33 34 35 35 34 33
31 28 22 24 28 31 32 33 31 32 33 32 30 31 31 32 32 35 33 31 28 26 27 34 35 31 29 28 29 28 27 27 28 29 28 28 28 28 27 28 28 32 33 32
31 28 27 26 27 31 30 31 30 33 32 32 32 29 29 31 32 32 32 30 28 32 36 34 31 29 26 25 27 26 23 21 23 27 27 27 27 26 26 26 26 25 29 33
26 28 28 28 29 28 27 23 25 30 30 28 29 27 30 31 30 30 33 32 35 35 35 33 32 30 25 23 24 24 19 20 21 23 25 27 26 22 20 21 27 27 26 27

GFSNW_sfc_dewp_036.txt.gz
Dewpoint
47 47 46 46 45 46 45 45 40 46 48 43 41 38 37 39 34 36 32 33 31 29 29 28 27 28 30 31 30 29 31 31 31 33 32 32 34 32 31 29 23 22 21 17
47 46 46 46 45 44 42 40 40 47 47 37 34 36 34 36 33 33 31 30 32 31 28 27 29 30 32 34 32 30 30 30 27 28 30 30 29 29 30 27 30 27 21 17
46 46 46 46 44 44 43 41 38 43 44 40 37 34 32 33 39 34 32 31 31 30 28 28 29 30 34 32 32 37 34 29 28 22 25 30 28 29 29 28 26 24 22 20
46 46 46 45 44 45 44 38 36 36 38 37 36 37 35 32 33 36 33 31 30 28 26 26 27 31 31 33 36 33 32 28 27 26 28 31 30 29 29 27 29 24 21 18
46 45 45 45 45 45 38 35 36 36 35 35 34 35 34 33 33 34 30 31 30 29 27 26 26 29 28 28 31 30 33 30 29 26 28 28 28 29 28 29 28 27 26 23
45 45 45 45 44 42 31 33 37 37 35 34 32 34 35 34 37 37 36 36 34 31 35 35 33 31 29 30 30 29 30 30 26 22 26 26 24 27 28 28 28 27 25 24
45 45 45 46 45 42 36 35 37 32 30 29 32 33 34 34 35 35 37 38 36 35 35 34 32 31 30 30 30 30 30 32 31 25 25 17 26 29 28 27 28 28 27 27
45 45 45 45 45 44 38 37 34 30 23 19 24 26 30 34 35 36 37 40 41 38 37 33 30 30 29 29 30 30 29 30 30 24 23 24 24 28 27 27 27 28 28 28
45 45 45 45 45 43 41 39 39 32 26 20 21 22 22 31 33 33 38 41 43 41 39 34 28 27 25 28 30 33 30 30 29 28 22 20 30 29 31 31 30 32 30 30
45 45 44 44 44 44 43 40 40 35 28 24 24 26 30 31 33 33 35 37 39 41 36 31 29 27 25 24 23 28 31 29 27 28 23 24 34 35 34 30 31 32 30 31
45 45 45 45 45 44 44 41 40 35 30 29 30 26 24 24 23 25 30 35 37 37 35 32 32 29 27 24 25 27 27 27 27 27 25 20 36 35 32 34 35 36 36 37
44 45 44 44 44 44 45 39 39 38 35 31 34 33 32 30 28 27 27 31 33 38 36 35 33 28 26 26 24 27 26 27 25 25 25 30 31 33 36 37 36 36 37 37
45 44 44 44 44 44 45 42 41 40 36 32 31 29 31 32 32 32 25 28 33 32 34 35 38 34 31 26 26 27 28 29 29 27 28 29 30 34 36 37 37 38 38 37
44 43 44 44 44 45 41 40 41 40 36 28 27 31 30 31 30 32 32 29 29 31 33 33 35 34 33 29 29 30 31 31 29 30 31 35 32 33 36 37 38 38 38 38
44 44 44 44 44 43 43 42 41 42 36 28 30 32 30 28 30 31 31 30 29 30 29 29 30 36 36 35 34 32 33 32 31 29 31 30 32 34 37 38 38 37 36 37
44 44 45 45 41 42 41 36 41 40 40 33 26 32 29 28 29 29 29 31 30 31 29 28 29 34 35 33 30 31 30 32 33 32 36 37 38 39 38 38 37 36 35 35
44 45 45 42 41 43 37 34 38 41 40 32 27 28 29 28 32 33 32 32 31 31 30 27 27 27 35 34 30 33 31 31 34 37 37 37 36 36 36 35 34 36 35 35
45 44 42 38 42 41 39 40 40 40 37 34 26 26 30 33 33 31 32 30 32 31 29 28 25 27 27 26 33 37 38 34 36 35 34 33 33 32 33 34 35 34 34 34
43 38 38 42 40 35 37 39 41 42 37 30 29 26 27 37 36 37 32 31 25 28 26 25 25 24 25 27 27 36 37 35 34 33 32 32 32 33 35 35 35 35 35 35
41 36 35 35 35 37 38 38 35 34 35 34 28 34 29 35 35 35 33 33 30 26 26 30 26 25 27 31 36 35 33 32 34 33 32 31 31 33 34 34 36 36 36 36
38 33 32 35 38 36 35 32 32 33 30 32 31 32 31 35 32 32 36 32 33 28 31 29 31 31 33 35 32 31 30 30 31 31 32 32 33 34 34 35 36 36 33 32
38 36 37 36 33 32 27 26 31 31 30 34 33 31 31 33 37 33 34 31 32 29 34 32 31 33 32 33 30 30 30 30 31 31 32 32 34 34 34 36 35 35 34 29
38 34 29 30 29 19 18 17 22 26 33 33 31 29 30 33 37 34 34 32 31 33 32 31 31 31 30 29 29 29 30 30 31 30 31 31 32 34 34 35 35 35 35 33
30 23 12 22 20 24 26 26 26 31 31 31 31 30 29 32 32 34 31 34 33 29 28 28 29 29 29 29 30 29 29 29 30 30 30 30 30 30 32 32 32 34 34 34
26 25 17 19 27 27 27 28 26 29 32 31 29 30 30 30 31 32 32 30 25 29 28 32 32 29 29 29 29 28 27 27 28 29 29 28 28 27 27 28 27 27 31 33
26 24 21 26 22 24 25 25 25 30 31 31 32 29 28 29 31 30 28 30 27 31 32 34 32 30 27 27 27 24 21 21 24 27 27 27 27 26 26 27 27 27 27 29
26 22 28 26 24 24 26 24 26 30 27 22 27 23 22 27 27 29 31 30 33 34 34 33 32 30 26 24 26 23 20 20 22 23 25 27 26 21 17 17 20 26 28 26

GFSNW_sfc_dewp_039.txt.gz
Dewpoint
47 46 46 47 46 47 43 39 39 44 47 37 36 30 35 38 36 36 35 33 31 29 28 27 29 29 30 32 32 33 32 33 31 34 37 38 35 32 29 26 22 21 21 19
47 46 46 46 46 45 42 36 37 45 45 36 32 34 36 37 35 34 32 31 32 31 28 27 29 30 32 33 32 29 31 30 27 29 33 35 34 34 34 30 29 24 18 16
46 46 46 46 45 45 42 39 36 40 41 40 37 33 32 35 38 35 33 31 31 29 27 27 29 31 34 32 32 39 35 30 25 22 23 30 28 31 33 34 28 25 25 20
46 46 46 46 46 47 41 37 36 37 35 35 35 37 36 33 33 37 33 32 31 29 26 26 28 31 32 33 37 32 32 24 25 27 30 30 29 29 29 27 27 23 22 20
46 45 46 46 46 43 34 34 34 36 34 35 33 35 35 35 35 34 31 32 30 28 32 30 27 29 28 28 32 30 32 25 26 21 28 28 27 29 29 29 27 27 27 26
45 46 46 46 46 41 31 33 35 37 34 32 32 34 35 36 36 36 36 36 35 34 34 36 34 30 29 29 30 29 31 26 21 19 26 26 22 26 27 28 29 27 25 26
46 45 45 46 44 43 35 33 34 31 27 22 26 27 32 34 34 35 37 39 36 35 36 35 32 31 30 30 30 30 31 29 24 18 23 15 20 28 28 27 28 29 28 27
46 45 45 45 45 45 36 36 34 30 25 21 21 24 24 29 34 36 38 41 41 41 38 32 29 30 29 29 30 29 32 31 24 21 21 23 25 28 27 27 27 29 28 28
46 45 45 45 45 45 39 37 37 33 26 22 22 21 25 29 30 35 39 41 42 40 38 34 28 27 27 28 30 32 31 31 27 28 21 20 28 29 30 31 26 32 30 29
45 46 46 45 45 44 42 40 38 33 28 28 28 24 29 26 25 29 35 33 37 39 34 30 28 27 25 25 26 26 30 29 26 28 25 24 27 30 34 28 29 31 30 30
45 45 45 45 44 45 42 40 39 33 29 30 30 28 24 25 25 24 27 32 37 37 32 30 29 27 26 25 25 27 26 25 26 27 25 20 35 34 32 33 35 35 35 36
45 45 45 44 44 44 43 40 41 39 33 30 34 33 33 32 31 27 26 26 32 35 36 35 33 29 26 26 24 28 25 27 25 26 26 28 35 33 36 36 35 36 37 37
45 44 44 45 45 45 43 38 38 37 33 30 29 29 30 32 32 33 25 29 32 32 34 34 36 32 32 25 25 27 28 29 27 27 28 30 30 35 36 37 37 38 38 37
45 44 44 45 45 44 42 38 40 37 33 26 26 30 30 32 30 33 33 31 31 31 33 30 32 33 35 31 30 29 30 30 28 29 30 32 32 34 36 37 37 37 37 37
45 44 44 45 45 41 41 39 39 40 33 27 28 32 31 28 31 32 33 32 30 29 28 26 26 32 33 33 33 30 32 31 29 29 31 30 30 33 37 37 38 38 37 37
44 45 45 44 42 42 39 33 39 40 39 32 26 32 29 28 29 30 30 31 30 30 29 27 28 31 33 29 27 25 28 33 34 32 34 35 38 38 39 38 37 36 35 36
44 44 44 41 42 39 34 32 36 40 39 31 25 27 30 27 31 33 32 31 31 30 29 28 26 27 30 28 22 26 29 35 37 36 38 37 37 36 35 35 34 35 35 35
44 43 39 39 42 41 35 38 40 40 36 33 25 26 29 34 33 31 33 30 31 31 29 29 26 26 26 22 24 25 24 32 37 34 35 36 35 33 34 34 35 34 34 35
42 39 40 40 36 33 34 39 41 41 36 27 26 24 24 37 35 36 33 31 25 29 27 26 25 22 20 24 24 24 33 36 36 36 33 32 33 34 35 35 34 33 34 35
41 36 35 31 33 37 38 38 35 34 34 34 27 32 27 34 33 33 33 32 27 24 25 28 24 23 25 26 30 38 37 37 38 34 32 31 30 33 33 33 35 35 35 34
36 33 32 34 39 36 33 30 29 31 26 31 30 32 30 33 30 31 35 31 29 27 27 26 28 31 34 35 31 31 31 34 35 34 33 33 34 34 34 34 35 35 34 31
35 33 36 36 33 27 18 15 26 24 24 31 31 30 31 32 36 33 34 31 32 25 34 30 30 34 34 35 33 33 33 34 33 33 33 34 34 34 35 35 35 35 35 31
36 30 25 25 21 13 9 9 15 16 27 25 27 25 29 31 35 34 33 31 31 33 30 31 32 31 30 32 34 33 33 35 34 31 32 32 33 34 34 34 34 35 34 35
25 16 10 15 12 14 18 18 17 25 23 24 26 28 26 29 30 33 30 33 33 27 23 27 32 32 30 29 30 29 30 33 33 32 31 30 30 30 30 28 27 29 31 33
23 19 11 11 21 17 18 25 19 23 26 25 23 25 30 29 28 31 32 30 26 29 28 32 33 33 32 29 29 27 25 27 28 28 28 28 28 27 26 27 27 26 27 31
20 18 16 21 15 14 16 14 17 24 27 24 26 23 25 26 29 27 29 29 27 28 32 35 34 32 33 30 27 23 20 22 26 26 29 28 26 25 24 25 24 27 27 26
27 17 24 21 15 19 19 25 25 29 24 17 19 13 15 22 24 22 30 29 29 32 32 33 33 32 32 32 27 24 20 20 22 23 26 26 27 21 15 15 18 23 27 27

GFSNW_sfc_dewp_042.txt.gz
Dewpoint
47 46 46 47 46 47 42 37 35 44 46 39 33 28 34 38 36 36 35 32 31 28 28 28 29 29 32 38 35 35 34 34 31 34 38 38 35 33 30 29 23 21 20 18
46 45 46 47 46 45 40 38 36 44 44 29 30 33 36 37 35 33 32 31 31 30 27 27 29 30 32 36 34 33 32 30 25 29 33 36 36 35 33 29 27 20 17 15
46 46 47 47 46 45 41 37 34 37 42 40 35 33 32 34 37 35 33 31 30 29 26 29 29 30 33 32 32 38 35 30 24 23 25 32 32 34 34 31 23 24 23 20
46 46 46 47 45 43 39 35 35 36 34 35 35 36 35 33 33 35 33 31 30 29 25 27 29 31 31 32 36 33 30 25 25 27 30 29 29 31 33 32 30 29 26 26
46 46 46 45 46 39 31 31 33 35 34 34 33 36 35 35 35 34 33 33 34 32 32 30 27 30 30 28 32 31 31 24 25 21 27 28 27 28 31 33 33 32 26 26
46 46 46 46 45 39 31 32 33 35 32 27 33 33 34 35 36 36 37 38 35 32 33 34 35 30 30 29 29 29 30 26 20 17 26 25 22 26 27 29 29 30 26 26
46 45 45 45 45 40 33 33 32 28 24 24 24 22 26 25 32 34 36 40 35 36 40 37 34 31 30 30 31 31 30 26 22 17 22 13 21 27 27 27 29 29 28 27
45 45 45 45 45 45 36 35 33 28 21 21 17 21 23 29 33 35 38 40 41 42 38 31 29 29 29 29 30 30 31 30 23 20 18 21 24 28 27 26 25 28 30 28
45 46 45 45 45 45 38 36 35 31 24 22 24 22 29 27 29 33 38 39 37 39 37 33 26 24 25 27 29 30 31 30 26 26 22 20 24 29 29 29 25 31 30 29
45 45 45 45 45 45 40 38 36 32 27 28 28 24 25 26 22 24 32 27 34 37 33 30 27 23 28 26 26 27 30 29 28 26 26 24 26 30 33 25 25 34 30 30
44 45 45 45 44 44 40 38 38 33 28 29 29 28 25 27 26 23 26 31 35 36 30 29 28 27 26 24 25 26 25 24 26 28 26 19 31 34 30 32 36 35 33 32
45 44 44 45 45 45 42 36 40 39 32 29 34 33 33 32 30 27 26 25 33 34 34 35 34 32 28 25 24 27 25 26 25 27 26 27 32 33 34 35 35 36 37 37
45 43 44 45 45 43 42 36 39 37 34 29 28 27 29 33 32 32 25 28 30 31 33 33 34 31 33 27 25 25 28 29 27 27 27 28 29 33 36 37 36 37 38 37
45 43 44 45 45 42 42 39 38 35 34 26 25 31 31 33 31 33 32 31 31 32 31 26 29 31 34 30 30 29 29 30 28 28 29 31 31 32 36 37 38 37 37 37
44 44 45 44 42 42 39 38 38 38 30 25 27 31 31 28 31 32 33 32 30 30 27 27 25 30 30 30 32 28 32 31 29 28 30 29 29 32 36 37 37 37 38 37
44 45 44 42 41 43 38 34 37 39 37 29 26 32 29 29 29 30 30 32 31 31 29 27 28 29 31 25 25 28 22 26 36 34 36 35 34 36 37 37 38 37 36 36
44 43 41 42 42 37 32 29 34 40 37 28 22 25 30 27 29 33 32 31 32 30 29 28 26 26 29 27 23 20 20 20 22 29 36 37 37 36 37 36 35 36 35 35
42 39 41 42 42 39 33 37 41 39 33 30 17 23 29 35 32 32 33 31 32 31 29 29 28 27 25 22 23 22 23 24 25 33 37 35 36 34 34 34 34 34 34 34
40 41 42 37 34 31 33 39 41 40 31 21 20 20 21 35 33 35 34 32 27 29 27 27 25 23 20 23 23 23 25 31 35 36 36 36 35 35 35 35 34 33 34 34
40 35 32 28 32 37 38 36 34 33 33 27 19 27 21 31 31 30 34 32 26 23 26 28 24 22 25 29 34 31 31 38 37 35 33 34 34 35 34 34 35 35 34 33
34 30 27 32 38 34 31 30 28 29 21 30 30 28 27 31 29 29 33 31 30 24 28 25 22 27 35 35 35 34 33 34 37 37 37 36 35 34 34 35 35 35 35 31
33 33 35 34 31 24 18 17 23 22 20 29 29 27 29 29 34 33 33 29 31 24 32 27 26 32 34 33 34 34 35 35 35 35 36 35 35 35 35 35 35 35 35 35
34 28 19 23 20 10 4 3 11 13 25 22 24 23 26 29 33 33 33 30 29 33 30 30 30 34 34 33 30 33 34 34 34 35 35 35 35 34 34 33 31 33 33 34
24 13 7 13 10 12 14 14 14 22 28 23 26 27 24 27 25 31 29 30 34 28 25 25 28 33 34 33 32 29 29 33 33 33 34 33 33 30 28 28 27 27 30 31
25 17 13 12 19 14 19 27 20 21 24 24 23 27 27 22 25 26 30 29 27 24 23 27 31 36 34 33 32 27 22 24 27 31 32 31 31 30 27 28 28 27 27 27
19 17 16 21 14 11 13 14 16 22 26 23 29 25 24 23 27 25 22 25 18 24 28 32 34 33 33 33 32 31 22 21 24 26 29 29 26 23 20 20 20 26 27 25
22 18 25 21 17 18 19 24 24 27 23 16 15 12 14 24 22 22 25 22 21 27 30 30 30 30 31 33 31 31 29 22 28 27 28 29 28 28 17 14 17 22 26 26

GFSNW_sfc_dewp_045.txt.gz
Dewpoint
46 46 47 46 47 46 42 37 33 43 45 40 36 26 33 38 35 36 34 32 30 28 28 30 29 33 34 38 36 33 33 31 29 33 38 38 35 32 30 24 20 20 19 19
46 46 46 47 46 45 39 37 36 44 45 29 29 32 35 36 34 33 31 30 31 30 27 28 30 30 34 39 36 34 33 29 28 29 35 36 36 35 32 29 26 21 20 21
45 46 47 47 45 44 40 35 30 36 42 38 33 33 32 33 36 34 32 31 30 28 26 30 29 30 32 34 34 39 35 30 25 22 24 33 33 34 34 30 25 26 24 24
46 46 46 46 45 41 37 34 33 34 29 35 35 34 36 33 32 34 33 31 31 28 25 28 29 31 31 32 35 34 31 28 26 27 29 31 30 32 33 31 31 27 27 24
46 46 46 46 47 37 32 30 31 34 33 33 34 36 35 35 36 35 33 34 33 32 30 30 29 29 29 29 31 31 31 24 24 21 26 28 27 29 33 33 32 31 30 30
46 46 46 46 46 38 30 31 32 34 28 25 34 29 34 32 35 36 37 38 33 31 32 34 34 32 30 30 29 29 29 25 21 17 25 24 21 24 27 31 33 33 30 31
45 45 46 45 46 39 33 32 31 27 21 24 19 21 24 27 31 34 35 40 35 37 41 38 34 31 30 30 30 31 28 25 21 16 21 14 22 24 27 27 29 33 32 30
46 46 45 45 46 44 36 34 31 26 20 22 18 23 28 30 32 33 38 39 39 41 37 30 28 28 29 29 30 31 30 28 22 18 18 21 22 27 26 25 24 28 30 31
45 45 45 45 45 45 37 35 34 30 23 24 26 23 27 25 25 32 33 34 31 38 36 32 24 23 24 26 29 31 31 30 25 25 20 18 20 31 28 28 24 30 29 28
45 45 45 45 45 44 39 36 35 30 27 28 28 25 24 24 22 24 28 25 32 36 32 30 27 23 27 25 24 27 30 30 27 28 26 25 26 27 31 23 22 34 32 31
45 44 45 45 45 44 39 37 38 32 28 28 30 30 27 26 25 23 25 30 31 34 29 29 27 26 26 23 25 26 26 24 25 28 27 20 27 33 29 30 35 35 35 32
45 44 44 45 44 43 40 34 38 38 30 28 33 33 33 31 29 27 26 24 33 33 32 32 34 30 29 24 23 26 24 25 25 27 26 28 29 33 33 35 35 35 36 35
45 44 44 45 44 43 40 35 37 34 29 26 27 27 29 32 32 32 25 28 28 30 33 30 32 29 31 26 25 24 27 29 26 27 27 28 29 30 35 37 36 37 38 38
44 44 45 45 42 44 40 36 36 34 31 24 26 30 31 31 31 32 31 30 30 31 30 25 27 29 33 29 30 30 30 30 28 28 29 29 30 31 31 34 38 38 37 37
44 45 45 42 43 41 39 37 37 37 29 24 24 30 31 28 31 32 32 32 30 29 26 26 23 28 29 28 30 29 27 26 28 25 33 33 32 33 35 35 37 37 37 37
45 45 43 42 44 41 36 31 36 38 36 25 22 29 28 28 29 30 30 32 31 31 29 28 28 28 29 23 24 26 28 22 27 26 23 31 30 35 37 36 37 37 37 37
44 42 43 43 41 36 30 30 35 40 35 26 21 23 30 27 30 33 32 31 32 31 30 28 26 25 29 27 22 22 21 20 22 24 27 29 34 35 36 37 37 37 35 35
42 42 42 42 42 38 33 36 40 38 32 28 14 18 25 34 30 32 34 32 31 30 29 28 28 27 25 21 23 22 23 24 26 32 35 35 36 36 35 35 34 33 33 33
41 43 42 36 33 29 31 38 41 39 29 20 17 18 18 31 30 34 34 32 26 29 27 27 26 23 21 26 29 31 34 33 30 35 35 35 35 36 36 36 33 33 33 33
43 35 30 27 31 37 37 35 31 29 33 26 18 26 20 29 27 27 34 32 27 23 26 27 24 22 26 34 36 35 35 34 34 35 33 34 33 34 36 36 36 35 34 33
33 30 27 31 37 33 30 23 24 26 20 29 29 30 27 29 26 28 32 31 30 23 27 24 24 27 30 36 34 34 36 35 35 36 37 36 36 35 36 36 36 35 35 32
33 32 34 32 28 22 16 14 20 21 20 26 26 26 27 28 34 33 33 28 30 25 30 27 26 27 30 36 34 33 33 35 34 36 36 36 36 35 36 36 35 35 35 35
31 26 19 23 18 9 1 0 8 11 19 23 23 22 25 28 31 31 32 29 29 32 27 28 25 28 32 35 35 33 31 33 34 34 35 35 34 34 32 29 27 30 32 33
24 15 8 13 8 11 13 13 14 20 28 22 26 26 25 27 24 29 28 29 32 26 21 21 27 29 34 34 35 31 27 23 30 32 33 33 32 32 32 31 28 27 28 30
20 19 11 10 18 17 21 24 22 21 25 24 23 23 26 24 25 26 28 25 20 15 17 21 28 31 34 33 33 31 29 22 23 27 32 32 31 31 30 29 26 27 26 26
18 16 15 19 13 9 17 22 18 21 25 25 26 21 23 22 25 22 22 22 21 15 18 24 27 31 31 31 32 31 30 26 21 26 27 30 30 28 27 20 18 24 27 26
14 16 24 19 17 16 18 24 24 27 22 15 15 9 11 24 20 20 24 24 18 19 23 24 27 28 29 30 30 31 30 30 25 27 30 31 31 30 29 27 18 21 24 25

GFSNW_sfc_dewp_048.txt.gz
Dewpoint
46 46 47 47 46 45 41 37 36 43 45 39 37 25 32 38 34 36 34 31 30 28 34 33 30 31 33 37 37 32 33 30 30 34 38 37 33 29 28 22 19 20 18 20
45 46 47 47 45 44 39 34 38 45 45 33 28 31 34 35 33 33 31 30 30 29 28 28 30 31 34 38 35 33 34 30 27 28 34 36 35 35 32 28 25 20 19 22
46 46 46 46 44 45 40 34 29 36 42 40 32 31 32 33 35 34 32 31 30 27 28 30 29 30 35 36 35 39 35 29 24 22 23 30 31 34 34 30 29 27 26 26
45 46 46 46 43 43 37 33 32 33 27 33 32 33 35 33 31 34 34 32 31 28 26 28 29 30 31 33 39 36 32 25 25 27 27 31 30 30 33 33 32 29 28 27
45 46 46 46 43 38 32 29 30 32 30 30 30 32 34 34 35 34 34 35 33 32 30 29 28 30 28 29 30 32 31 26 24 22 26 30 28 29 32 33 33 33 32 31
45 45 46 46 43 36 30 30 32 31 25 26 33 25 30 28 33 36 38 39 33 32 34 35 34 32 30 29 29 30 29 25 20 17 25 24 21 25 27 30 33 32 31 32
45 45 45 46 44 38 33 31 29 26 20 20 19 23 25 29 31 34 35 39 34 37 40 38 34 31 30 30 30 31 26 24 21 16 20 11 21 24 26 27 28 33 33 33
45 45 45 45 45 41 35 33 30 24 21 22 20 24 27 29 30 33 38 35 33 33 36 30 28 28 28 29 30 29 28 26 21 18 18 20 19 27 26 25 24 27 30 31
45 45 45 45 45 43 36 34 33 28 22 24 27 23 25 23 23 31 31 31 29 36 35 30 24 22 24 25 29 31 30 29 25 24 19 17 18 30 29 28 23 27 30 29
44 45 45 45 45 43 38 35 33 29 27 27 26 24 23 24 22 23 27 24 32 35 30 30 27 23 26 25 24 26 29 30 25 25 24 24 26 28 30 22 21 32 34 33
44 45 45 45 44 43 38 36 37 31 27 28 30 30 26 25 24 21 24 29 30 32 29 29 27 26 25 23 24 25 26 24 24 26 25 18 28 32 27 28 33 35 35 35
44 45 45 44 43 43 38 33 37 36 29 29 32 32 32 31 29 27 25 25 31 31 32 31 30 28 29 23 22 25 24 25 24 26 24 27 28 32 33 34 35 35 36 37
44 44 45 44 43 42 39 35 35 32 28 26 27 27 29 31 32 32 24 28 28 30 32 30 32 28 30 24 24 23 25 28 27 26 28 29 30 31 32 33 34 36 37 37
44 45 45 43 43 41 39 35 35 33 29 25 25 30 30 31 31 32 31 30 30 31 29 24 26 27 31 27 28 28 30 31 28 27 28 28 31 31 30 28 35 36 37 37
44 45 44 43 42 41 39 37 36 35 28 25 25 29 30 29 31 32 32 31 29 28 26 26 23 25 26 27 27 25 25 25 25 25 28 27 26 28 25 32 36 36 37 36
45 45 43 43 42 40 34 30 33 37 34 25 22 29 28 29 28 29 29 31 31 30 28 27 28 28 28 23 21 24 26 21 22 22 22 24 24 27 30 35 35 35 37 37
45 42 43 44 42 35 30 28 32 39 33 26 21 22 28 30 31 32 31 31 30 29 29 28 26 25 30 28 22 21 23 27 33 34 30 29 30 33 36 36 35 37 36 35
43 42 42 41 41 37 32 36 39 36 30 26 13 15 24 33 29 31 34 32 31 29 28 28 28 28 26 21 23 28 32 34 33 32 33 33 35 35 35 36 35 34 34 33
43 43 41 35 32 28 30 38 39 35 29 21 18 20 14 29 28 32 35 32 25 29 27 27 26 24 24 30 31 33 34 34 33 34 35 34 34 34 36 36 36 35 35 35
44 35 29 27 31 37 37 32 29 28 28 26 18 27 21 27 26 27 31 31 27 20 26 28 26 25 27 29 32 36 34 33 33 31 31 33 34 34 34 34 37 37 36 34
33 30 29 32 37 32 28 22 21 23 18 27 24 22 19 28 19 23 30 29 29 20 27 26 25 25 28 32 34 34 33 31 31 34 35 36 35 33 33 34 37 37 36 34
33 33 34 31 27 22 14 12 18 19 15 25 23 25 27 27 30 32 29 27 29 21 29 26 22 25 27 33 34 34 32 31 30 31 32 32 35 34 33 34 34 34 35 35
30 28 22 23 18 9 -0 2 8 11 19 23 24 16 25 27 28 26 29 28 28 31 27 22 22 26 27 32 34 34 33 29 27 29 32 31 33 34 33 31 31 30 30 32
26 20 12 14 11 12 12 13 14 20 28 24 25 21 25 26 25 28 25 26 30 24 17 16 19 23 26 31 32 33 32 31 27 26 30 32 32 31 32 32 30 28 28 28
21 20 10 13 20 19 19 20 23 22 27 23 22 20 25 24 24 26 24 22 22 16 14 16 21 26 28 29 29 29 29 30 30 23 27 30 30 30 29 29 27 26 29 28
19 16 15 21 15 9 22 24 18 21 25 27 21 16 17 21 24 21 17 20 18 16 15 22 23 27 27 27 27 27 28 29 30 26 24 27 29 30 29 30 28 24 26 27
16 15 24 19 14 17 18 23 24 26 22 15 14 8 10 21 20 19 23 22 20 18 19 21 24 25 26 26 26 27 28 28 28 29 27 29 31 31 29 28 29 27 26 26

GFSNW_sfc_dewp_051.txt.gz
Dewpoint
45 46 46 47 45 45 41 37 37 44 46 39 37 29 31 37 35 36 35 32 31 35 34 27 29 31 34 37 36 32 32 31 31 34 38 36 34 29 27 24 22 21 20 21
45 46 46 46 44 44 38 34 40 45 45 32 28 31 33 35 33 33 31 30 31 31 34 31 30 32 35 37 34 32 33 28 28 30 33 35 36 34 31 27 26 22 22 21
45 46 46 46 43 46 38 34 30 38 42 40 34 31 32 32 35 34 32 31 29 27 29 30 30 31 37 36 37 38 35 29 25 22 23 30 31 34 33 29 25 25 25 25
45 45 46 45 41 46 36 32 30 32 34 34 31 32 34 33 32 33 35 31 32 28 27 28 29 30 33 36 40 35 32 26 26 27 27 32 30 30 34 33 32 29 27 27
45 45 45 44 40 39 32 31 31 31 28 28 30 31 32 33 34 35 33 33 32 32 30 29 28 30 31 33 32 37 32 27 26 23 26 30 29 30 31 33 33 32 32 31
45 45 45 43 41 35 29 29 31 29 24 26 31 24 28 28 33 35 39 38 32 34 35 36 34 33 30 30 30 30 31 28 25 22 24 24 22 25 28 30 33 32 31 31
45 45 45 43 41 36 32 30 29 26 21 19 21 25 27 30 32 33 36 37 34 38 38 38 32 30 30 30 30 30 26 24 21 16 20 12 19 23 27 27 28 31 33 33
45 45 45 44 41 40 33 32 28 23 21 21 23 25 26 29 29 33 37 32 29 31 35 30 28 28 28 28 30 29 27 26 22 19 18 19 21 27 26 25 25 27 28 29
45 45 45 44 43 41 35 33 32 26 24 24 27 23 24 23 25 32 30 29 31 36 34 29 24 23 25 26 29 32 30 28 26 24 20 17 18 27 29 28 23 28 29 31
45 45 44 44 43 41 37 35 32 30 26 27 25 23 23 23 22 25 25 24 31 34 31 30 27 23 25 24 24 26 29 30 27 27 26 24 26 28 29 22 23 31 34 35
45 45 44 44 43 42 38 36 36 29 28 27 29 30 25 24 23 24 24 28 29 31 30 29 27 26 24 22 24 25 26 25 25 27 25 18 27 30 28 30 33 34 34 35
45 45 44 43 43 42 38 34 37 34 30 29 31 31 31 31 29 26 25 26 31 30 33 31 29 28 28 23 21 25 24 26 24 25 23 27 30 30 32 32 31 32 34 36
45 45 44 43 42 41 38 35 34 31 29 27 28 27 29 31 31 32 23 27 28 29 31 31 32 27 29 23 24 24 26 29 27 27 27 26 26 31 28 26 24 29 36 36
45 45 44 43 41 40 38 35 34 31 29 25 25 29 29 31 31 32 31 29 30 30 29 25 27 26 29 28 28 27 29 27 25 24 28 22 26 24 24 26 26 34 35 34
45 45 44 42 41 41 38 36 35 34 30 26 25 28 29 29 31 32 31 30 28 27 24 25 24 25 24 24 24 22 25 20 19 19 23 23 24 25 28 26 30 35 35 35
45 44 44 42 41 39 33 29 33 36 32 27 23 28 27 27 29 30 30 30 30 29 27 27 28 28 28 23 19 23 25 24 23 27 31 33 32 30 28 32 35 35 37 36
45 43 43 42 41 37 31 29 32 37 32 27 21 20 27 31 30 31 30 30 29 28 27 27 26 25 29 28 21 22 27 32 33 33 32 31 32 32 34 35 36 36 35 36
44 43 43 42 41 38 33 36 38 34 28 25 11 13 23 30 28 30 33 29 29 28 27 27 27 28 28 22 23 28 32 35 33 32 33 33 33 35 33 35 37 36 34 35
44 43 41 35 33 29 31 38 38 33 28 19 17 9 9 28 27 30 34 29 24 28 26 26 27 26 23 27 29 30 33 34 33 32 32 31 31 33 35 34 35 34 36 36
43 35 29 29 32 37 37 31 28 27 27 26 18 27 17 24 25 26 29 28 27 16 25 29 26 25 27 27 29 33 34 34 32 29 28 31 31 32 33 33 34 36 37 36
34 30 30 33 37 32 27 21 20 23 18 26 22 20 18 27 19 21 28 26 24 14 21 25 19 22 26 29 32 33 34 33 32 30 29 30 33 31 32 32 34 34 35 35
34 34 34 31 27 21 14 10 18 18 15 25 23 25 26 26 29 28 30 24 27 13 25 21 17 22 25 27 30 31 31 31 31 29 27 28 30 32 33 33 32 31 33 34
31 29 24 24 19 11 -1 4 11 12 21 25 23 16 25 27 28 26 27 25 22 29 25 16 19 23 24 25 30 30 29 30 30 29 26 29 30 31 31 32 32 30 29 30
27 23 15 17 12 12 13 15 15 20 26 25 24 20 25 27 25 26 21 23 30 25 16 13 15 20 24 26 29 29 27 27 26 26 27 26 28 30 30 30 29 27 25 28
24 24 15 17 21 21 16 17 21 26 28 25 23 19 23 19 24 25 24 20 19 21 14 15 19 23 25 26 26 25 25 25 26 27 26 24 25 29 29 30 29 28 25 27
23 20 19 21 20 16 24 24 17 26 26 24 21 15 12 19 22 20 18 9 8 15 14 20 21 23 23 23 25 25 25 25 26 26 27 28 26 27 29 30 30 29 27 27
20 19 24 22 20 21 20 23 24 25 23 17 14 7 9 21 19 18 21 16 18 19 19 20 22 22 22 23 24 24 25 25 24 24 25 26 28 29 31 29 29 30 29 28

GFSNW_sfc_dewp_054.txt.gz
Dewpoint
46 45 46 46 46 46 45 44 39 45 46 40 37 35 33 37 35 37 35 37 33 30 27 23 28 29 33 37 36 31 32 32 31 35 37 35 32 28 28 26 27 25 22 16
46 46 46 46 44 45 42 41 41 46 45 35 33 33 33 36 33 33 31 31 37 37 34 29 32 33 36 38 35 32 32 31 29 32 34 35 34 32 30 29 29 28 23 19
46 46 45 45 43 45 41 40 37 40 43 41 35 34 34 33 36 34 32 30 30 31 30 31 31 33 37 37 36 38 36 30 29 25 30 32 32 32 32 31 30 25 24 24
46 45 45 44 41 47 39 36 36 37 35 36 35 35 36 33 32 34 35 32 31 28 28 30 31 33 35 36 39 35 33 33 31 26 29 32 31 31 33 34 31 29 26 24
46 45 45 42 42 44 35 33 35 35 31 31 34 34 33 33 35 36 34 32 33 30 29 30 29 32 33 34 36 36 33 33 29 29 27 30 29 30 30 32 31 31 31 30
46 45 44 42 42 36 34 34 36 33 26 29 33 30 29 31 34 36 38 37 33 35 37 39 37 33 32 32 35 35 35 32 31 26 25 24 23 23 26 28 31 31 29 28
46 45 44 42 40 37 33 34 35 29 23 26 26 26 29 32 34 35 35 35 34 37 35 40 32 31 31 31 31 32 30 29 30 27 23 17 20 22 25 25 26 27 28 29
46 45 44 42 42 39 35 35 29 27 21 23 25 27 28 31 33 36 35 30 30 34 35 31 29 29 29 29 31 29 28 27 27 25 21 20 25 27 26 25 27 29 30 31
46 45 45 44 41 41 37 36 33 29 24 24 26 24 25 33 31 34 31 28 34 37 35 30 26 25 26 27 29 30 29 28 26 25 21 17 20 25 28 28 25 31 32 33
46 45 45 44 43 41 39 38 34 31 26 28 26 24 23 24 25 29 26 26 33 35 34 31 28 27 26 25 24 27 28 29 28 26 24 21 27 28 30 24 27 31 30 30
46 45 44 43 42 41 38 38 37 32 28 30 31 30 26 24 23 30 25 30 32 34 32 31 30 27 27 26 26 27 26 25 25 26 24 20 25 30 28 28 25 23 24 27
46 45 44 44 42 41 39 36 37 34 31 29 32 32 32 31 29 26 29 31 31 33 33 31 31 29 29 26 22 27 26 27 26 26 25 28 24 30 27 27 27 26 26 29
46 45 44 43 42 40 40 38 36 37 33 29 28 28 30 31 31 32 24 28 29 30 32 33 31 28 30 26 27 29 29 28 27 25 28 26 26 30 27 27 29 29 31 34
46 45 43 42 42 41 39 37 36 37 34 28 27 29 30 31 32 32 31 30 31 31 31 28 31 28 30 28 28 26 26 22 21 20 23 26 27 28 29 31 31 30 34 35
45 44 43 42 42 41 39 39 38 36 35 29 28 29 29 29 32 32 31 30 29 29 29 29 26 27 25 24 24 22 22 26 26 23 26 27 28 31 33 32 31 32 33 33
45 43 42 42 41 38 35 33 37 38 35 34 28 30 29 31 31 31 30 31 31 30 28 28 28 28 29 22 16 23 24 27 30 28 30 31 32 32 32 31 33 34 35 35
45 43 42 42 41 40 33 32 36 38 35 33 28 29 28 34 33 33 32 32 32 30 30 28 26 26 30 27 20 25 29 32 33 33 32 31 33 33 33 34 35 36 35 34
44 43 42 42 41 39 35 38 38 35 32 29 27 24 27 30 31 29 34 31 30 31 29 29 27 28 28 24 26 26 30 32 33 32 32 31 31 32 32 33 34 33 34 36
44 43 40 37 35 33 36 40 38 36 34 27 25 25 23 29 29 32 33 31 27 30 27 26 28 27 26 26 26 28 30 31 32 31 31 28 27 30 32 32 34 33 34 36
43 36 31 32 34 37 38 34 31 33 32 30 26 28 25 28 28 29 30 31 28 27 26 29 26 26 28 27 28 32 33 32 32 30 29 28 28 28 29 30 31 33 33 33
35 31 32 34 37 33 29 27 28 24 25 29 27 27 26 30 27 27 30 27 28 25 27 26 26 25 26 29 31 32 31 31 32 32 32 31 27 27 29 29 31 30 30 30
35 36 35 32 28 27 23 19 22 21 22 29 28 28 28 29 32 29 30 27 28 22 28 26 23 28 26 26 28 31 31 30 29 29 29 29 29 27 28 29 30 31 30 30
34 31 29 28 23 18 17 13 19 23 27 28 27 25 28 29 30 28 27 26 25 29 26 23 25 25 23 23 26 29 33 31 29 27 28 28 29 30 29 29 30 31 29 28
31 29 19 23 21 17 18 21 24 24 27 26 25 26 27 27 27 27 23 24 29 24 23 23 25 26 24 25 26 27 25 25 27 29 29 29 29 29 30 31 30 30 28 27
27 29 19 22 22 23 23 24 27 28 28 27 26 26 25 25 23 23 23 20 19 22 23 25 27 25 24 23 22 23 23 23 24 25 26 28 28 28 28 29 30 31 30 28
28 25 22 23 24 23 26 25 25 28 27 26 25 23 21 21 23 20 19 18 17 23 26 27 24 22 23 22 23 23 23 23 23 23 23 23 24 25 28 29 29 31 31 30
26 24 26 26 27 26 25 23 24 27 27 25 23 17 16 22 20 19 21 21 25 28 27 25 24 24 24 25 24 23 23 23 23 23 23 24 24 25 28 27 27 28 31 31

GFSNW_sfc_dewp_057.txt.gz
Dewpoint
48 47 47 47 45 48 46 44 38 45 46 40 37 36 35 37 35 38 38 37 32 24 22 22 26 29 32 35 34 32 32 31 30 31 36 35 32 27 27 25 26 23 22 17
48 47 47 47 46 49 44 39 39 46 45 36 33 35 34 35 33 33 33 35 35 34 28 26 30 32 35 37 34 33 32 32 30 31 31 32 31 30 29 27 30 27 22 17
47 47 47 47 45 46 44 40 37 41 43 40 34 33 32 32 36 33 32 30 34 32 30 32 31 33 36 36 35 38 35 29 29 25 29 28 29 28 30 29 29 24 22 21
47 47 47 46 44 46 43 39 35 36 35 35 35 36 34 30 31 34 33 31 30 29 28 30 30 33 35 36 38 34 33 34 32 27 30 32 31 28 29 31 30 27 23 23
47 47 46 44 44 47 40 34 33 36 35 35 35 35 33 31 34 34 31 30 31 29 28 30 29 33 33 33 35 34 34 32 31 33 27 29 29 29 29 30 30 30 28 28
47 46 45 43 48 45 36 36 37 35 32 34 32 32 32 33 35 37 36 33 32 34 36 36 34 32 34 33 33 34 33 32 33 28 24 24 23 23 25 28 28 28 26 26
47 46 44 43 47 42 34 37 37 31 29 32 30 30 33 34 35 34 35 34 33 36 36 36 31 31 31 31 32 34 33 32 31 29 24 19 21 24 24 24 24 26 26 29
47 46 43 43 43 42 35 36 34 31 28 29 29 31 33 35 36 36 34 32 33 36 36 31 29 29 28 29 30 29 29 29 27 26 21 18 25 26 25 25 29 30 31 31
46 46 44 43 42 41 36 36 35 32 28 27 28 30 33 33 33 33 32 30 35 39 35 30 27 26 26 26 29 30 29 28 25 23 19 15 23 26 29 29 24 30 29 28
46 46 45 43 42 41 38 36 37 32 27 28 26 29 30 32 32 32 29 29 34 36 33 30 26 26 26 25 27 27 28 28 27 26 23 21 26 28 30 24 26 26 24 24
46 46 45 44 42 41 39 37 37 33 28 30 30 29 26 26 26 30 28 31 33 34 33 32 29 26 26 25 26 26 26 25 24 24 24 20 25 30 27 28 28 28 28 28
46 45 44 43 42 41 39 34 34 34 31 31 32 31 31 31 30 28 32 32 32 34 33 31 31 28 28 25 22 27 25 26 25 25 26 28 25 26 28 28 27 29 29 29
46 45 45 42 42 40 40 39 36 33 30 29 28 28 30 31 31 32 29 30 31 32 34 33 31 28 30 24 24 27 29 27 27 25 28 28 24 27 28 29 31 31 31 31
45 45 44 43 42 40 39 35 37 38 31 28 28 30 29 31 32 32 31 31 31 31 31 31 32 29 30 27 27 26 25 22 21 20 19 25 26 28 30 32 32 31 31 32
45 44 44 42 41 41 40 39 38 36 36 27 28 29 29 30 31 30 30 29 29 28 30 30 27 27 26 23 22 19 20 22 21 21 28 27 27 30 32 31 30 31 32 32
45 43 43 42 41 39 36 34 38 37 39 35 28 31 32 30 30 30 30 31 29 30 29 28 28 28 29 24 17 22 24 27 29 29 33 33 32 32 31 32 32 34 35 35
43 42 42 42 42 40 35 35 37 37 38 33 30 30 30 33 33 33 32 32 31 30 31 29 26 27 30 27 21 21 26 30 31 32 33 30 30 29 30 31 31 33 33 35
43 42 42 41 41 40 34 36 37 37 33 33 32 28 28 31 31 30 33 30 31 31 30 30 28 29 29 26 26 25 26 28 29 30 30 29 30 28 27 29 31 31 31 32
43 41 39 40 36 34 36 40 37 39 37 33 32 29 25 30 31 33 32 31 29 30 28 27 28 27 27 26 24 23 26 28 28 29 30 29 27 27 27 26 28 29 31 32
40 36 34 34 35 39 39 36 34 35 34 32 28 30 27 29 29 29 29 30 28 28 27 29 26 26 28 26 25 26 27 27 28 28 29 30 31 29 27 25 27 28 29 30
35 33 33 36 38 35 30 31 32 26 30 29 28 29 26 30 29 28 29 27 28 26 28 27 27 24 24 25 25 27 26 26 26 26 27 27 27 27 27 26 26 28 29 29
38 37 37 34 30 31 29 24 27 27 25 29 28 27 28 29 31 27 30 27 27 24 29 26 24 28 24 22 25 24 25 26 24 23 22 23 24 25 27 27 28 29 30 30
36 35 34 32 26 25 27 19 23 26 29 29 28 27 28 29 30 27 27 26 24 30 26 23 26 23 19 20 22 23 32 32 29 25 25 26 26 28 28 27 28 28 29 29
36 33 21 30 24 23 27 27 31 29 31 29 28 28 28 27 28 26 24 23 28 23 21 22 24 23 20 20 21 21 19 22 27 28 29 29 29 29 29 29 29 27 27 29
33 35 23 24 24 26 27 30 30 29 30 29 28 28 26 26 25 23 24 21 19 21 21 28 28 22 21 20 20 20 20 20 22 22 25 28 28 28 27 27 26 26 27 28
33 28 23 24 27 26 28 30 28 29 28 28 29 26 23 23 24 21 21 19 19 24 31 29 21 21 22 22 22 23 22 22 22 21 21 22 22 23 24 25 25 26 28 28
32 27 27 31 29 30 28 25 24 28 28 28 27 21 20 24 22 20 21 22 27 30 30 29 27 27 26 24 23 24 24 23 24 23 24 25 25 26 26 25 25 25 27 28

GFSNW_sfc_dewp_060.txt.gz
Dewpoint
52 51 49 48 48 47 47 46 39 46 47 40 40 36 34 37 36 38 36 37 33 26 24 24 27 32 33 35 35 32 34 32 31 34 38 36 34 30 27 26 24 24 22 18
52 50 48 48 47 49 46 41 39 46 45 36 33 36 34 34 34 35 36 34 34 34 26 27 29 32 35 37 36 34 33 32 26 28 31 33 32 31 31 30 30 25 22 19
51 50 48 48 48 50 47 40 35 39 43 40 37 33 32 32 38 33 32 33 35 32 28 32 30 33 36 37 36 39 37 31 29 25 27 30 29 29 30 30 25 26 25 23
51 49 48 48 47 50 47 42 36 36 35 35 35 37 32 31 31 35 33 31 31 29 29 29 28 32 34 37 37 35 34 31 29 28 31 32 31 28 28 29 29 25 25 23
50 49 49 49 47 48 44 37 36 37 35 34 34 35 33 31 34 35 31 31 31 30 30 32 29 31 32 32 35 33 34 31 29 26 28 29 28 29 29 29 30 29 29 28
50 49 49 48 46 47 42 39 39 37 36 34 33 33 33 34 36 37 36 33 33 34 36 33 34 33 34 34 33 32 33 30 27 23 25 24 22 24 27 29 29 28 27 27
50 49 48 45 48 48 40 37 39 36 30 33 31 32 33 35 36 35 34 35 34 36 36 36 32 31 32 32 33 34 33 32 30 23 23 15 22 25 26 25 27 29 28 31
49 48 46 45 49 49 39 39 38 35 30 31 31 33 34 36 36 34 33 33 34 37 36 32 29 29 29 29 30 29 30 32 28 25 22 21 25 27 27 27 29 30 30 29
49 47 45 45 48 48 39 38 38 37 32 29 31 33 35 34 33 33 32 33 37 39 36 32 26 25 26 26 29 30 29 28 26 23 20 16 25 28 30 29 27 27 25 26
48 45 44 44 45 45 40 37 38 37 29 29 29 30 32 34 33 32 31 32 35 37 34 30 26 26 26 25 25 26 27 27 25 25 22 24 25 27 31 24 25 28 28 28
48 46 44 44 43 42 41 38 38 36 30 30 31 30 28 29 29 30 29 32 33 34 32 31 29 27 26 26 28 26 26 24 24 26 25 19 26 29 26 27 28 28 29 30
48 46 44 44 43 42 42 35 36 36 33 31 31 30 31 31 31 30 33 32 33 34 32 31 31 28 28 26 23 28 25 28 27 26 27 27 26 25 28 29 30 31 31 31
47 45 45 43 43 42 40 37 37 36 31 30 29 28 31 32 32 32 30 31 32 32 33 33 31 29 30 25 26 26 29 26 27 24 28 26 25 29 30 31 31 31 32 31
46 44 43 42 42 41 40 38 39 39 34 28 28 30 29 31 33 32 32 32 32 32 32 31 31 28 30 27 27 27 25 23 22 21 27 27 28 29 31 31 31 31 33 33
46 45 43 43 43 41 40 39 38 38 36 29 28 30 31 31 31 30 30 30 30 30 30 29 27 27 26 23 22 20 21 22 21 25 30 30 29 31 31 30 30 31 31 33
46 45 43 43 43 42 40 36 39 38 40 33 28 32 31 31 31 31 30 31 30 30 30 28 27 28 29 23 19 22 26 27 29 28 31 33 32 31 30 29 30 31 32 32
45 44 44 42 42 40 37 35 37 37 39 32 28 27 31 33 33 33 32 32 31 31 30 28 27 27 29 27 23 23 25 30 30 32 31 29 29 29 29 28 29 31 31 31
43 43 43 41 41 40 35 36 37 38 35 36 26 23 27 31 29 29 33 30 31 31 29 29 27 28 28 25 26 26 27 28 29 29 29 29 29 28 27 27 27 27 28 28
44 44 42 40 37 35 35 39 39 40 37 28 30 24 20 30 30 32 31 31 28 30 28 27 28 27 23 28 27 24 27 27 28 29 29 28 28 29 29 27 26 25 26 27
43 39 36 34 35 40 40 37 34 33 33 33 25 29 22 29 29 28 29 30 28 26 28 29 26 26 29 25 26 27 27 27 27 25 25 26 25 27 26 26 26 26 26 27
37 34 33 37 38 36 33 30 27 29 27 29 28 28 24 30 27 26 30 26 27 24 28 25 26 24 26 26 26 26 26 25 25 24 24 24 24 24 25 25 26 27 28 28
38 37 37 35 32 32 25 24 26 26 22 28 27 27 28 29 31 28 29 24 27 23 29 25 22 28 23 24 24 24 26 26 26 25 24 23 23 25 26 27 27 28 28 28
37 34 29 30 27 24 19 14 20 22 27 27 26 24 28 29 29 27 26 21 22 28 25 22 26 24 20 20 21 21 25 27 28 26 26 26 26 28 28 27 26 26 26 26
33 27 14 23 21 26 29 28 28 29 29 30 28 25 26 28 27 25 17 25 26 21 15 15 21 22 19 19 20 20 19 20 22 23 25 25 26 26 27 27 27 27 27 25
28 30 17 25 26 27 29 27 28 30 30 28 27 26 26 23 22 24 22 16 12 17 17 22 23 23 21 20 21 21 21 21 21 22 21 21 23 23 24 25 25 25 24 24
29 26 22 25 25 26 27 27 27 30 29 28 28 22 17 19 21 16 13 14 12 16 22 25 21 20 24 24 24 22 22 23 23 22 22 22 22 22 22 24 24 24 24 25
27 25 27 29 28 28 29 26 26 29 28 24 24 12 15 21 16 16 20 15 20 24 24 25 25 24 24 24 23 23 24 24 24 24 24 24 25 24 23 22 22 24 25 25

GFSNW_sfc_dewp_063.txt.gz
Dewpoint
55 53 51 51 49 49 48 42 36 45 45 39 39 35 36 36 35 38 36 36 34 31 24 26 30 33 33 35 35 31 35 32 31 33 38 37 35 31 28 25 23 24 21 17
54 52 50 51 50 50 45 40 40 45 45 31 32 35 35 36 35 36 36 34 34 34 30 27 32 33 36 37 36 34 33 31 28 29 31 33 33 32 31 31 30 24 19 18
53 52 50 51 50 50 45 38 35 41 42 40 36 33 34 34 38 35 35 35 35 32 30 30 30 33 37 36 36 40 36 31 25 23 27 31 30 30 31 29 24 25 25 22
53 52 50 51 50 50 45 39 34 35 33 33 36 36 34 33 32 34 33 32 34 30 28 29 31 32 36 36 38 35 34 27 26 29 31 31 30 28 30 28 28 25 25 25
53 50 51 51 50 50 42 38 36 36 34 35 35 35 33 33 36 34 31 32 33 32 32 33 29 30 30 31 35 34 34 27 27 24 28 28 28 29 29 29 30 29 28 27
52 51 50 50 50 48 41 38 37 35 35 34 33 33 33 35 36 36 35 34 35 35 35 32 33 33 33 34 33 33 32 27 24 21 24 23 21 25 26 29 29 30 28 30
52 50 49 50 49 48 39 36 37 33 32 33 33 34 35 35 35 34 34 35 34 36 36 36 32 32 32 32 32 33 32 29 25 18 21 12 21 25 26 29 30 30 30 29
51 50 49 49 49 49 38 38 37 33 30 31 32 34 36 35 35 33 33 33 34 36 36 30 29 28 28 29 30 29 33 31 24 21 18 21 25 27 26 27 29 27 28 26
51 50 49 49 47 48 38 36 36 35 30 28 27 34 35 33 31 32 31 33 37 38 35 31 24 23 25 26 29 29 29 28 26 23 19 16 24 28 30 28 26 26 27 26
51 49 48 47 48 49 38 35 37 33 28 29 29 31 32 33 32 31 30 31 35 36 33 29 26 23 27 25 25 25 26 26 23 22 20 24 24 25 31 22 22 29 29 29
49 49 48 46 49 49 37 35 37 33 29 29 31 31 29 29 30 30 29 31 32 34 30 29 27 26 25 25 28 26 25 22 24 25 26 21 26 27 26 27 29 31 31 31
49 48 45 45 49 44 39 33 34 34 31 29 31 31 31 31 31 31 32 31 32 33 32 30 29 27 27 25 23 27 24 26 26 25 25 26 27 30 31 31 31 31 31 31
48 47 45 45 44 42 39 35 35 33 29 28 28 28 30 31 32 32 30 31 32 32 33 32 31 28 29 24 25 25 27 26 27 25 25 25 30 31 31 31 31 31 31 31
48 47 45 44 44 42 39 35 38 34 31 25 26 30 29 31 32 31 31 31 31 32 32 31 29 28 30 27 27 27 28 23 22 22 28 28 30 31 31 31 31 31 31 32
47 47 45 44 43 42 39 38 37 37 30 27 27 30 31 31 31 31 31 31 30 30 28 26 26 26 25 23 21 21 23 22 20 19 29 28 29 31 30 29 29 31 31 32
47 45 44 44 43 41 36 29 34 37 35 29 25 32 32 33 32 32 31 31 31 30 28 26 26 28 27 20 19 21 27 29 29 29 31 32 32 31 30 29 29 30 31 31
46 44 45 45 42 38 34 29 33 38 37 29 25 24 30 32 33 33 32 31 31 30 28 27 26 27 28 26 22 23 26 29 31 32 29 28 29 27 29 27 27 29 29 30
45 44 44 42 41 38 31 34 38 38 34 30 18 19 25 30 29 28 32 29 30 29 28 28 26 27 27 23 26 26 28 29 30 29 29 29 29 28 28 29 27 26 25 26
45 44 43 38 36 30 30 37 39 38 29 25 22 19 16 29 30 31 30 30 26 29 27 27 28 26 21 25 27 26 27 27 27 28 28 28 27 27 28 27 26 25 26 26
45 40 34 31 34 39 40 34 28 30 30 27 21 22 18 27 29 28 29 29 29 19 27 28 26 25 28 26 27 28 27 27 26 23 22 23 23 24 24 24 25 26 26 27
36 33 32 36 38 35 31 27 24 26 21 26 25 22 22 29 23 25 29 26 27 23 25 24 24 24 25 26 26 26 25 25 25 24 24 23 23 23 23 24 25 26 26 25
36 35 36 34 30 29 20 21 23 22 20 25 24 26 27 28 29 26 28 22 25 22 29 25 22 27 24 23 23 24 25 26 24 25 25 24 24 24 25 26 26 26 26 26
37 30 25 22 20 14 3 13 17 17 24 24 24 22 27 28 28 26 22 17 18 27 25 19 22 25 21 20 21 21 22 22 24 23 23 24 24 25 26 26 26 26 25 25
28 20 11 12 10 19 25 21 20 24 24 26 26 25 26 27 24 24 13 25 24 13 9 14 19 21 19 19 20 20 19 20 21 20 22 23 23 23 24 26 26 25 24 24
23 19 4 17 25 27 24 21 25 25 28 27 25 25 24 21 20 23 19 14 7 14 15 18 20 22 21 20 20 20 21 21 22 22 21 19 20 21 22 23 23 23 23 23
23 19 17 25 25 25 22 22 25 25 28 26 25 20 16 18 19 13 10 11 9 14 17 22 22 20 22 24 24 23 22 22 23 23 23 23 23 22 22 23 23 23 23 23
17 19 27 27 27 26 25 26 26 28 27 20 19 10 12 20 13 14 17 12 16 20 21 22 23 23 23 23 22 21 21 22 22 22 22 22 23 22 19 20 22 23 23 24

GFSNW_sfc_dewp_066.txt.gz
Dewpoint
49 51 53 51 50 50 48 43 34 45 45 37 38 34 36 37 35 37 36 35 33 29 25 28 32 32 33 35 35 32 34 32 29 30 35 37 35 31 27 21 20 22 18 17
48 50 52 51 51 50 46 39 40 45 45 33 33 35 36 36 36 37 36 33 33 34 30 29 33 34 36 37 35 33 32 29 21 25 28 32 32 32 31 30 28 25 18 18
49 49 52 51 51 50 46 38 35 40 42 39 35 34 35 35 37 36 37 34 34 32 29 30 32 33 37 36 35 40 36 29 24 21 24 31 29 31 31 28 25 25 25 21
48 52 52 51 51 51 45 37 33 35 33 35 34 34 34 33 33 34 33 32 34 30 27 28 31 34 36 36 37 34 33 26 25 29 30 30 29 30 30 28 27 26 24 24
48 52 52 51 51 51 45 37 34 35 32 34 34 35 33 32 35 32 31 31 31 31 30 30 29 31 31 32 34 33 33 25 26 24 27 27 27 29 29 30 29 28 28 28
48 49 51 51 51 50 42 40 37 35 34 33 33 33 33 35 35 35 35 34 34 33 33 33 33 32 33 34 33 32 31 27 23 22 24 22 21 23 27 29 29 29 28 30
47 51 51 51 51 47 40 37 37 34 31 33 32 34 36 36 34 33 33 35 33 36 36 34 32 31 31 31 31 34 30 27 24 17 20 12 20 26 29 30 29 29 28 27
49 51 50 50 50 46 38 37 36 33 30 32 33 35 35 34 33 32 32 33 35 36 34 30 28 28 28 29 29 29 32 30 24 20 18 20 23 27 26 27 26 25 25 26
48 49 49 49 50 51 38 35 37 34 32 28 28 35 34 32 30 30 31 34 37 38 33 30 23 23 25 26 27 29 28 29 24 23 19 17 22 27 28 28 24 28 28 28
49 49 50 49 50 49 37 35 37 32 28 29 30 33 33 33 31 30 31 32 34 36 31 28 26 23 26 25 25 25 26 25 23 22 20 23 25 25 29 20 21 29 30 30
49 50 49 48 49 46 36 35 36 32 29 29 30 30 29 30 31 30 30 31 33 33 29 29 27 25 25 25 26 25 25 23 23 24 22 22 25 27 26 27 30 30 30 31
50 49 48 48 48 44 38 33 34 33 30 29 31 31 31 31 30 31 32 30 32 33 30 30 28 27 26 25 23 26 25 25 25 25 25 27 30 29 31 31 30 30 30 31
49 48 47 46 48 44 38 34 33 33 29 28 28 28 30 31 32 32 31 31 32 32 33 31 30 27 28 23 24 23 26 27 26 26 26 28 30 31 31 30 30 31 31 31
48 47 46 47 46 43 38 34 37 33 29 26 27 30 29 31 31 31 32 32 32 32 32 30 28 28 29 26 26 26 28 25 23 24 27 29 30 30 30 30 30 30 31 31
47 46 45 46 44 42 39 37 37 36 30 26 27 29 32 33 31 31 31 31 30 30 28 27 26 27 24 22 22 22 24 23 21 21 27 26 28 31 30 28 28 30 30 30
47 46 46 45 44 41 33 29 34 37 34 29 26 31 31 33 33 32 31 31 31 30 27 26 26 27 25 19 17 21 26 28 28 28 30 30 32 30 29 28 28 29 30 30
46 45 45 45 42 38 32 29 33 39 35 29 25 23 29 31 31 32 31 31 30 28 27 26 25 26 27 25 20 23 27 31 31 30 29 28 28 27 28 26 27 28 28 28
46 44 45 43 41 38 31 34 40 37 31 28 18 25 25 30 28 27 31 28 29 28 27 27 26 26 26 23 25 27 30 30 29 28 28 27 28 27 27 28 28 26 25 25
46 45 43 37 35 29 29 39 39 35 29 23 18 18 19 29 29 29 29 29 26 28 26 26 27 25 21 23 25 27 28 27 27 28 27 26 25 25 25 25 25 24 24 25
45 40 33 30 34 40 38 33 26 30 28 26 22 20 23 27 28 27 25 28 25 14 26 27 25 24 27 26 28 28 28 27 26 20 20 21 21 21 21 22 23 24 25 25
36 33 32 36 38 33 29 26 22 25 20 25 23 22 25 28 22 26 27 27 28 20 21 22 20 22 25 26 26 26 25 25 25 25 23 23 22 22 22 22 23 25 25 24
36 35 36 34 30 26 19 17 23 21 18 25 24 24 27 28 29 26 26 20 26 14 29 24 19 24 25 25 24 25 25 24 24 24 23 23 23 23 23 24 24 25 25 25
35 30 27 26 20 12 5 11 19 23 25 25 26 23 27 27 27 25 22 17 16 27 23 16 20 24 24 22 22 23 22 21 21 21 21 22 22 24 23 23 24 24 25 25
28 24 15 17 15 17 20 22 20 23 24 24 25 24 25 27 24 23 15 25 23 15 7 14 17 23 20 20 20 19 20 20 20 20 22 22 22 21 22 23 23 24 23 22
23 23 5 13 24 26 25 17 23 26 27 25 23 23 23 21 20 22 22 21 8 13 13 17 19 22 20 19 20 20 20 21 21 21 19 18 18 19 21 22 22 22 22 22
24 20 20 25 22 22 18 23 25 25 26 24 23 18 15 18 19 12 9 9 8 13 16 22 22 21 20 20 23 23 22 21 21 21 21 21 21 21 21 22 21 21 22 22
23 22 27 23 23 20 22 25 25 27 23 17 17 6 9 19 12 13 16 11 16 17 20 21 22 20 22 23 22 22 20 20 20 20 20 20 21 17 15 17 20 21 23 23

GFSNW_sfc_dewp_069.txt.gz
Dewpoint
47 48 50 53 50 51 49 43 36 45 44 37 36 32 34 36 35 36 35 33 32 26 25 29 30 31 33 35 35 32 33 31 28 29 35 36 34 30 26 21 21 21 18 18
47 48 49 51 51 51 46 40 40 45 44 30 31 35 35 35 35 36 35 33 33 33 29 29 33 33 36 36 34 32 32 27 19 21 25 31 32 32 30 28 26 22 16 19
47 48 48 51 51 52 46 40 34 40 42 37 33 34 34 34 37 36 36 33 34 31 29 32 32 33 37 35 35 40 35 28 23 20 22 29 28 31 29 27 21 23 23 23
45 48 48 51 50 52 47 37 33 35 33 34 36 34 35 33 33 34 35 33 32 28 27 30 31 34 35 35 37 34 30 25 25 28 30 30 29 30 30 27 27 23 24 24
44 49 48 50 50 52 46 38 34 34 33 34 35 35 33 33 33 31 31 30 31 30 28 28 29 32 32 30 33 32 32 25 25 23 25 26 27 28 29 30 28 27 27 28
44 48 48 48 50 50 44 41 37 34 35 32 33 33 33 33 34 34 34 33 33 31 32 33 32 32 34 34 32 31 29 27 22 20 23 22 21 22 27 28 30 29 27 29
46 47 48 50 51 49 43 38 36 33 31 33 33 34 35 35 34 33 33 34 33 36 36 33 31 31 31 30 30 33 29 26 23 17 20 12 21 27 27 28 27 27 25 25
48 48 51 51 50 48 39 37 35 34 30 32 33 35 35 33 32 31 32 33 34 36 32 29 28 28 28 29 29 31 31 28 23 18 16 19 23 27 27 27 26 25 25 27
48 48 50 50 50 48 38 36 36 34 32 28 28 34 33 31 29 30 32 35 37 36 33 29 23 22 24 25 26 29 28 27 24 22 18 17 21 28 28 29 23 28 28 28
47 50 50 50 49 50 38 35 36 32 28 28 30 33 33 33 30 30 31 32 34 35 30 28 25 23 26 24 24 24 26 25 22 21 19 22 25 26 28 20 20 29 29 29
47 50 50 49 49 49 38 34 35 32 28 28 30 30 30 31 31 30 31 31 32 33 28 28 27 24 26 23 24 24 24 22 22 23 20 18 25 27 25 27 29 30 30 30
49 50 49 49 48 45 38 32 34 33 30 29 30 30 31 31 31 31 31 30 31 33 30 29 28 27 25 24 23 25 24 24 24 25 24 27 29 28 30 30 29 29 28 30
50 50 49 47 48 42 37 33 33 32 29 28 29 28 30 31 31 32 31 31 33 32 32 31 29 27 27 23 24 22 25 27 26 25 26 27 28 29 30 29 29 30 31 30
49 49 47 47 48 42 37 33 35 32 29 27 27 30 30 32 32 31 32 32 32 32 32 29 28 27 28 25 25 25 27 26 24 24 25 26 29 29 29 30 30 29 30 30
48 47 46 47 46 42 38 37 36 34 31 26 27 29 32 34 32 32 31 31 30 29 27 26 26 27 25 22 23 23 24 24 23 24 26 26 27 30 30 28 28 29 28 28
46 46 47 46 43 41 33 30 34 35 34 29 25 31 30 32 33 32 31 31 30 28 27 25 26 27 24 20 18 19 25 27 26 26 29 28 30 30 28 27 28 28 28 29
46 47 47 46 43 38 30 29 33 37 34 29 25 24 29 29 30 31 30 31 29 28 28 26 24 25 26 24 19 22 27 29 29 29 29 27 26 27 28 26 27 28 27 27
46 46 44 42 41 37 32 36 40 35 29 28 21 26 25 29 28 27 31 28 28 28 27 27 25 26 26 22 24 25 29 29 27 27 26 25 28 27 25 26 26 25 25 24
46 44 42 37 34 29 30 40 37 35 29 22 21 20 21 29 28 29 28 29 24 28 26 26 26 25 20 21 24 28 29 27 27 27 26 25 24 23 22 22 22 22 22 23
45 39 34 30 33 39 39 31 26 29 29 28 23 22 26 26 27 26 24 27 24 13 26 27 25 24 27 26 27 28 29 28 27 22 21 22 21 19 19 19 21 22 23 24
36 32 30 35 39 33 28 24 20 23 21 26 24 25 26 28 22 23 27 19 22 13 19 22 18 22 24 26 27 28 27 25 23 21 22 22 22 21 21 21 21 23 24 24
36 35 36 34 29 27 16 12 20 19 19 26 25 25 27 28 28 26 25 20 20 13 27 23 16 21 25 25 25 25 25 24 22 23 23 22 22 22 22 22 22 23 24 25
35 31 25 25 21 5 4 8 13 16 26 26 26 23 26 27 27 25 22 18 17 26 23 15 18 23 25 25 24 24 23 21 20 19 20 21 21 22 22 21 22 22 22 23
28 24 14 14 6 13 14 18 24 26 26 25 25 25 25 26 22 23 13 24 23 16 11 12 16 23 24 23 21 19 19 19 20 20 21 22 21 20 22 22 22 22 22 22
24 22 12 12 20 27 25 24 24 25 28 25 23 23 23 21 20 22 23 20 8 12 12 16 19 22 22 20 19 19 19 20 20 19 18 16 16 18 19 20 21 22 22 21
22 19 19 25 24 22 18 17 21 24 25 24 23 19 17 18 19 14 10 8 6 11 15 21 21 22 20 19 20 21 22 21 20 20 20 20 20 20 19 20 19 19 20 20
20 22 27 24 23 23 24 24 24 26 22 17 18 8 11 19 12 12 15 12 15 17 18 21 22 21 20 20 22 22 22 20 19 19 19 19 20 15 14 16 19 19 21 21

GFSNW_sfc_dewp_072.txt.gz
Dewpoint
46 47 47 49 50 50 48 43 34 45 45 37 36 31 33 36 34 35 34 31 31 26 26 28 29 30 33 35 35 31 32 29 29 29 33 35 35 29 24 21 21 20 20 19
46 47 47 50 51 49 46 39 39 45 45 32 32 34 34 34 33 34 33 32 33 33 28 28 31 33 36 35 34 30 30 26 17 21 25 30 30 31 29 25 24 20 17 19
46 47 47 49 51 50 46 40 33 39 42 38 29 32 33 32 36 36 35 32 33 31 29 31 31 32 36 35 36 38 33 27 21 18 21 28 28 29 29 25 19 23 20 23
46 46 47 49 51 50 46 40 35 38 33 35 32 33 34 32 33 34 35 33 32 28 27 28 30 34 33 34 36 33 29 25 24 26 29 29 29 29 29 24 25 21 23 24
46 44 49 50 51 51 45 38 36 34 31 33 32 35 32 32 33 32 31 31 32 30 28 27 28 32 30 29 32 31 30 24 25 22 24 25 27 28 30 29 28 27 24 25
46 46 48 48 49 50 44 42 38 34 34 32 31 32 33 33 33 34 33 32 32 31 32 32 32 34 33 32 30 30 28 26 21 20 22 21 20 23 27 28 29 28 26 28
45 45 48 49 49 49 44 41 37 33 30 31 32 33 34 34 33 33 33 33 32 34 34 33 31 31 30 30 30 32 27 25 22 17 19 13 21 27 26 28 27 27 26 26
45 48 48 50 48 48 43 38 36 33 30 30 32 35 33 32 32 31 32 34 34 35 31 29 28 28 28 29 29 30 29 26 22 17 16 18 22 28 27 25 26 26 25 26
46 48 50 51 51 47 39 37 37 33 32 30 28 34 32 30 28 30 33 35 36 34 31 27 22 21 23 24 25 28 27 27 24 22 18 15 20 28 29 29 21 27 27 28
46 49 51 50 49 47 39 36 35 32 28 27 29 33 32 32 30 29 30 31 33 33 29 27 25 22 24 23 23 23 25 24 21 21 19 21 24 28 28 19 19 28 29 29
46 49 50 51 49 46 39 33 34 31 28 28 30 30 30 31 31 30 31 31 32 32 28 27 26 24 24 22 22 22 24 21 22 22 19 15 26 28 23 25 28 29 29 29
47 50 50 50 49 46 38 32 34 33 30 28 31 30 31 31 30 32 30 29 31 32 30 28 27 25 24 23 21 24 22 24 23 24 23 26 28 27 28 29 29 27 28 29
46 50 49 49 49 44 37 33 32 32 29 29 29 28 30 31 31 32 31 31 32 31 31 30 28 26 26 23 23 21 24 26 26 25 25 26 27 28 29 28 28 29 30 30
49 50 49 49 44 41 37 33 34 32 30 29 28 31 31 33 32 32 32 33 32 32 31 29 28 27 27 24 24 25 27 26 24 24 25 26 28 29 29 29 29 29 29 29
49 49 48 49 43 42 38 36 36 33 31 27 27 29 32 33 32 32 32 31 30 29 27 26 26 27 25 22 24 23 25 25 25 24 26 26 26 29 30 28 27 28 26 25
48 47 48 47 44 40 33 30 34 34 33 29 28 31 30 32 31 31 31 31 29 28 27 25 26 27 24 21 20 20 22 26 24 24 26 27 28 29 28 26 26 26 26 27
47 48 46 43 41 37 30 29 33 36 34 28 24 24 29 30 30 30 30 30 29 28 27 25 24 25 25 22 17 19 26 28 27 28 29 27 27 27 28 26 26 27 26 26
47 45 44 42 41 38 33 35 38 33 29 28 21 25 25 29 28 26 30 27 27 28 26 26 24 25 25 21 23 24 28 28 27 28 25 24 27 26 25 25 25 23 23 23
45 44 42 37 34 30 32 38 36 34 28 22 21 21 20 29 29 29 28 28 23 28 26 26 26 23 19 20 21 26 29 27 27 26 24 24 22 22 21 20 20 20 19 20
43 37 32 29 32 40 38 30 25 28 28 27 19 23 24 27 27 26 24 26 24 15 25 26 25 24 26 27 26 27 30 28 27 23 22 23 20 19 17 18 19 20 21 21
36 32 30 34 38 31 26 22 21 24 21 26 24 26 26 28 23 24 27 17 21 14 18 22 18 21 24 25 26 28 28 28 25 20 19 20 19 19 19 19 20 21 22 22
35 35 35 32 27 23 12 10 22 19 18 25 26 25 27 27 28 26 25 19 17 12 23 21 15 20 24 25 25 25 25 24 23 22 21 21 21 21 21 21 21 21 22 23
35 30 23 23 18 7 4 1 9 15 25 26 27 24 26 27 27 25 21 15 14 24 22 14 18 22 24 25 24 24 22 22 21 20 20 20 21 22 21 21 21 20 20 21
29 23 14 17 9 13 15 15 18 25 25 26 25 26 25 25 23 23 13 23 22 16 14 11 16 20 23 24 23 23 21 19 18 19 21 21 22 20 21 21 21 21 21 21
24 21 13 15 20 25 24 17 22 24 28 25 24 24 22 20 20 23 23 20 14 12 10 15 17 20 23 23 21 19 18 18 19 19 17 16 15 17 18 19 20 21 21 20
22 15 14 23 22 23 20 15 20 23 25 25 22 18 17 20 20 15 9 8 7 12 15 19 20 23 22 21 20 19 19 20 20 19 19 19 19 19 18 18 19 19 19 19
16 16 25 22 19 20 21 23 24 26 21 15 16 6 8 18 11 11 15 12 16 17 17 19 22 22 21 19 20 22 22 21 19 18 18 18 19 13 13 16 19 19 20 20

GFSNW_sfc_dewp_075.txt.gz
Dewpoint
47 47 47 47 49 49 47 42 34 46 47 36 36 31 32 36 34 35 33 31 29 25 26 29 30 30 33 36 35 31 33 30 28 31 33 35 35 29 23 24 21 20 20 19
47 47 47 46 50 49 45 37 38 46 45 32 33 34 34 33 33 33 32 32 32 31 29 29 32 34 36 35 34 31 30 27 20 24 26 30 31 31 27 25 24 21 19 20
48 47 46 48 50 49 46 39 32 38 41 38 33 34 31 31 35 35 33 32 32 29 29 31 32 32 35 35 36 37 31 27 22 20 23 28 29 30 28 24 22 22 20 23
47 47 46 49 50 48 45 39 36 38 32 35 34 34 32 31 31 34 34 32 30 28 26 27 31 33 32 33 35 32 30 26 24 25 27 30 30 30 29 25 24 22 22 24
47 47 47 49 49 49 44 37 36 38 32 34 34 34 30 31 31 32 31 31 31 29 27 27 27 32 30 30 31 31 30 25 25 22 24 26 28 29 29 29 27 26 24 25
46 47 47 48 49 50 44 42 40 36 34 33 33 33 31 32 33 34 33 32 31 30 31 31 32 33 33 32 31 29 27 26 22 20 22 22 21 24 28 29 29 27 23 27
46 46 47 49 50 48 45 41 37 32 32 32 33 34 34 32 32 32 32 33 31 33 33 33 32 30 30 31 31 30 27 25 22 18 20 14 21 28 27 28 28 28 27 28
46 46 48 50 50 47 42 38 37 34 31 32 34 34 33 31 31 31 33 34 33 34 31 29 28 27 28 28 28 28 28 25 22 19 17 17 22 27 27 26 26 27 26 27
47 47 50 50 49 45 39 37 37 35 32 30 29 33 32 29 27 30 33 35 36 33 30 26 22 21 23 25 26 28 27 26 24 21 18 14 20 27 28 28 19 26 27 28
46 48 50 50 48 45 39 35 34 32 29 29 30 32 31 30 30 29 30 31 32 32 29 27 24 21 24 22 23 24 25 24 22 22 19 21 24 27 28 20 18 28 28 28
47 51 50 49 47 44 38 33 33 32 28 29 30 30 30 30 31 30 31 31 32 31 28 27 26 24 24 22 22 22 24 22 22 22 20 13 26 28 23 25 29 29 29 29
47 51 50 49 48 44 39 33 33 33 30 28 30 30 31 30 30 32 30 29 30 32 29 28 27 24 23 22 20 23 22 24 23 23 22 25 28 28 29 29 29 29 29 30
48 50 50 49 47 44 38 32 32 32 29 30 30 29 30 33 32 31 31 31 32 31 31 29 28 26 26 23 23 21 24 26 26 25 25 27 28 29 30 29 29 30 30 30
48 50 50 50 46 42 38 33 33 32 31 30 28 31 31 33 32 32 32 33 32 32 31 29 28 26 27 24 24 25 27 27 25 25 25 26 28 29 29 30 30 30 30 29
47 49 48 45 43 41 37 35 35 33 31 27 27 29 32 32 32 31 31 31 30 29 27 26 26 27 25 22 24 23 26 26 25 25 26 26 26 29 30 29 28 28 27 26
46 49 49 46 42 38 33 29 34 34 33 29 29 30 30 31 31 30 30 30 28 28 27 25 26 26 25 22 21 23 25 25 25 24 26 27 28 29 29 27 26 27 27 27
48 48 47 45 42 38 30 28 33 36 33 28 24 23 29 30 30 30 29 29 28 27 26 25 24 25 25 22 17 17 22 25 26 26 29 27 28 28 29 27 26 27 27 26
47 45 45 44 43 39 33 35 38 33 29 28 21 22 25 29 27 25 29 26 27 27 26 26 23 25 25 21 23 22 27 28 27 28 25 24 27 27 27 26 25 23 21 20
46 44 42 36 33 30 33 38 35 33 27 22 21 20 18 29 28 28 28 27 23 28 25 25 25 22 18 19 18 24 27 27 27 26 25 25 24 24 23 20 18 17 17 18
44 35 31 28 31 40 35 30 25 27 28 27 20 23 21 27 26 26 24 25 23 14 24 26 25 23 25 25 23 25 28 28 26 23 22 23 20 19 16 16 17 19 19 20
34 30 28 33 38 29 25 23 20 23 20 25 24 23 25 28 22 24 27 17 19 12 17 22 18 20 23 24 25 26 28 28 25 20 18 20 18 17 17 18 19 21 21 21
34 33 34 31 26 22 13 11 20 20 15 24 25 25 27 26 28 26 25 18 18 11 20 21 15 20 23 24 24 25 27 26 23 21 19 21 20 20 21 21 21 21 21 21
34 29 23 24 19 9 6 4 10 16 24 26 27 25 26 27 27 24 20 15 15 22 18 13 16 20 23 24 24 23 22 23 22 21 19 19 19 21 21 20 20 20 19 20
28 20 13 17 10 15 16 15 17 21 23 26 25 26 25 25 23 23 12 22 21 14 10 9 15 18 21 24 24 23 22 20 18 18 20 21 21 19 20 21 20 20 20 20
27 22 15 16 21 18 21 17 19 22 27 25 23 25 23 22 20 23 22 18 12 10 9 15 17 20 22 23 23 22 21 19 18 18 17 15 14 15 17 19 19 20 20 20
19 13 11 19 17 15 23 22 23 24 26 23 23 20 15 16 19 15 11 7 5 10 15 19 18 22 22 22 22 20 18 19 20 20 19 18 18 18 17 17 18 18 19 19
21 15 22 21 17 19 22 23 24 26 22 17 18 8 10 17 8 9 13 10 14 16 16 18 21 22 21 21 20 20 21 21 19 18 17 17 18 12 10 14 18 19 20 20

GFSNW_sfc_dewp_078.txt.gz
Dewpoint
48 47 48 46 49 49 46 42 34 44 47 35 36 33 32 35 33 35 32 31 27 26 29 31 31 32 35 35 35 31 32 31 31 31 32 33 34 29 24 24 21 22 20 20
48 48 47 48 49 49 46 38 38 46 46 32 33 35 33 33 32 32 31 31 31 29 31 29 33 34 36 36 35 32 30 30 30 29 29 31 30 28 26 24 26 22 21 21
49 48 48 50 49 48 47 40 33 37 40 39 31 35 31 30 35 34 33 33 31 30 30 33 33 33 35 35 36 36 32 28 27 24 27 30 28 28 28 26 27 19 20 24
47 47 47 50 50 50 47 40 35 37 34 35 35 35 31 29 30 35 33 31 29 28 28 30 31 33 32 33 35 32 31 31 29 26 28 30 30 30 29 29 24 23 22 23
47 47 47 49 49 50 45 38 37 38 34 35 35 35 30 30 33 33 30 30 30 29 27 28 29 31 31 32 32 31 31 32 28 30 25 28 28 30 29 28 27 25 24 25
47 48 47 49 50 49 44 43 41 37 34 33 35 34 32 32 33 34 33 31 31 31 32 33 34 34 33 33 31 29 29 30 31 27 23 23 23 24 28 30 29 26 23 28
47 48 48 50 49 47 46 42 38 33 31 31 36 34 33 33 34 33 33 33 32 34 34 33 32 31 31 30 30 30 28 28 29 29 24 21 21 28 28 27 29 29 29 31
47 47 50 50 49 45 43 39 38 34 31 33 35 33 33 33 34 34 35 35 35 34 32 30 28 28 28 29 29 28 28 26 25 25 23 19 22 27 26 26 25 28 28 29
48 50 51 50 45 42 38 36 38 37 33 31 29 32 33 32 32 34 35 36 37 35 30 27 24 22 25 26 27 29 28 27 25 22 18 11 21 27 29 30 20 28 28 29
47 50 51 49 47 42 38 35 36 36 32 30 30 32 32 33 33 33 34 34 35 34 31 27 25 25 26 22 24 26 27 27 25 25 22 21 24 28 28 20 20 28 28 29
49 50 49 49 45 42 37 34 35 35 31 30 30 30 31 33 33 32 34 33 33 33 29 28 28 25 26 25 25 26 25 25 24 24 23 16 27 28 24 26 28 29 29 30
50 50 49 47 44 42 38 34 34 33 33 30 31 31 32 32 31 34 33 32 33 33 30 30 28 25 26 25 20 27 24 25 23 24 22 26 28 29 30 29 29 30 31 30
50 50 49 49 46 42 39 35 35 35 32 31 31 30 31 33 33 32 33 34 35 33 34 32 30 27 27 24 25 26 27 28 26 26 26 27 28 29 30 30 30 31 31 30
50 51 50 49 46 43 39 36 36 36 34 32 29 31 31 33 33 32 33 34 34 34 33 32 31 28 29 26 26 26 27 28 27 27 27 27 28 29 30 30 30 30 30 30
49 50 50 48 44 41 39 37 36 35 35 30 29 30 31 32 32 32 32 32 32 33 34 34 30 29 28 25 26 26 27 27 26 23 27 27 27 28 30 30 30 29 28 26
47 49 47 44 41 38 35 33 36 37 35 36 31 31 30 31 31 31 30 31 30 31 31 29 28 28 28 27 23 25 27 27 27 25 27 28 30 30 30 30 29 27 27 27
48 49 47 45 42 40 33 31 36 37 36 33 31 30 29 30 30 31 30 30 30 30 29 28 27 29 30 26 22 21 21 26 27 27 29 29 30 29 29 28 27 27 27 25
49 48 46 44 42 39 35 37 39 35 31 32 30 30 28 30 28 28 31 27 28 29 28 27 25 26 27 24 24 23 26 29 30 29 26 26 28 29 29 28 26 22 19 17
47 45 41 39 35 33 34 38 38 35 32 33 30 31 29 30 30 30 30 28 27 29 26 26 27 23 24 22 20 23 28 29 29 30 27 27 26 26 25 22 18 15 16 18
41 37 33 33 33 40 35 33 30 32 31 30 30 28 29 29 28 28 28 28 26 28 25 28 26 24 26 24 23 23 28 29 29 26 24 24 23 21 17 15 17 18 19 20
37 33 32 35 37 32 27 29 28 24 24 26 27 28 28 29 28 27 28 28 26 25 26 26 25 23 25 25 26 27 29 28 26 21 19 21 20 18 17 18 19 20 20 20
37 36 35 33 28 27 24 22 20 21 22 25 27 27 28 28 29 28 27 26 25 22 26 25 21 25 24 26 27 28 30 28 25 20 19 19 19 19 20 20 20 21 21 21
36 31 30 26 25 18 18 15 20 20 25 27 28 28 27 28 28 26 24 23 23 25 23 21 22 22 24 26 27 27 29 29 24 21 21 19 19 21 21 21 22 21 20 20
32 27 18 23 20 21 23 23 26 24 28 28 28 27 27 26 26 24 22 22 22 19 16 19 25 23 23 26 26 25 24 24 25 25 22 22 23 22 22 22 21 19 19 19
31 26 21 22 23 24 23 24 27 27 29 27 26 26 24 26 24 23 23 19 18 18 19 25 25 22 24 25 25 24 23 21 20 20 22 22 21 21 21 21 20 19 19 20
26 21 20 20 22 23 24 25 26 28 28 26 26 24 22 23 23 21 20 17 16 24 24 25 22 22 24 25 24 23 21 20 18 20 20 19 18 19 20 19 20 21 21 21
29 24 22 24 24 24 23 23 24 27 25 26 23 17 18 21 19 18 19 20 26 26 23 23 25 25 25 25 23 21 20 21 22 19 18 19 19 18 20 20 20 21 21 22

GFSNW_sfc_dewp_081.txt.gz
Dewpoint
48 49 50 50 49 48 45 40 33 46 46 35 36 35 33 33 31 32 30 29 26 26 28 29 29 32 35 35 34 31 32 31 30 29 31 32 33 25 23 25 23 23 23 23
49 49 49 50 50 49 45 38 36 44 45 34 35 34 31 30 29 31 30 29 30 29 29 29 31 32 34 35 34 32 29 29 31 28 29 31 28 27 26 24 27 21 22 23
49 48 49 49 50 50 47 40 34 38 39 40 32 29 26 29 35 33 32 31 30 29 30 31 31 32 34 34 35 36 34 29 29 26 29 30 28 27 25 27 27 18 21 24
47 48 48 49 50 50 45 41 36 38 35 33 35 31 27 27 30 33 32 29 27 27 28 29 30 30 31 33 34 32 31 30 31 26 28 30 28 27 26 27 23 22 22 23
47 48 48 49 50 50 44 39 37 37 34 36 35 32 27 28 31 32 28 28 27 27 28 28 28 27 28 30 29 30 31 33 29 33 25 27 27 28 28 27 25 23 23 25
47 47 48 50 50 49 44 44 41 35 33 35 32 28 27 30 32 33 32 29 30 32 33 33 32 32 31 31 30 29 30 31 34 27 24 24 23 24 27 29 29 27 23 28
47 48 50 51 49 48 43 43 38 31 30 32 33 31 31 32 32 32 34 33 31 34 33 33 32 31 30 29 29 29 28 28 32 30 26 22 21 26 27 27 29 30 30 30
48 51 50 50 47 45 41 39 38 32 32 33 32 32 33 33 34 35 35 34 33 34 33 30 28 27 28 29 30 28 28 25 25 26 20 19 21 25 26 26 25 29 29 30
51 52 50 46 44 43 39 38 40 37 33 32 31 32 32 30 31 33 34 35 37 36 30 26 22 22 24 24 25 29 29 27 25 21 18 10 21 27 29 29 20 28 30 30
50 50 49 46 44 42 39 38 39 39 35 31 31 32 33 34 33 32 34 34 34 35 29 24 23 24 26 21 21 23 26 26 24 22 21 20 24 28 29 20 22 28 29 30
50 49 49 47 45 42 40 37 37 38 34 31 32 32 33 34 34 31 34 34 34 31 27 26 26 23 24 23 24 23 24 24 22 23 22 18 27 29 25 27 29 29 30 30
50 48 48 47 46 42 40 36 35 36 35 32 32 32 32 32 32 34 35 33 33 33 28 29 27 23 25 23 17 27 22 25 22 23 22 26 28 29 30 30 29 30 30 31
50 49 48 48 46 43 41 37 38 38 34 33 32 31 32 33 33 33 34 35 36 35 35 32 30 26 27 20 21 25 27 28 25 25 25 27 28 28 30 30 30 31 31 31
51 50 49 48 46 43 42 37 37 38 36 33 31 32 31 33 34 33 33 34 35 35 35 33 30 26 30 25 26 25 27 28 26 26 26 27 28 29 29 30 30 30 31 30
51 51 50 47 43 42 40 38 37 36 38 33 31 31 31 31 32 33 34 34 34 35 36 35 30 30 29 27 27 26 27 26 25 20 27 27 28 28 30 30 30 30 29 27
48 48 47 44 41 39 39 35 38 37 38 38 33 32 30 31 31 31 31 32 32 33 34 33 30 30 30 28 23 24 27 28 28 26 27 28 29 30 30 30 30 28 27 26
48 47 45 44 42 41 35 34 38 39 37 36 34 34 30 30 31 32 31 31 31 32 32 31 29 30 32 29 23 23 22 27 27 28 28 28 29 29 30 29 28 28 26 23
49 48 46 43 42 40 36 36 37 37 33 35 35 35 30 31 30 30 31 30 30 31 30 28 27 27 29 26 26 23 23 25 28 28 28 27 28 29 29 29 27 24 18 15
48 47 43 41 38 34 36 40 42 37 33 38 34 35 33 31 31 32 31 30 30 30 28 26 27 25 27 27 24 22 26 27 28 29 28 27 26 26 27 25 19 15 14 16
44 38 33 35 35 41 38 36 32 35 34 32 32 33 32 31 30 30 30 29 29 32 27 29 26 25 28 24 21 21 25 29 31 29 28 27 26 24 19 16 16 17 17 18
37 34 34 37 37 33 29 33 32 29 30 28 29 32 29 30 31 30 29 33 30 27 29 26 27 24 24 25 25 25 26 29 29 25 23 23 23 19 16 16 18 19 19 18
38 37 37 35 31 31 30 32 27 24 27 26 28 28 29 29 31 29 28 30 28 25 28 26 24 29 27 27 27 27 28 28 25 20 18 17 18 19 20 19 19 20 20 21
36 33 35 32 29 25 24 22 26 25 26 29 30 29 29 28 30 28 27 26 25 26 25 24 27 27 25 27 28 29 32 31 26 21 20 19 20 21 21 21 23 21 19 19
36 34 25 30 26 25 29 26 31 29 30 30 31 29 28 27 28 25 25 23 22 22 20 21 31 26 25 26 28 28 29 29 29 29 25 26 27 25 25 23 21 20 19 19
35 31 26 28 28 29 28 28 29 29 30 30 28 28 25 28 26 23 24 21 20 21 24 33 32 27 27 27 27 27 26 24 23 22 24 25 24 24 23 23 21 20 19 19
33 30 27 23 26 29 28 28 29 30 30 29 29 27 26 26 26 23 22 20 21 29 32 31 24 24 27 27 26 25 24 22 20 19 21 20 19 20 21 20 21 21 21 21
31 30 27 28 29 31 27 24 23 28 28 30 29 23 24 24 23 21 24 24 33 34 28 27 28 27 28 28 26 23 22 21 22 21 20 21 20 21 23 21 19 22 21 22

GFSNW_sfc_dewp_084.txt.gz
Dewpoint
50 49 49 50 51 50 44 39 34 45 46 36 36 33 35 32 31 33 31 30 30 30 29 32 32 33 36 35 35 31 32 32 29 30 32 32 33 26 24 26 22 25 25 24
49 49 48 50 50 49 42 37 37 45 45 33 34 37 31 33 30 32 31 29 30 31 31 32 32 33 34 36 34 32 31 28 28 26 29 32 28 25 27 27 30 22 23 24
49 49 48 50 51 50 46 40 33 39 41 41 36 30 29 31 36 33 32 31 31 30 30 31 30 32 35 34 35 38 36 29 27 25 27 30 27 26 26 29 25 23 24 26
49 49 48 49 51 51 47 40 36 38 35 35 33 30 30 31 30 33 31 30 28 28 28 29 29 31 33 33 36 33 32 27 27 26 29 29 28 27 27 26 22 23 24 26
48 49 50 50 51 51 44 38 38 39 34 35 32 32 30 30 32 32 28 29 31 31 29 29 28 29 30 30 30 30 31 28 28 23 26 27 25 27 29 29 27 24 26 26
48 50 50 51 51 50 43 43 42 37 36 33 28 28 30 33 34 34 34 32 33 32 32 32 31 30 30 29 29 29 30 30 28 23 25 24 23 24 27 29 29 28 26 28
50 52 51 51 49 48 45 43 41 35 31 32 30 31 33 34 34 33 34 33 32 34 34 34 32 31 30 29 28 28 27 28 29 24 25 16 22 27 28 27 29 30 30 30
52 52 51 47 47 46 43 42 41 37 31 31 30 31 33 34 35 35 35 34 34 35 34 31 28 27 29 28 29 29 28 26 24 23 19 19 22 26 27 27 27 29 30 30
50 49 47 46 45 46 42 40 41 41 34 31 31 32 33 31 33 33 34 36 37 36 32 26 22 23 22 24 24 28 29 27 25 23 18 14 22 28 29 29 23 29 30 30
51 50 49 48 45 45 43 40 40 41 34 32 32 33 33 35 33 33 34 34 35 35 31 25 24 23 25 22 22 23 25 25 23 23 21 22 27 28 29 20 24 29 29 31
50 49 48 48 47 44 43 39 39 40 34 32 33 33 33 34 35 32 35 34 35 34 28 26 24 24 24 24 25 24 24 24 22 23 20 17 28 28 25 27 29 30 30 31
50 49 49 49 48 47 44 39 39 38 36 33 33 33 33 33 33 33 35 33 33 35 31 29 27 24 24 24 19 27 22 26 24 23 24 27 28 30 31 30 30 31 32 31
51 49 50 49 48 47 44 40 40 42 36 33 33 32 32 34 33 34 34 36 36 35 36 34 31 27 27 21 22 24 28 28 26 25 27 27 27 29 30 31 31 31 31 31
51 50 50 48 46 46 44 39 39 40 39 34 32 32 32 33 34 34 34 34 36 35 35 34 31 27 30 26 26 26 28 28 26 25 26 28 28 30 30 30 30 30 31 30
50 50 49 46 44 43 44 41 40 38 38 33 31 31 32 32 33 34 35 36 34 35 35 33 31 30 29 28 27 27 28 27 26 23 27 27 28 29 30 30 30 30 30 28
47 49 47 43 43 43 42 39 40 39 39 38 32 33 31 31 32 32 32 33 33 34 34 32 31 30 29 27 25 25 27 27 28 26 28 29 29 30 32 30 30 29 27 26
47 47 45 45 43 42 37 36 39 39 38 36 32 32 31 31 31 33 32 32 32 32 32 31 29 30 30 29 26 25 27 28 27 28 29 29 30 29 30 29 28 28 25 23
48 46 45 43 42 41 38 38 40 41 36 36 31 32 29 31 31 31 32 31 31 31 31 28 27 28 28 26 29 21 22 27 27 28 28 28 29 30 29 28 27 25 20 16
49 47 45 41 39 36 37 41 42 40 34 32 32 30 27 31 31 32 31 30 29 31 29 27 27 27 24 26 27 25 25 26 27 29 27 27 28 28 29 27 21 16 15 16
47 41 36 35 36 40 40 38 33 34 34 33 30 32 27 30 30 30 30 30 29 23 28 29 26 26 28 28 25 25 27 29 30 27 25 25 23 25 23 19 16 17 17 18
39 36 34 37 39 36 30 31 29 31 28 31 29 29 26 30 28 30 30 29 27 20 25 24 25 25 26 27 22 23 28 30 30 26 28 27 25 23 17 16 18 19 19 19
39 38 38 36 33 31 23 24 27 24 25 26 27 27 29 29 31 30 28 26 24 19 28 24 22 27 26 26 26 25 28 29 22 21 19 18 19 19 19 19 19 20 20 21
37 34 30 32 28 21 19 15 21 22 27 27 27 25 28 28 30 28 26 21 21 25 18 21 25 27 27 27 28 28 29 26 22 20 20 20 20 21 21 20 21 21 19 19
34 27 18 23 20 24 27 26 28 28 28 28 29 26 27 27 26 26 20 24 22 14 13 18 25 25 25 28 29 30 29 25 24 23 22 23 24 22 22 21 21 20 19 20
30 28 20 24 28 26 25 25 26 27 30 30 27 26 26 25 23 24 22 15 10 18 18 24 27 25 27 27 28 29 29 27 25 23 22 20 21 20 20 21 21 20 20 19
30 27 23 25 24 23 23 23 25 28 30 27 28 23 20 21 23 17 15 15 15 22 27 27 23 25 27 27 27 27 26 24 22 21 22 22 20 20 19 19 19 19 20 19
31 28 30 27 25 27 26 28 26 30 27 24 25 17 16 21 17 17 22 20 25 30 28 26 25 26 26 27 26 25 23 22 21 21 19 19 20 17 16 15 18 19 20 19

GFSNW_sfc_dewp_087.txt.gz
Dewpoint
50 51 50 51 51 48 43 38 32 45 46 35 36 33 35 37 34 34 32 31 32 29 33 33 32 33 36 38 35 34 35 31 26 28 31 32 32 30 25 24 22 24 24 27
50 50 49 50 51 51 40 37 38 42 42 27 31 37 35 35 33 33 32 31 31 31 34 30 32 33 34 36 35 32 31 28 24 25 26 30 28 27 27 28 26 23 21 26
50 50 49 50 51 51 43 38 32 37 41 38 35 30 30 32 35 33 32 30 31 30 30 32 31 32 35 34 34 39 35 28 26 22 26 30 27 28 28 26 22 24 24 28
50 50 50 51 51 51 43 37 31 34 29 33 35 31 33 32 32 33 30 29 29 28 29 29 29 31 32 34 37 34 31 25 25 26 29 28 27 28 29 27 24 22 27 28
50 51 51 52 51 51 41 35 34 36 33 34 31 31 32 32 32 33 32 33 33 31 30 29 28 29 29 30 30 29 31 24 28 22 26 25 23 26 29 29 28 26 26 27
52 52 52 50 49 48 40 40 39 34 34 32 28 30 33 33 33 34 34 34 33 31 32 32 32 30 29 30 30 28 29 27 24 21 25 24 20 23 27 29 29 28 26 29
51 50 48 48 48 47 42 40 39 33 30 31 30 34 35 35 35 33 34 33 32 33 34 34 33 33 30 30 29 28 27 27 25 20 23 13 21 26 27 27 29 30 30 31
50 49 49 48 47 48 41 40 39 35 30 31 31 33 34 34 34 34 34 34 34 36 35 30 27 27 27 27 29 29 29 26 22 19 17 18 21 26 27 26 27 29 30 30
51 50 49 48 47 48 40 38 39 38 31 29 31 32 33 30 30 32 33 35 37 36 33 26 20 21 23 22 23 27 28 27 25 21 18 13 21 27 29 29 23 28 30 30
50 49 50 49 48 47 40 37 38 38 31 30 32 32 32 34 33 32 33 34 34 35 29 25 23 21 25 22 21 21 24 24 22 21 19 21 26 28 29 19 18 28 30 30
49 49 50 50 49 48 39 36 37 37 31 30 32 33 32 33 34 31 33 33 33 33 27 26 24 23 24 22 24 22 23 21 22 22 19 12 28 28 24 25 29 29 31 32
50 50 51 50 49 48 44 36 39 38 34 31 32 32 32 33 32 33 34 33 33 34 31 28 26 24 24 22 17 25 18 23 23 21 22 26 28 30 31 30 29 31 31 32
50 50 50 49 48 47 42 37 37 39 33 32 33 31 32 33 33 34 34 35 35 35 34 33 30 26 26 21 21 22 25 27 24 23 24 26 27 31 30 31 31 31 31 31
50 50 49 47 46 46 42 36 38 38 37 31 31 32 32 33 33 34 34 33 35 35 35 33 30 28 28 25 25 25 25 27 25 25 26 27 29 29 29 30 30 31 30 29
47 50 49 46 44 44 40 38 38 36 37 31 30 31 31 32 32 33 35 34 34 34 33 30 29 30 28 28 26 25 28 27 25 22 26 26 28 29 30 30 30 30 29 27
47 48 47 44 43 43 39 35 39 38 37 33 29 33 31 31 31 31 31 32 32 33 32 31 30 29 28 25 24 26 27 28 28 26 29 29 29 30 30 30 30 29 27 26
47 47 44 44 43 38 33 31 35 39 37 34 30 30 31 30 30 32 32 31 32 32 31 29 29 29 28 27 25 26 27 28 27 28 28 28 29 29 30 29 28 28 25 23
48 47 45 43 43 40 36 37 40 39 34 35 30 26 28 31 30 29 31 30 30 30 30 28 26 27 26 25 27 26 26 27 27 28 28 29 30 29 28 27 26 24 22 17
49 46 45 40 37 34 35 41 41 37 31 26 28 18 19 31 29 30 30 29 26 30 27 27 27 25 23 25 25 27 24 27 27 28 27 29 29 29 28 27 25 18 15 16
48 40 35 32 35 39 38 35 29 30 30 29 25 26 23 28 28 28 28 28 26 19 26 28 25 25 27 27 28 27 26 27 29 26 25 26 25 28 28 24 19 16 16 18
38 34 31 36 39 34 29 26 24 26 23 28 26 26 23 29 25 27 29 26 22 15 22 23 23 26 26 26 27 25 28 29 29 28 28 27 26 26 23 17 17 19 19 18
37 36 36 35 31 27 18 16 23 22 21 25 24 25 28 27 29 28 27 22 21 14 25 21 20 26 27 25 23 27 30 30 26 25 27 25 23 20 18 18 19 19 20 20
35 31 25 26 23 16 14 12 14 17 24 24 24 22 26 26 29 26 24 19 20 24 15 17 21 25 26 26 26 26 27 24 21 19 20 20 20 21 20 20 21 20 19 19
29 21 15 19 14 18 20 20 20 24 25 26 27 24 25 27 24 25 15 23 21 10 8 14 21 24 25 27 28 28 26 22 21 22 22 23 23 22 22 20 20 19 19 20
24 23 16 19 23 19 18 17 20 23 27 27 25 24 24 22 21 23 20 14 9 13 12 19 22 25 25 27 28 28 26 23 22 22 23 24 23 21 22 22 21 20 20 19
25 25 20 24 20 17 18 15 19 24 28 24 26 20 17 19 20 15 13 10 9 13 19 24 22 24 26 27 28 29 29 25 23 21 21 22 20 20 20 20 19 20 20 20
31 28 28 24 20 22 23 23 24 27 26 20 21 13 15 18 12 14 18 15 19 23 25 22 24 24 25 27 27 27 27 25 23 21 22 22 21 19 18 18 19 20 21 20

GFSNW_sfc_dewp_090.txt.gz
Dewpoint
50 50 50 51 51 46 42 37 32 42 43 32 35 33 35 37 36 38 36 31 30 31 34 32 33 32 35 38 37 34 36 31 26 28 30 32 32 31 26 24 21 24 23 26
50 50 50 51 51 47 39 35 35 41 42 25 29 34 36 36 33 33 32 30 31 33 33 30 32 33 35 36 34 32 31 28 24 24 23 29 29 28 28 27 25 22 19 24
51 51 51 51 51 51 41 36 28 34 38 36 31 31 29 31 35 32 31 31 31 30 31 32 31 32 35 34 34 38 34 28 25 20 25 29 27 28 29 24 21 23 24 26
52 51 51 51 51 51 40 34 28 32 30 32 34 33 32 31 32 33 34 32 32 29 29 28 28 30 31 33 36 33 29 25 24 26 28 27 26 27 29 26 25 22 27 28
51 50 49 49 50 48 39 33 33 34 32 33 29 31 32 32 32 33 32 32 32 31 29 29 28 29 29 29 29 30 31 23 27 22 25 23 21 25 28 29 27 28 27 27
49 50 49 49 49 45 38 39 38 34 33 29 29 32 33 33 32 34 34 33 31 31 32 32 32 32 29 30 29 27 29 27 23 18 24 24 16 22 26 28 29 27 25 28
50 50 49 48 49 45 41 38 38 32 29 30 31 34 34 34 34 32 33 33 30 32 35 34 34 31 30 29 30 28 27 26 24 18 21 8 17 27 27 26 29 30 31 32
49 50 50 48 49 45 38 38 38 34 29 31 31 33 34 33 33 33 33 33 34 36 33 28 25 25 25 25 27 29 28 27 21 18 17 15 20 24 26 26 26 29 30 31
50 50 50 50 49 46 39 37 38 36 30 29 30 31 33 30 29 30 32 35 36 35 32 24 20 19 22 21 22 24 27 27 24 21 16 11 18 28 29 28 20 28 30 30
50 50 50 50 49 47 38 36 37 35 31 30 30 31 31 33 32 30 32 33 33 34 27 24 22 20 24 21 20 20 23 24 21 21 18 19 24 28 28 18 10 28 31 30
50 50 50 49 49 47 38 36 38 35 31 30 32 32 31 33 33 30 32 32 32 32 26 25 24 23 23 20 22 20 19 20 22 22 19 11 28 28 21 20 29 29 31 31
48 50 50 49 48 46 41 35 38 37 33 31 32 32 32 33 33 33 33 32 32 33 30 28 27 24 24 21 15 24 21 22 21 21 20 22 29 27 30 28 28 30 30 31
49 51 50 50 47 44 41 36 36 37 33 32 32 31 32 33 33 34 33 34 34 34 34 32 30 25 26 21 21 20 24 27 25 23 20 26 27 30 30 31 31 32 32 31
47 50 50 48 47 44 39 34 36 38 36 31 31 32 32 33 33 34 34 33 34 35 34 32 29 28 28 25 24 25 24 27 25 24 25 26 27 29 30 30 31 31 30 29
47 49 50 49 46 43 38 37 36 36 37 31 30 32 32 32 32 33 34 34 34 33 31 29 29 29 28 27 26 24 27 26 24 21 24 24 26 29 30 30 30 30 28 26
47 47 48 46 45 44 39 33 38 36 38 33 28 32 30 32 32 32 32 33 32 32 32 30 30 29 28 24 23 26 27 28 28 24 28 28 29 29 30 30 30 30 29 26
47 47 45 45 45 38 34 31 34 39 37 33 27 27 31 30 30 32 32 31 31 31 30 29 28 28 29 25 23 24 27 27 28 28 29 27 29 28 30 30 29 29 26 24
48 48 45 43 44 39 35 36 40 37 34 33 24 25 26 30 29 29 31 29 30 29 29 28 27 27 26 24 26 27 27 28 27 28 28 28 29 29 28 28 26 24 22 19
49 48 44 39 36 34 34 41 39 36 30 25 24 19 18 30 29 29 30 29 26 29 27 27 27 26 23 26 26 25 27 27 27 28 29 29 28 28 27 27 25 23 17 16
48 38 34 31 35 39 37 33 29 29 29 29 24 25 24 28 27 28 27 28 26 19 26 28 26 25 27 27 27 26 27 27 28 26 24 26 26 27 27 27 23 17 16 17
37 33 31 34 38 33 28 25 23 25 23 27 24 25 24 28 25 26 29 20 21 16 20 23 22 22 27 27 26 26 28 27 28 27 27 27 27 28 27 23 18 18 18 18
37 35 36 33 30 25 18 16 22 22 21 25 24 26 27 27 29 28 26 21 19 15 22 20 17 22 25 26 24 26 28 28 28 27 27 26 26 26 23 18 19 19 20 20
33 30 24 26 21 16 14 11 14 14 22 23 23 22 26 26 29 26 23 19 20 22 13 16 19 21 23 26 25 26 28 26 23 22 23 22 21 21 20 20 21 20 19 19
27 21 16 20 13 19 20 19 18 23 24 24 24 23 24 26 24 24 14 21 21 9 10 12 18 20 24 25 26 27 27 23 22 22 21 22 23 22 22 21 21 19 18 19
26 23 17 18 22 19 18 17 19 22 27 26 24 23 23 22 21 23 19 14 9 13 13 17 20 23 24 24 26 27 25 22 20 21 22 22 23 23 22 22 22 20 19 18
24 25 20 23 21 14 16 14 17 23 27 24 25 19 17 18 20 16 14 10 9 14 17 22 20 24 23 24 26 27 26 23 21 21 21 22 21 21 21 21 20 20 20 19
32 28 27 27 25 24 23 22 23 27 26 21 21 13 15 20 14 16 18 14 18 20 21 22 24 23 22 24 27 28 28 26 23 21 21 21 20 20 19 19 19 20 21 20

GFSNW_sfc_dewp_093.txt.gz
Dewpoint
50 50 51 51 52 45 41 37 28 39 42 31 35 33 36 37 36 37 36 32 30 30 33 32 33 30 33 37 38 34 36 31 27 28 30 32 31 30 28 24 22 24 23 27
51 51 51 51 51 45 38 33 33 39 39 26 31 33 35 36 34 33 32 30 31 34 33 29 32 33 35 38 35 32 32 28 23 20 22 28 29 28 28 27 25 22 20 23
51 51 51 51 50 49 39 33 28 34 36 33 30 30 31 31 34 32 32 32 31 31 31 32 30 31 34 34 33 38 33 27 25 19 25 28 26 27 28 24 20 23 23 25
48 49 50 50 50 50 39 33 29 31 29 32 33 31 32 31 31 33 33 31 32 29 28 27 27 29 29 32 34 34 29 24 23 25 27 27 24 26 28 26 25 20 24 25
49 49 49 50 50 46 38 33 32 33 31 32 29 32 31 31 32 32 31 31 32 31 29 29 28 29 29 28 30 30 30 22 26 21 25 25 23 22 27 28 27 27 27 26
49 49 49 50 49 44 38 37 37 34 31 29 29 31 32 32 32 33 33 33 31 29 31 32 32 32 31 29 28 28 28 26 23 17 23 23 15 20 26 28 29 27 24 26
50 50 49 49 47 44 40 38 37 31 29 30 31 33 34 33 34 32 32 32 31 32 35 35 33 31 29 30 29 28 27 26 23 18 19 10 13 26 26 27 29 30 30 31
50 50 50 49 46 44 38 37 37 33 29 30 31 31 33 32 32 32 33 33 33 35 31 27 24 24 23 25 27 27 27 26 20 18 16 14 20 23 26 26 24 29 30 30
51 50 51 50 47 43 38 36 38 35 30 27 31 31 31 29 29 28 30 35 35 33 29 24 20 17 21 19 22 25 27 26 24 21 16 7 16 27 30 26 14 28 31 31
50 50 51 51 49 43 38 36 37 35 31 30 29 31 31 32 30 30 30 33 34 32 27 23 22 20 22 19 19 19 21 23 21 21 19 18 22 28 29 14 6 29 31 30
49 49 51 51 50 45 39 36 37 35 31 30 32 32 30 32 32 31 32 31 31 31 26 25 24 23 23 21 20 19 16 18 21 21 18 10 28 28 19 18 28 29 30 30
48 50 51 50 50 48 40 35 37 36 34 32 32 33 33 33 33 33 32 32 31 33 29 27 26 24 23 21 17 21 21 21 18 21 19 20 28 25 28 28 28 29 30 31
47 50 50 51 48 45 40 35 36 36 33 32 32 31 32 33 33 34 33 33 34 33 33 31 29 26 26 22 21 19 23 26 25 23 19 24 26 28 30 30 30 31 31 31
46 49 49 49 48 44 38 34 36 37 35 31 30 32 31 33 33 33 34 33 34 34 33 31 29 28 28 25 23 23 23 26 25 24 25 25 26 27 30 30 31 31 31 30
47 47 49 48 46 42 39 35 35 36 36 30 30 31 32 32 32 33 34 33 33 32 31 29 29 29 27 26 25 24 27 25 23 20 23 22 21 27 30 30 30 30 29 27
47 47 47 46 45 43 38 33 37 36 37 31 28 32 29 31 31 32 32 34 32 32 31 29 29 29 28 24 23 25 27 28 27 23 25 27 28 29 29 30 30 30 29 27
47 48 47 44 44 38 35 31 34 39 36 31 26 26 31 29 30 31 31 31 31 31 30 29 28 28 29 26 23 24 25 27 27 27 29 27 28 28 30 30 30 32 27 25
47 48 47 44 42 39 35 36 40 36 33 31 22 22 26 30 28 28 30 29 29 29 29 28 27 27 26 25 27 27 27 27 27 28 28 28 29 30 29 28 26 25 23 19
47 48 45 38 36 33 34 40 38 34 29 24 22 19 18 29 28 29 29 29 25 29 27 26 27 25 22 26 26 26 26 26 27 28 28 28 28 28 28 26 25 24 22 17
48 39 34 31 34 39 37 32 29 28 27 28 23 24 24 27 27 27 27 27 26 18 26 27 26 25 27 27 28 28 27 27 28 26 25 26 26 27 27 26 26 24 18 17
39 34 32 34 38 32 28 25 24 25 23 26 24 24 24 28 24 26 28 20 21 16 20 23 21 21 24 26 27 27 25 27 28 28 28 29 28 28 27 27 24 18 17 18
38 35 35 32 29 25 19 18 21 22 21 25 24 26 26 27 28 27 26 21 19 15 22 20 18 21 22 24 24 25 27 27 28 27 26 27 27 29 28 24 19 19 20 20
34 30 25 26 23 15 15 16 14 13 22 23 24 23 26 26 28 26 23 19 21 22 14 17 19 21 21 21 25 24 25 26 26 26 27 26 26 26 22 19 20 20 19 20
31 26 18 20 14 19 20 20 19 22 22 25 24 24 24 26 24 24 15 21 21 11 13 14 19 18 17 23 25 25 25 24 22 23 23 23 23 21 21 20 21 18 17 19
29 26 21 19 22 19 18 15 19 22 26 24 24 24 23 21 21 23 19 13 10 15 15 19 20 17 22 23 24 25 26 24 21 20 20 20 20 20 20 21 20 18 19 18
28 22 19 21 21 23 23 15 17 23 26 23 24 20 17 18 20 15 16 12 12 16 18 22 18 21 22 22 24 26 26 24 21 20 20 20 20 20 19 20 19 19 18 17
33 28 26 26 27 28 26 24 21 27 26 20 19 13 15 20 14 17 18 16 19 21 19 20 22 22 20 21 23 27 27 25 22 20 20 20 20 18 16 17 18 18 19 18

GFSNW_sfc_dewp_096.txt.gz
Dewpoint
50 51 51 51 52 47 41 34 29 39 41 32 34 33 36 38 35 36 35 31 30 30 31 30 32 29 32 36 38 35 35 32 27 27 30 31 32 30 29 24 21 24 23 26
51 51 51 51 51 45 37 32 32 39 38 27 29 31 35 36 33 32 32 30 31 34 32 29 31 32 34 37 36 33 34 27 21 18 21 28 28 28 28 27 24 22 19 22
50 49 49 50 49 47 38 32 29 34 36 32 29 30 31 31 34 33 32 32 31 32 31 31 29 30 34 36 35 38 33 27 25 19 23 27 25 25 28 25 19 22 22 24
50 50 50 50 50 47 38 33 29 31 28 31 30 30 32 31 31 33 33 30 31 30 27 27 27 29 29 32 33 33 29 23 23 25 26 26 25 23 27 25 24 18 23 24
50 50 50 51 50 45 38 33 32 32 30 30 29 32 31 31 32 32 31 30 31 30 28 28 26 29 27 27 29 29 30 23 26 22 24 25 24 24 26 28 27 26 26 25
50 51 51 50 49 43 38 36 36 32 31 29 29 31 32 32 33 33 33 33 30 29 31 32 32 32 32 30 27 27 27 25 22 19 21 22 16 19 26 27 28 26 24 25
50 51 51 51 48 44 39 37 36 31 28 30 30 32 33 32 33 31 32 32 30 32 35 34 32 31 31 30 29 28 26 25 22 18 17 6 13 25 27 26 27 29 29 30
50 50 51 51 50 45 38 37 36 32 28 30 29 31 31 30 31 30 32 33 33 35 30 26 23 22 22 25 26 26 27 25 20 16 15 13 18 22 25 24 22 29 29 30
50 50 51 51 51 46 38 36 37 34 29 26 30 30 30 29 28 28 30 34 35 31 27 23 19 15 19 18 19 27 26 26 23 20 15 6 8 25 29 24 12 27 31 30
49 50 51 50 51 46 38 36 36 34 30 30 31 31 30 32 29 29 28 32 33 31 26 23 21 20 21 18 19 18 20 22 20 21 18 19 19 28 28 12 4 28 30 31
48 49 50 50 51 48 39 36 37 35 31 30 32 33 31 32 32 29 31 28 30 29 25 25 24 23 22 20 20 17 17 16 19 20 17 10 27 27 18 17 26 28 29 30
48 49 51 51 49 45 40 35 37 36 34 31 33 33 32 32 32 34 31 30 31 32 28 27 26 24 21 19 17 20 19 19 14 20 19 19 27 24 27 27 27 28 29 30
47 48 51 49 48 45 39 35 36 35 32 32 32 31 32 33 33 34 32 33 33 32 32 30 28 26 26 22 21 18 22 24 23 23 19 24 25 28 29 29 28 29 30 31
46 47 50 50 47 42 37 33 35 37 34 30 30 32 30 33 33 33 33 33 34 33 33 30 29 28 27 24 22 21 21 25 23 24 24 24 25 26 28 29 30 30 30 31
46 47 48 48 46 43 39 35 34 36 36 29 29 31 31 32 32 33 33 33 32 31 30 27 28 28 27 26 25 24 26 24 22 20 21 20 19 25 28 30 30 31 30 28
46 47 48 47 46 43 37 33 37 36 36 30 28 31 28 29 30 31 31 33 32 31 30 29 29 29 29 24 23 25 27 27 26 23 24 24 27 29 28 30 30 31 30 28
45 47 48 46 45 38 36 32 34 38 36 31 26 26 30 29 29 31 31 30 30 30 29 28 27 27 29 26 23 25 25 26 27 28 27 27 28 27 29 30 30 33 28 27
45 46 48 46 42 38 34 35 40 36 32 31 19 22 25 30 28 28 29 29 28 29 29 27 27 27 26 25 27 26 28 27 27 27 28 27 28 29 29 28 29 27 25 23
46 47 45 38 36 33 33 40 37 33 29 24 22 19 18 29 28 29 28 29 25 28 27 26 27 25 24 27 27 27 26 26 26 27 27 28 28 28 27 27 26 26 24 20
47 40 35 32 34 38 36 32 29 28 27 27 23 23 21 27 27 27 27 27 26 18 26 27 26 25 27 27 27 27 27 28 27 26 25 27 26 27 27 27 26 26 24 19
41 35 33 34 37 32 28 26 25 25 23 26 24 24 23 28 24 26 28 21 22 16 20 23 21 22 24 25 25 27 26 26 27 28 28 28 28 27 27 26 27 25 21 17
40 37 34 32 28 26 21 19 22 22 21 23 23 25 26 27 28 27 26 21 19 16 22 20 20 22 24 23 24 23 25 26 27 27 27 27 28 28 28 27 26 21 18 19
35 31 29 28 24 17 20 19 18 15 22 22 24 23 25 26 28 25 23 18 22 22 14 17 19 21 21 20 21 24 25 25 26 27 27 26 25 27 26 25 21 19 19 19
33 29 24 24 17 21 23 23 24 25 24 24 24 22 23 26 24 24 15 22 21 10 16 16 20 19 17 19 23 25 24 24 23 24 25 25 24 23 22 22 20 19 18 18
32 28 23 21 23 19 21 20 24 25 26 26 24 23 23 21 20 23 19 14 11 15 15 21 21 17 16 21 21 24 25 25 23 21 20 19 20 20 20 20 20 18 18 18
31 27 21 22 19 19 20 21 23 26 26 25 25 20 16 17 19 16 15 13 12 17 19 23 18 17 20 20 21 24 26 25 24 21 20 21 20 19 19 19 18 18 18 17
31 30 27 25 23 27 27 25 25 27 26 24 21 15 17 19 12 14 20 19 20 22 21 20 20 20 18 19 20 24 26 26 24 22 20 20 20 19 17 17 18 18 18 17

GFSNW_sfc_dewp_099.txt.gz
Dewpoint
50 50 51 51 51 49 39 34 31 40 40 33 31 32 34 37 34 36 34 31 30 29 30 29 31 30 32 36 38 34 35 32 28 27 30 31 32 29 28 25 22 25 24 25
51 51 51 50 51 47 36 32 31 39 39 28 24 30 34 35 33 32 31 30 32 33 32 29 32 33 34 37 37 33 34 28 22 18 21 28 28 28 28 27 25 22 21 22
51 51 51 51 51 48 36 33 29 35 35 31 29 29 30 30 33 33 32 31 31 31 29 31 29 30 34 37 37 39 34 27 25 19 20 27 27 25 27 26 21 22 22 27
51 51 52 51 51 47 37 34 29 31 28 30 29 29 31 30 31 33 32 30 31 30 26 26 26 29 28 32 33 34 30 25 24 26 26 27 27 25 24 24 23 20 21 27
50 51 52 51 50 47 38 33 32 31 29 28 28 32 30 31 31 32 31 30 31 30 28 28 26 29 27 27 28 29 29 25 27 23 25 25 24 25 23 27 28 27 27 26
50 51 51 51 48 45 37 35 35 31 31 29 28 29 30 31 32 32 33 32 29 28 30 32 32 32 31 30 27 26 27 26 23 19 20 21 18 20 23 27 28 26 25 25
51 51 51 51 49 43 38 37 35 29 28 30 30 31 32 31 31 30 32 32 29 31 35 33 32 30 31 30 29 28 26 25 23 20 17 5 12 25 26 26 26 29 29 29
49 50 51 51 50 45 38 36 35 31 27 29 29 30 29 29 29 30 31 32 33 34 29 25 22 21 21 25 27 27 27 25 21 17 16 11 12 18 24 23 19 27 29 30
48 50 50 51 49 45 37 36 36 33 28 25 29 30 29 28 26 28 28 32 34 31 27 23 18 12 17 17 19 27 26 26 23 20 14 4 3 24 28 23 12 22 30 30
48 48 50 51 50 46 38 36 36 34 29 29 31 30 29 31 29 28 27 30 31 30 26 22 20 18 21 18 17 15 19 21 21 21 19 18 17 27 26 11 2 26 30 31
48 48 50 51 49 46 38 36 36 35 31 30 32 32 31 31 31 28 27 26 27 28 24 23 23 22 21 20 20 17 15 16 19 20 18 10 26 27 17 17 26 28 30 30
47 48 50 51 49 45 40 35 37 35 34 32 32 33 32 32 33 33 31 27 29 30 26 26 26 25 20 18 15 19 17 17 13 18 16 18 27 24 26 23 26 28 28 30
46 47 48 50 48 43 38 34 35 35 33 32 31 30 31 33 33 34 32 32 32 31 31 29 27 26 26 22 20 18 21 23 22 21 20 23 24 25 28 28 27 27 29 30
45 46 48 49 47 42 37 33 35 36 34 30 30 32 30 32 33 33 33 33 33 32 32 29 28 27 26 23 22 21 20 24 22 23 23 23 23 24 25 28 29 29 30 30
45 46 47 47 47 45 39 35 34 35 35 29 31 30 30 31 33 33 32 33 32 31 29 27 28 28 26 25 24 23 24 22 20 19 21 19 19 22 27 27 29 30 30 30
45 46 47 48 45 43 37 34 36 35 36 30 28 31 28 29 30 31 31 32 31 30 30 28 28 28 28 24 23 25 26 26 25 22 23 23 24 27 29 28 29 30 30 30
45 46 47 47 43 38 36 33 33 38 36 30 26 26 30 29 29 30 30 29 29 30 29 28 27 27 30 26 24 25 25 27 27 27 27 26 27 27 29 29 30 33 30 28
45 46 47 48 42 38 34 36 41 36 32 30 20 22 24 29 28 28 29 28 28 28 28 27 27 27 27 25 28 26 26 26 27 27 27 27 27 28 28 28 30 28 27 25
45 46 45 39 36 33 33 40 37 33 30 25 23 20 18 28 27 28 28 28 25 28 27 26 28 26 24 28 28 27 28 27 26 27 27 26 27 28 28 28 27 27 26 24
47 42 36 32 34 38 38 32 30 28 28 28 23 23 20 27 26 27 26 26 25 17 26 27 26 25 27 27 28 28 28 27 27 25 24 26 26 27 27 27 27 27 26 22
41 37 35 34 37 31 28 26 25 26 24 27 25 24 24 28 24 26 28 20 22 15 20 23 22 22 25 26 26 27 28 27 27 27 27 27 27 27 27 27 27 27 25 22
41 38 35 33 29 26 21 19 22 23 23 24 23 24 26 27 28 27 26 22 21 17 21 23 21 23 24 23 23 23 23 24 26 26 26 27 27 28 27 27 27 26 24 20
39 34 31 29 26 17 22 21 18 17 24 23 25 24 26 26 28 25 23 21 23 21 12 16 19 22 21 20 20 21 24 25 27 27 27 27 26 27 27 26 26 23 20 19
34 31 27 24 17 21 23 24 24 25 24 24 24 22 25 26 25 24 18 23 21 12 16 15 20 20 20 16 21 23 22 25 24 23 25 25 25 24 24 26 23 19 18 19
32 31 26 24 24 20 19 20 24 24 27 26 24 22 23 22 22 23 19 15 13 16 16 19 21 20 15 17 19 21 24 25 25 23 22 20 20 21 20 21 21 19 18 19
31 30 22 21 16 16 17 20 26 27 27 27 26 21 17 19 20 17 17 14 14 18 20 23 18 15 16 18 19 21 25 25 25 24 22 23 22 21 21 20 20 19 18 19
30 29 28 23 19 20 23 24 26 29 27 26 25 21 20 20 12 14 19 18 24 24 23 21 20 17 17 18 19 21 25 26 26 25 22 22 22 20 18 19 19 19 19 18

GFSNW_sfc_dewp_105.txt.gz
Dewpoint
51 51 51 52 52 49 44 43 42 44 46 42 38 38 35 35 34 34 32 31 30 28 30 30 29 29 32 35 36 32 34 31 30 28 32 32 32 29 25 25 25 26 24 25
52 51 51 50 50 49 42 36 40 45 44 40 38 34 33 34 33 33 32 32 33 33 31 28 29 31 34 35 35 32 33 31 29 25 27 29 29 28 27 26 28 26 23 22
51 51 52 51 49 49 43 39 42 40 39 38 33 32 32 32 35 32 32 31 32 30 28 30 29 29 34 36 36 38 36 30 27 24 23 25 24 25 26 26 28 23 21 19
51 51 52 51 49 47 44 39 38 37 38 32 33 33 32 31 31 32 31 29 30 29 24 25 26 28 30 35 37 35 33 29 30 27 25 24 24 25 25 26 27 23 19 21
50 51 52 51 49 49 42 36 35 36 32 32 30 32 31 31 31 31 28 27 28 27 25 27 25 27 26 25 30 30 32 30 28 29 24 24 24 24 24 24 24 24 23 23
50 51 51 51 49 47 40 41 38 34 32 30 28 28 29 31 33 33 31 31 30 27 29 32 31 32 31 30 27 26 27 29 29 24 21 20 17 17 20 23 23 22 20 21
49 50 51 51 49 46 42 41 38 33 26 29 28 30 31 29 31 31 31 32 30 32 35 34 34 32 32 31 31 30 27 27 28 29 24 17 15 22 24 21 21 22 24 24
49 49 50 51 49 46 42 42 39 34 26 28 28 30 30 30 30 31 32 31 33 35 32 26 21 23 25 27 30 30 30 27 26 25 18 15 11 16 22 23 17 21 25 25
47 49 50 51 49 46 42 41 42 37 31 26 29 29 31 27 25 27 29 32 35 34 28 23 18 10 14 15 21 26 29 29 26 21 16 3 9 19 24 25 14 18 22 22
46 48 49 51 50 46 42 41 42 40 33 31 31 27 29 32 30 27 28 29 33 33 26 20 16 16 21 14 14 22 24 25 25 23 21 17 17 24 27 14 12 20 23 25
45 46 48 50 50 47 42 41 41 41 36 34 33 34 33 34 32 24 30 30 32 31 25 21 19 20 18 19 16 15 16 18 20 20 20 19 26 27 18 19 21 26 28 30
45 45 47 49 50 47 42 39 39 37 38 37 35 34 35 34 34 33 34 31 29 30 26 25 24 21 21 16 8 19 16 14 12 16 18 21 26 22 25 24 24 27 28 30
45 45 45 48 49 46 42 39 40 40 38 36 35 33 34 34 35 37 31 34 35 34 35 30 27 25 24 17 18 17 19 19 19 16 15 19 20 22 25 28 27 27 29 29
47 45 45 47 48 47 42 42 40 40 38 35 33 33 33 34 34 35 36 36 36 36 36 33 30 25 26 21 20 21 18 22 19 18 19 20 20 21 22 23 24 26 27 28
48 46 45 45 47 47 44 44 41 39 38 34 33 34 33 33 34 34 35 35 35 35 35 34 31 30 30 27 27 25 23 21 19 16 19 18 18 22 26 26 27 28 28 28
49 47 45 46 47 44 41 39 39 37 40 36 32 34 32 33 33 34 34 35 35 35 34 34 33 34 30 27 23 24 25 24 23 20 23 22 23 25 26 27 28 29 29 30
50 47 45 46 47 44 39 37 37 38 40 33 34 35 32 32 33 33 33 34 34 34 35 33 32 32 33 31 24 22 26 27 27 26 26 25 26 26 28 29 29 31 31 31
50 47 45 46 47 45 41 41 41 39 36 34 35 35 27 32 31 30 33 32 33 34 33 32 31 32 32 30 28 27 26 27 27 27 28 27 28 28 28 29 30 31 31 31
49 46 46 43 42 39 38 41 40 38 36 37 34 32 34 31 31 32 31 32 30 32 30 30 31 30 30 30 30 29 30 30 29 29 29 28 27 28 28 28 29 30 30 30
47 44 40 37 38 39 41 37 35 35 35 34 32 33 32 31 30 31 31 31 30 30 29 30 28 28 30 30 30 31 31 31 31 29 30 30 30 30 27 27 29 30 30 31
43 39 37 38 38 35 33 33 32 33 31 33 32 32 31 30 31 31 31 33 32 28 30 27 28 27 28 28 28 29 29 29 29 30 30 30 29 28 27 28 29 30 31 31
42 39 37 36 34 34 31 32 30 29 29 31 30 29 29 30 31 30 30 30 28 26 28 26 24 29 30 28 27 25 25 25 27 28 28 25 25 26 28 29 30 31 31 31
42 37 34 34 34 28 28 25 28 29 31 30 29 30 29 29 31 30 29 28 26 26 25 24 27 30 27 22 21 24 26 26 27 28 29 28 29 29 29 30 31 31 31 30
35 32 30 31 30 29 30 29 34 33 32 30 30 30 29 29 29 28 28 27 24 25 23 23 32 30 27 24 24 22 20 27 30 31 31 30 31 31 31 31 30 29 29 28
33 32 30 30 32 33 33 34 31 29 30 30 29 30 27 30 29 26 27 23 23 24 25 33 36 27 24 20 19 20 22 25 27 29 30 30 31 30 30 30 30 29 28 25
33 32 30 31 31 34 30 31 32 32 30 31 31 30 27 27 27 25 24 23 23 31 34 35 28 25 22 20 20 20 21 24 25 26 26 28 29 29 30 29 28 29 27 25
31 31 34 35 35 34 34 30 28 30 30 31 31 28 26 26 25 23 26 26 33 37 36 34 28 26 26 24 22 21 21 23 27 26 27 27 28 28 28 27 27 27 26 26

GFSNW_sfc_dewp_108.txt.gz
Dewpoint
52 52 52 52 52 51 44 48 41 48 47 43 39 37 35 35 33 36 34 33 32 30 30 28 29 30 32 36 36 31 34 32 28 30 33 32 32 30 28 24 27 27 24 24
52 52 52 51 51 50 45 41 42 49 48 39 38 35 33 34 34 33 33 33 34 33 31 29 30 31 34 37 36 34 33 31 24 24 27 29 29 29 30 26 28 24 22 24
52 51 52 52 50 50 47 43 39 45 42 39 35 34 33 33 37 34 33 32 33 30 28 30 29 31 36 36 36 40 37 30 27 24 24 26 25 26 28 26 24 26 24 24
51 51 52 51 50 50 48 42 39 38 40 34 34 34 34 32 32 34 33 31 31 29 25 25 27 29 32 36 39 36 33 28 28 29 28 27 25 24 25 25 26 23 21 21
50 51 52 51 49 50 45 41 38 37 33 32 33 33 32 32 33 32 29 28 29 27 26 27 26 28 26 26 33 31 32 28 28 24 26 25 24 25 24 24 25 26 26 25
49 50 51 51 49 49 43 42 39 36 35 31 29 30 31 32 34 34 33 32 31 28 32 32 32 32 31 30 27 27 28 28 26 23 26 25 19 20 21 24 24 24 23 24
48 49 51 51 49 47 46 42 41 36 29 29 30 31 32 31 32 33 32 32 31 34 34 33 33 33 31 31 30 30 27 27 27 24 25 15 18 23 26 22 22 24 23 23
47 49 50 51 50 47 45 43 42 37 31 28 29 30 30 30 30 31 33 33 34 34 32 29 24 26 26 28 30 30 30 28 24 21 20 19 15 22 21 22 19 22 22 24
47 48 50 51 50 47 45 43 43 41 34 28 29 29 30 28 26 29 31 34 35 35 31 25 20 13 17 20 24 26 28 29 27 23 19 12 14 19 24 24 13 21 22 23
47 46 49 50 49 47 44 43 43 42 36 32 30 29 30 32 30 28 29 30 34 34 28 24 18 19 21 16 18 23 25 27 26 25 22 22 21 23 26 14 12 21 23 24
47 46 47 50 49 47 43 43 42 41 39 37 34 34 32 34 33 26 31 32 33 32 27 22 21 21 20 20 17 20 22 22 23 23 21 18 26 26 17 18 23 26 27 28
46 46 46 48 49 47 46 41 40 39 38 38 36 35 35 35 36 35 34 33 29 31 28 26 24 22 20 17 13 19 15 16 16 21 22 23 27 24 26 23 25 27 27 30
47 46 46 46 48 47 45 42 41 41 39 38 37 35 35 35 35 37 34 34 36 34 36 33 29 26 25 20 19 20 18 18 19 17 15 16 22 26 26 27 27 27 28 29
49 47 46 45 47 47 45 44 42 41 39 35 34 34 33 34 34 35 36 36 36 36 36 33 31 27 27 23 22 20 21 21 20 19 19 18 19 19 21 23 25 26 26 28
51 48 46 45 46 47 45 45 43 40 38 34 35 35 33 33 34 34 35 35 35 35 34 33 31 31 29 29 28 25 23 19 20 15 18 19 19 22 25 25 26 28 27 28
51 49 46 45 46 45 43 40 40 38 39 35 32 34 32 33 33 34 34 35 35 35 35 34 34 34 31 27 24 26 26 23 21 20 21 22 24 24 26 26 27 28 29 30
51 49 47 45 46 45 41 39 38 38 40 35 32 33 31 33 33 34 34 34 34 34 34 33 32 32 32 30 25 23 24 26 26 24 26 25 26 25 27 28 29 31 31 32
52 49 46 45 46 46 42 40 42 40 37 35 31 31 28 32 31 30 33 32 33 33 32 33 31 31 31 29 29 29 28 26 27 27 27 27 28 28 28 29 30 30 30 31
51 47 46 43 42 39 39 41 40 39 36 33 32 29 30 31 31 32 31 32 30 33 31 30 31 29 28 29 30 30 30 30 30 29 29 29 27 28 28 28 29 29 29 31
47 43 39 35 39 40 40 37 35 33 36 34 31 33 30 31 30 30 30 31 29 27 29 30 29 28 30 29 29 29 30 32 31 28 27 27 27 28 28 28 28 29 29 30
42 38 37 38 38 36 34 32 31 33 32 32 32 30 29 31 29 30 31 28 29 26 25 25 25 27 29 28 27 25 27 29 31 30 30 30 30 30 29 28 27 29 30 30
42 39 38 37 35 34 31 31 30 29 27 30 29 28 29 29 31 29 29 27 27 23 26 25 22 27 29 26 25 27 25 24 25 27 29 29 28 26 27 28 29 30 30 30
41 37 34 34 33 28 27 24 26 27 30 29 27 26 29 28 30 28 27 23 24 25 18 20 24 28 28 27 22 21 23 23 24 25 27 28 28 29 28 28 29 30 30 30
35 33 30 30 28 29 29 28 29 30 31 30 30 28 30 30 30 29 25 27 24 17 20 19 26 30 27 25 22 22 20 22 25 25 27 28 28 27 28 29 29 29 28 29
33 32 27 28 29 30 29 29 28 27 31 29 26 27 27 28 28 27 27 21 18 19 20 25 30 28 24 21 17 17 19 20 24 26 27 25 27 27 27 29 29 29 28 28
33 32 29 31 29 29 27 26 26 29 30 29 29 25 24 24 26 25 19 19 17 21 28 31 31 25 25 23 20 18 19 19 22 24 25 26 28 29 28 29 28 28 28 27
32 29 33 31 28 28 29 31 30 31 29 25 26 26 25 28 26 21 23 21 25 30 30 32 31 26 25 26 23 21 19 19 21 23 25 26 27 27 26 25 26 27 27 27

GFSNW_sfc_dewp_111.txt.gz
Dewpoint
51 52 52 51 51 49 44 43 33 44 45 35 35 29 35 36 34 35 33 33 32 29 29 27 30 31 33 36 36 33 33 32 26 29 34 34 32 30 29 23 25 27 24 23
52 52 52 52 51 50 43 38 38 46 45 30 28 34 34 35 34 33 33 33 34 33 30 28 30 32 35 37 35 33 33 30 20 23 25 29 28 29 30 27 26 22 20 23
51 51 52 52 51 51 44 40 31 40 38 37 31 32 32 33 36 33 32 32 33 31 28 29 29 32 35 36 36 40 37 31 26 23 24 27 27 28 30 27 21 22 24 25
50 50 52 51 50 51 43 37 32 35 30 30 32 33 32 31 32 33 32 30 29 29 25 26 27 31 32 36 39 35 33 27 26 28 29 29 27 25 26 27 26 24 22 23
50 50 52 51 49 51 40 35 35 35 31 31 32 32 30 32 32 32 30 29 29 27 27 28 27 28 27 30 34 33 32 25 27 23 27 27 26 26 26 25 27 26 25 24
48 50 52 51 49 48 39 40 37 34 32 30 28 29 30 32 33 33 32 31 30 28 31 32 32 32 32 31 30 29 30 27 23 19 25 25 15 19 23 24 25 25 24 25
47 50 52 51 50 47 42 40 39 34 28 28 29 30 31 30 31 32 32 31 30 33 34 33 33 32 32 31 31 30 27 26 24 21 23 9 10 20 22 22 23 24 24 24
47 48 51 50 50 48 42 41 40 34 30 27 29 29 29 29 30 30 32 32 33 35 33 27 22 25 26 28 30 30 30 28 22 20 20 18 15 21 19 19 14 23 24 24
48 47 49 50 49 48 43 40 40 39 30 25 27 27 30 27 26 29 31 33 35 35 31 25 19 14 15 20 25 26 28 29 26 23 19 13 8 17 24 20 6 16 23 23
47 47 47 50 49 48 42 40 40 40 34 34 31 26 29 31 29 26 29 30 34 34 28 23 19 17 19 12 17 22 25 25 24 23 22 23 24 20 25 0 -4 20 21 22
47 47 47 48 49 48 42 40 39 38 34 35 34 32 32 32 30 24 27 25 30 31 25 22 20 19 19 19 18 23 23 22 23 24 22 18 24 25 13 11 26 22 25 25
48 47 47 46 49 48 46 38 40 39 36 32 37 35 36 36 34 34 32 27 30 31 27 25 24 20 21 18 11 20 16 21 22 24 23 23 26 21 25 23 21 24 28 27
50 47 47 46 46 48 45 40 40 39 36 35 36 34 34 35 35 36 29 33 34 34 35 32 29 26 24 20 19 19 17 19 17 16 15 19 20 24 26 26 25 26 28 28
51 49 46 46 45 46 46 41 41 39 37 32 32 34 33 34 34 34 35 35 36 36 35 32 30 27 27 23 21 20 21 21 18 18 18 18 19 19 20 22 26 27 28 27
52 51 47 45 45 46 44 43 42 39 36 31 33 35 33 33 34 34 34 35 34 34 32 30 29 31 29 28 28 25 24 21 20 17 17 17 17 21 24 24 24 25 25 26
52 51 48 46 45 47 42 38 39 38 39 33 29 34 31 33 34 34 34 34 34 34 33 31 33 33 30 26 25 26 26 25 24 20 21 21 22 23 25 24 25 27 28 29
51 51 48 46 46 44 39 38 38 38 39 33 29 29 31 33 32 33 33 34 33 33 32 30 31 31 32 28 25 24 26 25 26 26 25 24 25 25 25 26 26 30 30 31
50 51 48 46 46 45 40 39 42 39 36 34 28 30 30 32 31 30 33 32 32 31 30 32 32 30 29 28 29 30 30 30 30 29 27 26 27 29 27 29 29 28 29 29
50 49 46 43 41 38 38 41 40 38 36 32 33 28 26 31 31 31 30 31 30 31 31 30 30 28 28 30 30 30 31 30 30 31 29 28 29 28 28 28 28 28 28 29
47 43 39 36 38 40 40 36 33 31 34 30 30 30 28 30 30 30 30 30 29 28 29 30 29 27 29 30 29 29 30 29 29 30 28 27 27 27 28 28 28 28 28 28
42 38 36 37 38 36 33 31 31 32 31 31 31 28 26 30 27 28 30 25 30 25 27 27 25 25 29 30 29 27 26 26 25 29 29 29 29 29 29 29 28 28 28 29
41 39 38 36 33 34 31 30 30 30 27 28 28 27 29 28 29 28 28 23 27 22 25 25 22 25 27 29 27 26 24 25 23 22 23 25 26 26 26 26 27 28 28 29
40 35 34 34 33 28 27 21 25 26 26 25 25 24 27 27 29 27 26 25 23 24 15 18 22 25 26 27 24 23 23 21 22 24 26 28 27 28 27 27 27 28 29 30
35 33 28 29 25 28 26 24 23 27 28 27 28 26 26 27 26 27 22 24 24 14 18 18 23 26 28 25 22 18 16 18 22 24 26 27 27 27 27 28 28 29 28 28
30 32 27 27 28 21 22 28 25 25 30 29 25 25 27 23 25 28 24 18 16 16 18 24 25 28 27 23 22 18 16 17 18 22 24 24 24 25 27 27 28 28 28 28
33 32 29 31 29 29 24 17 22 26 28 26 27 25 22 24 23 25 19 14 13 19 23 27 27 26 26 25 25 24 20 18 18 19 22 24 25 26 27 27 28 28 28 28
30 29 31 29 20 21 23 26 27 29 27 22 25 25 22 26 24 21 21 18 23 25 27 26 28 28 27 27 26 26 24 22 20 19 21 24 26 26 26 26 26 27 27 28

GFSNW_sfc_dewp_114.txt.gz
Dewpoint
51 51 51 51 51 48 43 40 33 43 44 34 33 28 34 36 33 35 33 33 32 30 30 29 30 30 31 35 35 33 34 31 26 31 33 34 32 31 29 22 21 24 22 22
51 51 51 50 50 49 42 38 38 45 43 30 28 33 33 34 34 32 32 33 33 32 30 28 31 32 35 36 35 32 32 29 20 24 26 28 30 31 30 27 25 22 20 20
50 51 51 51 50 51 43 37 31 37 37 35 31 31 32 31 35 33 32 31 32 30 27 29 30 31 35 36 36 39 36 30 25 19 21 27 27 28 30 27 21 22 23 23
50 51 52 51 51 52 40 34 31 34 28 30 31 32 31 31 30 33 31 29 28 28 25 26 28 32 32 35 39 35 33 27 25 28 28 29 28 26 28 28 28 22 20 24
49 51 52 51 50 49 39 35 32 34 30 31 29 31 31 31 32 31 29 28 30 27 26 26 26 27 30 31 33 32 32 24 26 22 26 27 26 26 27 27 28 27 26 25
47 50 52 51 50 45 37 38 36 31 29 29 27 28 30 31 33 33 32 31 30 29 30 32 32 32 32 31 31 31 30 27 22 19 23 24 14 20 24 25 26 25 24 26
47 49 51 51 50 46 40 39 38 33 26 28 27 29 30 30 31 31 32 31 31 33 34 33 32 30 32 31 31 29 27 25 24 20 21 6 7 19 22 23 23 24 24 23
48 47 50 50 50 48 39 39 38 33 27 28 28 29 28 30 31 30 29 32 33 34 32 25 20 22 25 29 30 30 29 27 22 18 19 18 9 20 22 20 16 22 23 23
48 48 48 50 49 48 41 38 39 37 27 19 27 28 30 26 26 27 31 33 34 34 30 24 17 10 15 19 25 26 30 29 25 22 20 10 4 16 23 16 2 7 23 23
48 48 47 49 49 48 41 38 39 39 33 33 29 24 26 30 28 25 28 31 32 31 27 23 19 16 20 14 18 22 25 25 24 23 22 24 24 21 22 11 -4 17 22 22
49 48 48 47 49 49 41 40 38 35 32 32 35 32 31 31 29 22 23 24 28 30 25 23 20 19 18 18 19 23 23 22 22 23 21 17 25 24 13 13 23 23 26 26
50 48 47 46 47 48 43 38 40 39 34 31 37 37 36 35 33 30 32 23 30 29 26 25 23 21 21 18 10 21 17 20 21 24 23 24 25 21 23 22 19 20 25 25
51 49 47 47 46 47 44 40 39 38 35 33 34 34 34 34 34 36 30 30 33 33 32 29 27 24 23 19 18 17 17 21 20 18 17 22 24 24 25 26 25 24 26 27
52 51 48 46 46 46 45 41 42 39 37 31 30 34 33 34 34 34 35 34 36 36 35 30 28 26 26 22 20 19 19 19 18 18 18 17 18 19 19 21 23 25 27 27
53 52 50 47 45 46 43 42 40 39 35 29 31 35 33 33 33 34 35 35 34 33 31 30 29 30 30 28 27 25 25 22 21 18 18 17 18 18 21 22 22 23 24 25
51 52 51 48 45 46 41 38 39 37 39 33 28 33 31 33 34 34 33 34 34 34 32 30 32 33 30 26 25 27 27 26 25 22 24 23 24 23 23 24 24 25 27 28
49 51 51 48 46 42 36 36 38 38 39 33 30 30 32 32 32 33 33 33 33 33 31 30 30 31 33 28 26 27 27 29 29 29 29 28 27 25 25 25 26 28 29 30
48 50 50 46 46 44 39 39 42 39 37 34 28 29 30 32 31 30 32 30 31 31 30 31 32 31 30 28 30 30 30 30 30 30 30 29 29 28 28 28 28 28 28 28
48 49 46 43 40 36 37 41 39 38 36 33 32 28 26 31 31 31 30 31 28 30 29 29 30 28 27 30 30 30 30 30 29 30 28 29 30 29 28 28 28 28 28 28
47 43 39 35 37 41 39 35 32 30 31 30 30 30 29 30 30 30 30 30 29 26 29 30 29 27 29 29 29 29 29 29 28 25 25 28 28 29 29 28 28 28 28 28
42 38 34 36 39 35 32 32 31 31 31 31 31 28 26 30 26 27 30 24 29 25 26 28 26 25 27 29 29 29 26 25 26 25 26 25 27 28 29 29 29 28 28 28
41 39 38 35 32 34 32 29 30 30 28 27 27 27 29 28 29 27 27 22 27 21 25 26 21 24 26 27 27 24 23 22 21 22 22 24 27 27 27 26 26 27 27 28
40 36 33 34 32 28 27 17 25 25 24 25 25 24 27 27 28 26 25 25 22 23 14 19 21 24 24 25 25 21 20 18 20 21 24 25 27 27 27 27 27 27 27 29
35 33 28 29 26 26 24 21 20 26 25 25 26 24 25 27 25 25 24 24 23 13 18 17 22 24 24 26 23 21 19 18 19 21 22 24 25 25 26 28 28 28 28 28
31 32 25 26 27 23 25 25 24 25 28 27 26 25 26 23 23 27 24 21 20 16 17 22 24 24 26 24 24 24 24 22 20 19 20 22 24 26 26 28 28 28 29 28
32 32 29 30 30 29 28 19 23 25 27 24 26 21 17 21 22 25 23 19 17 18 20 23 24 26 27 27 27 26 25 25 24 24 21 20 21 23 24 26 27 28 27 27
29 29 31 28 22 23 27 28 27 28 27 22 23 19 20 20 23 22 21 16 20 23 26 23 26 27 27 28 28 27 27 28 28 26 25 24 24 23 22 23 23 26 27 27

GFSNW_sfc_dewp_117.txt.gz
Dewpoint
51 51 51 51 50 49 42 39 33 43 43 34 31 27 33 36 33 34 33 33 31 29 29 29 30 29 31 35 35 32 32 30 26 29 33 33 32 30 28 22 20 23 21 21
51 51 51 51 50 47 41 37 37 44 41 29 27 33 33 33 33 32 32 32 33 31 30 28 30 32 35 36 35 32 31 27 19 22 26 30 30 31 30 26 25 22 19 17
50 51 51 51 51 51 42 35 30 35 36 34 31 30 32 30 34 32 31 31 31 29 27 30 30 31 34 37 36 38 34 29 23 16 18 27 28 28 29 27 21 22 23 23
49 51 51 51 51 53 39 33 31 33 28 30 30 31 31 30 29 32 30 28 28 27 25 27 28 31 32 35 38 34 31 25 25 27 28 28 27 27 28 28 28 24 20 23
48 50 51 51 51 50 38 34 30 32 30 30 28 30 29 29 31 32 29 26 29 29 27 25 25 29 29 29 32 31 32 24 25 22 25 27 27 27 28 28 29 29 29 28
48 49 51 51 50 43 37 37 36 28 28 28 26 26 29 30 32 32 31 30 29 29 29 31 30 31 31 30 32 30 29 26 22 19 21 23 14 20 23 25 27 27 25 25
49 48 50 51 50 44 39 37 37 31 23 28 27 28 30 29 31 31 32 32 29 31 35 33 31 29 30 29 29 30 27 25 23 19 19 1 6 18 22 23 24 25 24 23
49 48 48 50 50 46 39 37 37 31 25 27 27 30 29 29 30 30 28 32 32 34 31 24 18 20 25 27 29 29 29 26 21 17 18 15 5 21 21 18 12 22 23 24
48 48 48 49 49 47 39 37 38 35 23 18 28 28 29 25 24 26 31 34 34 32 28 22 13 6 15 20 24 29 29 28 23 22 18 4 0 17 22 17 2 5 21 22
48 48 48 48 49 48 40 38 38 37 30 29 28 24 25 29 27 23 26 29 31 29 26 21 17 16 18 15 18 23 25 24 23 23 21 23 24 21 23 11 -3 13 23 21
49 48 48 47 48 48 41 39 39 34 31 30 34 33 31 31 29 21 21 23 25 29 23 22 20 18 18 16 17 22 23 22 23 23 21 15 25 23 12 11 18 25 22 21
50 48 48 47 47 47 42 38 40 39 34 31 36 37 36 34 32 28 31 22 27 28 24 25 22 21 21 18 10 20 16 20 21 24 22 22 25 22 22 23 21 22 22 24
52 50 47 47 46 47 43 40 40 38 35 32 32 33 34 34 34 35 30 30 32 32 31 27 26 22 22 18 17 16 18 21 20 18 15 23 24 25 25 25 23 23 25 25
52 52 50 47 46 46 44 40 41 39 36 31 29 34 32 34 34 34 35 33 36 35 34 30 27 25 25 21 20 18 19 19 18 19 18 17 16 18 19 20 22 22 23 25
51 52 52 49 46 46 42 41 39 39 35 30 31 34 33 33 33 34 35 35 34 33 31 30 29 30 29 28 27 25 24 21 18 18 20 19 22 20 24 25 25 25 23 24
50 51 52 50 46 44 41 37 38 37 38 32 28 33 32 33 34 34 33 34 34 33 31 30 31 32 30 26 25 27 27 27 26 25 27 29 29 29 26 25 27 26 25 26
48 50 51 49 46 40 35 34 37 38 39 33 29 30 32 31 31 32 33 32 32 32 31 31 31 31 33 28 27 28 27 28 30 30 30 27 28 27 29 29 29 29 27 29
48 49 50 47 47 44 38 38 41 39 36 34 26 29 31 31 30 30 31 30 31 31 30 30 31 31 30 28 30 31 31 30 29 30 29 30 29 29 30 30 29 28 28 28
47 49 47 43 40 38 37 40 39 37 35 29 31 26 22 31 30 30 30 31 27 30 29 29 30 28 27 29 30 30 30 29 29 29 28 27 28 26 27 29 29 28 28 28
48 42 40 34 37 40 39 34 31 30 30 29 30 30 28 28 29 28 28 29 28 24 28 30 28 28 30 30 30 30 30 29 26 24 22 23 23 22 24 27 29 29 29 28
40 35 33 35 39 34 31 31 30 31 29 31 30 28 24 29 25 26 29 23 29 25 25 28 26 25 27 28 28 27 25 23 22 25 25 24 23 23 26 26 26 27 26 27
39 37 37 34 33 33 30 25 29 30 28 28 26 27 28 28 29 27 27 23 27 21 26 27 22 25 26 26 25 23 21 18 18 19 20 22 23 25 27 27 26 26 27 27
38 34 33 33 30 28 25 21 26 27 25 25 25 23 26 26 28 25 24 25 23 23 22 21 21 24 24 24 25 23 23 20 21 22 22 21 22 24 25 26 27 27 27 27
32 31 24 25 23 26 24 23 23 26 25 24 26 23 24 26 24 25 23 24 23 21 19 17 22 23 23 25 24 24 24 25 24 25 24 24 25 24 24 25 26 27 27 27
31 32 22 22 25 24 27 26 27 27 29 27 26 25 25 22 23 26 25 24 21 20 20 22 22 23 25 25 25 26 26 26 26 25 25 25 24 24 24 24 25 25 26 27
32 31 28 27 29 26 28 28 25 28 28 25 26 21 18 19 22 24 24 22 19 21 22 23 23 24 25 26 27 27 27 28 27 27 27 27 25 25 25 25 24 25 25 25
27 27 30 25 23 25 26 30 28 29 28 26 25 21 20 22 21 20 22 19 21 23 23 23 24 24 26 27 26 27 28 28 28 28 28 28 28 25 21 24 27 27 26 25

GFSNW_sfc_dewp_120.txt.gz
Dewpoint
51 51 51 50 50 48 43 38 32 43 42 33 30 27 32 36 33 34 33 33 30 29 28 28 28 27 31 35 34 31 31 28 25 28 32 33 31 29 27 21 18 22 21 20
51 51 51 51 50 48 40 37 36 42 39 28 26 31 32 33 32 31 32 31 32 32 30 28 30 31 36 36 34 31 31 27 19 22 26 30 29 30 28 25 25 22 18 13
49 51 51 51 51 51 41 34 30 34 35 33 29 29 30 30 33 31 31 30 30 29 28 30 29 31 34 36 36 38 32 27 22 14 16 27 28 29 29 27 20 21 23 22
48 51 51 50 52 52 38 32 30 32 27 29 29 29 30 30 28 31 30 28 28 28 24 25 27 30 32 35 37 33 29 22 23 26 26 27 27 27 29 27 26 24 20 23
48 49 51 50 51 47 37 32 31 31 29 29 27 29 28 29 31 30 28 25 28 28 25 25 24 29 28 27 32 29 31 22 24 21 25 26 26 27 27 29 29 29 29 29
49 48 51 51 48 43 36 36 35 26 28 28 24 25 29 29 32 32 31 31 28 27 29 30 29 30 30 29 31 29 28 26 22 18 20 22 14 21 25 26 27 27 25 25
49 48 50 50 49 42 38 37 36 30 21 27 26 27 29 30 31 29 32 31 28 30 33 32 30 30 29 29 28 30 27 24 23 19 18 -2 4 17 22 24 23 27 25 24
49 49 48 49 49 44 38 37 36 30 21 26 27 29 28 29 29 28 28 31 31 33 29 22 17 19 24 26 27 27 28 26 20 16 16 12 6 21 21 19 10 22 25 25
49 49 48 48 48 46 38 36 37 33 23 14 27 27 27 24 22 25 30 32 33 30 26 21 11 5 15 20 23 29 28 27 23 21 17 2 -4 20 25 24 -2 5 22 20
49 48 48 48 48 46 39 38 37 36 27 27 28 24 25 28 25 22 25 28 30 28 24 18 15 14 17 14 19 23 25 24 23 22 21 21 22 22 26 7 -1 13 25 20
49 48 48 47 47 47 40 38 38 34 30 29 34 32 31 31 27 20 21 23 24 28 22 20 19 18 17 16 16 22 23 22 22 24 21 12 25 24 15 9 18 21 21 22
50 49 48 47 47 47 41 36 40 38 34 30 35 36 35 34 31 27 29 21 26 28 23 24 22 21 20 17 8 20 17 21 21 23 21 22 26 22 22 24 23 24 24 23
52 50 48 46 46 46 42 39 39 38 34 31 31 33 33 34 34 35 29 30 32 31 30 27 25 21 21 17 17 16 17 22 20 18 18 22 22 24 25 24 22 23 24 24
52 52 50 47 46 46 43 40 40 38 36 30 29 34 33 34 34 34 35 33 35 34 33 29 27 23 24 20 20 18 18 20 18 19 18 22 18 21 21 23 27 28 26 26
50 50 51 48 46 45 40 38 37 38 34 30 31 34 33 34 34 33 35 35 33 33 31 29 29 29 29 28 27 26 23 20 18 18 20 23 26 28 28 28 27 28 29 28
50 49 51 49 46 43 40 35 37 37 38 30 28 32 31 33 34 34 33 34 33 32 31 30 30 32 29 26 25 27 27 26 26 26 28 29 29 29 29 28 28 30 30 29
48 48 50 49 46 40 37 35 37 39 38 32 28 27 31 30 30 31 32 32 31 32 31 30 31 31 33 28 27 28 27 29 30 30 29 26 28 27 28 28 28 30 29 29
48 48 50 47 46 43 37 37 41 39 35 32 22 24 27 30 29 28 30 30 30 30 29 30 30 30 30 28 30 31 30 29 28 29 29 28 29 28 25 25 27 28 28 29
47 49 47 43 40 38 38 40 38 36 33 29 30 25 20 30 29 29 29 29 26 29 29 28 29 28 26 29 29 30 29 28 28 28 24 24 24 24 24 23 26 27 27 28
48 43 40 36 36 40 38 33 31 30 30 29 30 32 28 27 27 28 27 28 26 18 27 29 27 27 29 30 30 30 30 27 25 21 21 21 22 22 21 23 26 27 27 27
42 38 34 35 38 34 31 29 29 30 29 31 30 30 25 29 25 26 29 24 28 24 22 27 24 25 27 28 26 26 23 22 20 23 23 24 23 23 23 24 25 26 26 26
40 38 36 34 32 33 27 24 29 30 26 28 27 28 28 28 29 28 28 23 27 22 25 26 22 24 26 26 25 24 22 20 19 19 20 21 22 23 24 24 25 24 25 26
38 34 34 29 29 26 23 16 24 27 29 24 27 25 28 27 28 26 25 24 23 23 23 21 22 24 24 23 24 24 24 23 23 25 25 25 25 26 24 24 25 24 25 25
33 29 26 24 22 21 21 22 22 25 24 23 24 23 25 27 25 25 23 25 24 21 20 17 21 22 23 23 25 25 25 25 26 26 26 26 26 26 26 26 26 25 25 25
30 31 23 20 24 22 27 25 26 25 27 26 25 25 25 23 23 26 25 23 21 22 19 21 20 23 23 24 25 24 26 26 26 26 27 27 27 27 27 27 26 26 25 25
30 29 23 25 23 22 24 25 26 27 28 27 27 21 16 20 24 24 23 22 18 19 22 23 22 24 24 24 25 25 26 26 26 27 27 28 28 28 28 28 27 27 26 26
27 26 28 27 28 27 25 27 27 29 30 26 24 18 19 21 22 20 21 19 22 24 23 24 24 24 25 25 25 24 25 25 25 26 28 28 28 27 24 25 27 27 28 28

GFSNW_sfc_dewp_123.txt.gz
Dewpoint
50 51 51 50 50 47 42 38 32 42 41 33 30 27 31 36 33 34 33 32 29 28 28 29 29 28 31 34 34 31 32 27 26 28 32 33 31 29 27 21 20 23 22 19
49 51 51 51 50 48 40 36 36 41 38 28 26 31 32 33 32 31 32 31 32 32 30 28 30 32 36 36 34 31 31 27 21 23 26 32 31 30 28 25 25 22 19 11
49 50 51 51 52 50 40 33 29 34 34 32 30 29 29 30 33 31 30 30 30 28 28 30 29 31 34 36 36 37 32 27 21 16 17 28 30 30 28 27 23 22 22 21
48 49 51 50 52 50 37 32 29 30 26 29 28 28 30 29 28 31 30 28 27 27 25 25 26 30 32 35 37 33 27 22 24 25 25 27 27 29 29 27 26 24 22 23
49 48 50 50 50 45 36 31 30 30 29 29 26 28 27 27 30 28 27 25 28 27 25 25 25 29 28 27 32 30 30 22 25 20 25 26 25 26 28 29 29 27 27 28
49 48 50 50 47 42 36 35 34 26 28 27 23 23 27 28 30 31 31 29 26 27 28 29 29 29 30 30 31 29 28 25 22 15 21 21 13 19 25 27 28 28 26 26
49 49 49 49 47 41 37 36 35 29 20 27 25 27 29 29 30 28 31 30 26 30 33 31 29 30 29 29 29 29 27 24 23 18 16 -0 3 19 24 25 25 28 27 26
49 49 48 48 48 43 38 36 34 29 19 25 26 27 27 28 27 28 28 30 31 32 28 21 16 19 25 26 27 27 27 25 21 17 16 11 9 18 20 19 11 21 25 25
49 49 48 48 48 43 38 36 36 31 20 14 27 27 26 24 22 23 29 32 32 29 25 20 9 6 16 22 23 28 28 26 22 21 16 -2 -4 14 22 20 0 11 24 19
49 48 48 48 48 45 39 38 36 34 25 25 27 25 26 26 24 20 24 28 29 27 23 17 14 13 16 17 19 24 25 24 23 22 20 20 19 20 22 3 3 13 19 21
50 48 48 48 48 46 39 38 38 34 29 28 33 32 29 30 26 19 21 24 24 27 21 18 18 17 17 16 17 23 23 23 22 23 21 11 24 22 14 11 20 21 23 23
52 50 48 47 47 46 41 35 40 38 33 29 35 35 34 33 31 25 28 19 24 27 22 23 21 20 20 16 7 20 16 21 21 23 21 22 24 22 23 24 24 24 24 25
52 51 49 46 47 46 41 38 38 37 33 30 31 32 33 34 34 35 29 30 31 29 29 26 24 20 21 16 16 15 18 22 21 18 20 22 22 23 25 24 23 23 27 28
52 52 51 47 46 45 42 38 38 37 35 29 28 34 31 33 34 34 35 33 35 34 33 29 26 22 23 19 19 18 18 21 19 19 18 23 20 24 28 28 28 28 28 29
51 50 51 49 46 42 38 37 37 37 34 29 30 33 32 34 34 33 34 35 33 32 30 29 28 28 27 27 26 25 22 19 17 18 20 26 26 28 29 28 26 26 28 29
50 48 50 49 47 43 38 34 36 37 36 31 28 31 29 32 33 33 33 34 33 32 30 29 30 31 29 26 25 26 27 25 26 26 27 27 29 30 29 28 27 26 28 30
49 48 49 49 45 40 38 36 37 39 37 31 27 26 30 30 30 31 31 31 31 31 30 29 29 30 31 27 25 27 28 29 30 30 27 21 25 23 27 27 26 27 28 29
48 48 49 47 45 42 37 37 40 38 34 32 21 23 27 30 28 28 29 29 30 30 29 29 29 29 28 27 29 30 29 28 28 28 28 27 27 26 24 24 24 25 25 26
49 49 48 43 40 37 36 40 38 36 33 27 30 26 20 30 29 29 29 29 25 28 27 27 29 27 26 28 28 27 27 26 25 26 23 21 22 22 23 22 23 24 24 25
48 43 40 34 37 40 38 34 31 30 31 30 30 32 28 27 28 28 27 28 26 19 27 28 27 27 29 29 30 30 29 26 24 20 22 21 22 23 23 23 23 24 25 25
42 39 36 35 38 34 31 28 28 29 28 32 31 31 27 29 25 27 29 24 26 25 22 27 25 25 27 28 24 25 21 21 19 20 21 22 22 23 23 24 25 25 25 25
41 38 37 35 33 33 25 22 28 28 24 28 28 29 29 27 28 28 28 24 27 22 26 26 21 24 26 25 24 23 23 23 22 22 22 22 23 24 25 25 25 26 25 25
39 35 33 30 28 26 22 13 23 25 29 24 28 24 27 27 28 26 26 25 23 23 25 21 21 24 24 23 24 24 24 24 24 25 25 25 26 26 26 26 27 26 26 26
33 30 27 24 24 20 22 20 21 25 24 23 27 22 24 26 24 25 19 25 24 21 19 17 22 23 23 23 24 24 24 25 25 24 25 25 25 26 26 27 27 27 26 27
32 30 24 24 24 24 26 27 27 27 26 26 25 23 25 24 24 25 25 22 21 21 17 21 21 22 23 23 24 24 25 25 25 26 25 25 25 26 26 26 27 27 27 27
30 28 25 26 25 24 26 23 22 27 28 26 27 21 19 22 25 24 22 20 16 18 21 22 22 23 24 24 24 25 25 25 25 25 25 26 26 26 26 27 27 27 27 27
25 24 29 28 27 27 26 27 28 31 31 28 27 21 21 21 22 19 20 19 21 22 21 22 23 23 24 25 25 25 25 24 25 25 25 25 26 26 25 25 26 27 27 28